<?xml version="1.0" encoding="UTF-8"?>
<gpx version="1.1" creator="https://www.youtrack.es" xsi:schemaLocation="http://www.topografix.com/GPX/1/1 http://www.topografix.com/GPX/1/1/gpx.xsd http://www.garmin.com/xmlschemas/GpxExtensions/v3 http://www.garmin.com/xmlschemas/GpxExtensionsv3.xsd http://www.garmin.com/xmlschemas/TrackPointExtension/v1 http://www.garmin.com/xmlschemas/TrackPointExtensionv1.xsd" xmlns:gpxtpx="http://www.garmin.com/xmlschemas/TrackPointExtension/v1" xmlns:gpxx="http://www.garmin.com/xmlschemas/GpxExtensions/v3" xmlns:xsi="http://www.w3.org/2001/XMLSchema-instance">
  <metadata>
    <link href="https://www.youtrack.es">
      <text>YouTrack.es</text>
    </link>
    <time>2026-05-07T22:46:00Z</time>
  </metadata>
  <trk>
    <src>https://www.youtrack.es</src>
    <link href="https://www.youtrack.es/ruta/12270-08urdazubil-oronoz">
      <text>YouTrack.es</text>
    </link>
    <trkseg>
      <trkpt lat="43.2671220" lon="-1.5036880">
        <ele>115.450996</ele>
        <time>2012-09-02T09:42:44.000Z</time>
      </trkpt>
      <trkpt lat="43.2671730" lon="-1.5036910">
        <ele>115.543999</ele>
        <time>2012-09-02T09:42:42.000Z</time>
      </trkpt>
      <trkpt lat="43.2673180" lon="-1.5037650">
        <ele>115.117004</ele>
        <time>2012-09-02T09:42:36.000Z</time>
      </trkpt>
      <trkpt lat="43.2675430" lon="-1.5037780">
        <ele>114.684998</ele>
        <time>2012-09-02T09:42:29.000Z</time>
      </trkpt>
      <trkpt lat="43.2678040" lon="-1.5038180">
        <ele>114.473007</ele>
        <time>2012-09-02T09:42:21.000Z</time>
      </trkpt>
      <trkpt lat="43.2680900" lon="-1.5039610">
        <ele>114.007004</ele>
        <time>2012-09-02T09:42:12.000Z</time>
      </trkpt>
      <trkpt lat="43.2681350" lon="-1.5040140">
        <ele>113.926003</ele>
        <time>2012-09-02T09:42:10.000Z</time>
      </trkpt>
      <trkpt lat="43.2682100" lon="-1.5041110">
        <ele>113.614998</ele>
        <time>2012-09-02T09:42:06.000Z</time>
      </trkpt>
      <trkpt lat="43.2671620" lon="-1.5044150">
        <ele>21.398001</ele>
        <time>2011-12-24T07:33:58.000Z</time>
      </trkpt>
      <trkpt lat="43.2674100" lon="-1.5044620">
        <ele>85.770004</ele>
        <time>2011-12-24T11:44:10.000Z</time>
      </trkpt>
      <trkpt lat="43.2673680" lon="-1.5044830">
        <ele>85.731003</ele>
        <time>2011-12-24T11:44:09.000Z</time>
      </trkpt>
      <trkpt lat="43.2673380" lon="-1.5045240">
        <ele>85.772995</ele>
        <time>2011-12-24T11:44:08.000Z</time>
      </trkpt>
      <trkpt lat="43.2672770" lon="-1.5046680">
        <ele>86.285995</ele>
        <time>2011-12-24T11:44:05.000Z</time>
      </trkpt>
      <trkpt lat="43.2672590" lon="-1.5047190">
        <ele>86.759003</ele>
        <time>2011-12-24T11:44:04.000Z</time>
      </trkpt>
      <trkpt lat="43.2672570" lon="-1.5050380">
        <ele>89.157005</ele>
        <time>2011-12-24T11:43:57.000Z</time>
      </trkpt>
      <trkpt lat="43.2673610" lon="-1.5053860">
        <ele>92.434998</ele>
        <time>2011-12-24T11:43:50.000Z</time>
      </trkpt>
      <trkpt lat="43.2674370" lon="-1.5056190">
        <ele>94.406998</ele>
        <time>2011-12-24T11:43:47.000Z</time>
      </trkpt>
      <trkpt lat="43.2674620" lon="-1.5056930">
        <ele>94.819000</ele>
        <time>2011-12-24T11:43:46.000Z</time>
      </trkpt>
      <trkpt lat="43.2674850" lon="-1.5057680">
        <ele>95.308998</ele>
        <time>2011-12-24T11:43:45.000Z</time>
      </trkpt>
      <trkpt lat="43.2675720" lon="-1.5059850">
        <ele>96.819000</ele>
        <time>2011-12-24T11:43:42.000Z</time>
      </trkpt>
      <trkpt lat="43.2675950" lon="-1.5060590">
        <ele>97.224998</ele>
        <time>2011-12-24T11:43:41.000Z</time>
      </trkpt>
      <trkpt lat="43.2676540" lon="-1.5063720">
        <ele>100.695999</ele>
        <time>2011-12-24T11:43:37.000Z</time>
      </trkpt>
      <trkpt lat="43.2677100" lon="-1.5067070">
        <ele>103.537994</ele>
        <time>2011-12-24T11:43:32.000Z</time>
      </trkpt>
      <trkpt lat="43.2677310" lon="-1.5068940">
        <ele>105.420998</ele>
        <time>2011-12-24T11:43:29.000Z</time>
      </trkpt>
      <trkpt lat="43.2677390" lon="-1.5069500">
        <ele>105.963997</ele>
        <time>2011-12-24T11:43:28.000Z</time>
      </trkpt>
      <trkpt lat="43.2678130" lon="-1.5072530">
        <ele>108.862000</ele>
        <time>2011-12-24T11:43:23.000Z</time>
      </trkpt>
      <trkpt lat="43.2678620" lon="-1.5077020">
        <ele>112.139999</ele>
        <time>2011-12-24T11:43:16.000Z</time>
      </trkpt>
      <trkpt lat="43.2679340" lon="-1.5080890">
        <ele>114.507004</ele>
        <time>2011-12-24T11:43:10.000Z</time>
      </trkpt>
      <trkpt lat="43.2679890" lon="-1.5083390">
        <ele>117.918999</ele>
        <time>2011-12-24T11:43:04.000Z</time>
      </trkpt>
      <trkpt lat="43.2679970" lon="-1.5085330">
        <ele>119.381004</ele>
        <time>2011-12-24T11:43:00.000Z</time>
      </trkpt>
      <trkpt lat="43.2680480" lon="-1.5087440">
        <ele>122.766998</ele>
        <time>2011-12-24T11:42:56.000Z</time>
      </trkpt>
      <trkpt lat="43.2680690" lon="-1.5088760">
        <ele>125.629997</ele>
        <time>2011-12-24T11:42:52.000Z</time>
      </trkpt>
      <trkpt lat="43.2680060" lon="-1.5092750">
        <ele>126.121002</ele>
        <time>2011-12-24T11:42:41.000Z</time>
      </trkpt>
      <trkpt lat="43.2679640" lon="-1.5094870">
        <ele>126.123001</ele>
        <time>2011-12-24T11:42:12.000Z</time>
      </trkpt>
      <trkpt lat="43.2679750" lon="-1.5095260">
        <ele>126.136002</ele>
        <time>2011-12-24T11:41:47.000Z</time>
      </trkpt>
      <trkpt lat="43.2679430" lon="-1.5096620">
        <ele>126.139000</ele>
        <time>2011-12-24T11:41:36.000Z</time>
      </trkpt>
      <trkpt lat="43.2679560" lon="-1.5097380">
        <ele>127.027000</ele>
        <time>2011-12-24T11:41:34.000Z</time>
      </trkpt>
      <trkpt lat="43.2679020" lon="-1.5100130">
        <ele>130.945007</ele>
        <time>2011-12-24T11:41:30.000Z</time>
      </trkpt>
      <trkpt lat="43.2678810" lon="-1.5102870">
        <ele>135.707001</ele>
        <time>2011-12-24T11:41:25.000Z</time>
      </trkpt>
      <trkpt lat="43.2678220" lon="-1.5104010">
        <ele>138.104996</ele>
        <time>2011-12-24T11:41:22.000Z</time>
      </trkpt>
      <trkpt lat="43.2678100" lon="-1.5104500">
        <ele>138.632004</ele>
        <time>2011-12-24T11:41:21.000Z</time>
      </trkpt>
      <trkpt lat="43.2677930" lon="-1.5108190">
        <ele>142.912003</ele>
        <time>2011-12-24T11:41:16.000Z</time>
      </trkpt>
      <trkpt lat="43.2677340" lon="-1.5109590">
        <ele>145.395996</ele>
        <time>2011-12-24T11:41:14.000Z</time>
      </trkpt>
      <trkpt lat="43.2676510" lon="-1.5112110">
        <ele>148.737000</ele>
        <time>2011-12-24T11:41:11.000Z</time>
      </trkpt>
      <trkpt lat="43.2675470" lon="-1.5114530">
        <ele>153.518997</ele>
        <time>2011-12-24T11:41:08.000Z</time>
      </trkpt>
      <trkpt lat="43.2674660" lon="-1.5117220">
        <ele>158.891998</ele>
        <time>2011-12-24T11:41:04.000Z</time>
      </trkpt>
      <trkpt lat="43.2673960" lon="-1.5119370">
        <ele>162.125000</ele>
        <time>2011-12-24T11:41:01.000Z</time>
      </trkpt>
      <trkpt lat="43.2672790" lon="-1.5122340">
        <ele>166.533005</ele>
        <time>2011-12-24T11:40:57.000Z</time>
      </trkpt>
      <trkpt lat="43.2671470" lon="-1.5124190">
        <ele>168.420990</ele>
        <time>2011-12-24T11:40:00.000Z</time>
      </trkpt>
      <trkpt lat="43.2671140" lon="-1.5124480">
        <ele>169.806992</ele>
        <time>2011-12-24T11:39:47.000Z</time>
      </trkpt>
      <trkpt lat="43.2670750" lon="-1.5125040">
        <ele>170.313004</ele>
        <time>2011-12-24T11:39:45.000Z</time>
      </trkpt>
      <trkpt lat="43.2669550" lon="-1.5126620">
        <ele>175.684998</ele>
        <time>2011-12-24T11:39:41.000Z</time>
      </trkpt>
      <trkpt lat="43.2669460" lon="-1.5126880">
        <ele>176.572998</ele>
        <time>2011-12-24T11:39:40.000Z</time>
      </trkpt>
      <trkpt lat="43.2668750" lon="-1.5128790">
        <ele>180.442993</ele>
        <time>2011-12-24T11:39:35.000Z</time>
      </trkpt>
      <trkpt lat="43.2668350" lon="-1.5129030">
        <ele>181.423996</ele>
        <time>2011-12-24T11:39:33.000Z</time>
      </trkpt>
      <trkpt lat="43.2667880" lon="-1.5129350">
        <ele>182.365997</ele>
        <time>2011-12-24T11:39:31.000Z</time>
      </trkpt>
      <trkpt lat="43.2667760" lon="-1.5129630">
        <ele>182.898987</ele>
        <time>2011-12-24T11:39:30.000Z</time>
      </trkpt>
      <trkpt lat="43.2667350" lon="-1.5130890">
        <ele>186.242004</ele>
        <time>2011-12-24T11:39:26.000Z</time>
      </trkpt>
      <trkpt lat="43.2666790" lon="-1.5132180">
        <ele>189.529999</ele>
        <time>2011-12-24T11:39:22.000Z</time>
      </trkpt>
      <trkpt lat="43.2666180" lon="-1.5133200">
        <ele>192.978012</ele>
        <time>2011-12-24T11:39:18.000Z</time>
      </trkpt>
      <trkpt lat="43.2664880" lon="-1.5134450">
        <ele>195.807007</ele>
        <time>2011-12-24T11:39:13.000Z</time>
      </trkpt>
      <trkpt lat="43.2664000" lon="-1.5135380">
        <ele>200.110001</ele>
        <time>2011-12-24T11:39:08.000Z</time>
      </trkpt>
      <trkpt lat="43.2663260" lon="-1.5136390">
        <ele>201.563995</ele>
        <time>2011-12-24T11:39:04.000Z</time>
      </trkpt>
      <trkpt lat="43.2663380" lon="-1.5136770">
        <ele>202.542999</ele>
        <time>2011-12-24T11:38:46.000Z</time>
      </trkpt>
      <trkpt lat="43.2663070" lon="-1.5137700">
        <ele>202.574997</ele>
        <time>2011-12-24T11:37:14.000Z</time>
      </trkpt>
      <trkpt lat="43.2662270" lon="-1.5139980">
        <ele>204.445999</ele>
        <time>2011-12-24T11:36:40.000Z</time>
      </trkpt>
      <trkpt lat="43.2661920" lon="-1.5140650">
        <ele>205.478012</ele>
        <time>2011-12-24T11:36:26.000Z</time>
      </trkpt>
      <trkpt lat="43.2661390" lon="-1.5141550">
        <ele>208.350998</ele>
        <time>2011-12-24T11:36:22.000Z</time>
      </trkpt>
      <trkpt lat="43.2661100" lon="-1.5143250">
        <ele>211.254013</ele>
        <time>2011-12-24T11:36:14.000Z</time>
      </trkpt>
      <trkpt lat="43.2660220" lon="-1.5144690">
        <ele>214.541992</ele>
        <time>2011-12-24T11:36:01.000Z</time>
      </trkpt>
      <trkpt lat="43.2660210" lon="-1.5145300">
        <ele>215.550003</ele>
        <time>2011-12-24T11:35:51.000Z</time>
      </trkpt>
      <trkpt lat="43.2659980" lon="-1.5147530">
        <ele>218.406998</ele>
        <time>2011-12-24T11:35:44.000Z</time>
      </trkpt>
      <trkpt lat="43.2660300" lon="-1.5147950">
        <ele>220.313004</ele>
        <time>2011-12-24T11:35:42.000Z</time>
      </trkpt>
      <trkpt lat="43.2660520" lon="-1.5148250">
        <ele>220.820999</ele>
        <time>2011-12-24T11:35:41.000Z</time>
      </trkpt>
      <trkpt lat="43.2661120" lon="-1.5149870">
        <ele>222.761002</ele>
        <time>2011-12-24T11:35:38.000Z</time>
      </trkpt>
      <trkpt lat="43.2660900" lon="-1.5151610">
        <ele>225.660995</ele>
        <time>2011-12-24T11:35:35.000Z</time>
      </trkpt>
      <trkpt lat="43.2659560" lon="-1.5154350">
        <ele>229.472000</ele>
        <time>2011-12-24T11:35:30.000Z</time>
      </trkpt>
      <trkpt lat="43.2657590" lon="-1.5157910">
        <ele>232.874008</ele>
        <time>2011-12-24T11:35:22.000Z</time>
      </trkpt>
      <trkpt lat="43.2656200" lon="-1.5160140">
        <ele>236.147003</ele>
        <time>2011-12-24T11:35:16.000Z</time>
      </trkpt>
      <trkpt lat="43.2655740" lon="-1.5160730">
        <ele>237.660004</ele>
        <time>2011-12-24T11:35:14.000Z</time>
      </trkpt>
      <trkpt lat="43.2655050" lon="-1.5161610">
        <ele>241.017990</ele>
        <time>2011-12-24T11:35:10.000Z</time>
      </trkpt>
      <trkpt lat="43.2654290" lon="-1.5161610">
        <ele>244.865997</ele>
        <time>2011-12-24T11:34:58.000Z</time>
      </trkpt>
      <trkpt lat="43.2653410" lon="-1.5162270">
        <ele>248.606995</ele>
        <time>2011-12-24T11:34:51.000Z</time>
      </trkpt>
      <trkpt lat="43.2653270" lon="-1.5162400">
        <ele>249.617004</ele>
        <time>2011-12-24T11:34:50.000Z</time>
      </trkpt>
      <trkpt lat="43.2651970" lon="-1.5163040">
        <ele>253.488998</ele>
        <time>2011-12-24T11:34:43.000Z</time>
      </trkpt>
      <trkpt lat="43.2651460" lon="-1.5163050">
        <ele>254.428009</ele>
        <time>2011-12-24T11:34:40.000Z</time>
      </trkpt>
      <trkpt lat="43.2651020" lon="-1.5162780">
        <ele>255.985001</ele>
        <time>2011-12-24T11:34:37.000Z</time>
      </trkpt>
      <trkpt lat="43.2650760" lon="-1.5162670">
        <ele>256.355988</ele>
        <time>2011-12-24T11:34:36.000Z</time>
      </trkpt>
      <trkpt lat="43.2649060" lon="-1.5162160">
        <ele>259.287994</ele>
        <time>2011-12-24T11:34:32.000Z</time>
      </trkpt>
      <trkpt lat="43.2648310" lon="-1.5161630">
        <ele>262.660980</ele>
        <time>2011-12-24T11:34:27.000Z</time>
      </trkpt>
      <trkpt lat="43.2648290" lon="-1.5161600">
        <ele>262.694000</ele>
        <time>2011-12-24T11:34:18.000Z</time>
      </trkpt>
      <trkpt lat="43.2647710" lon="-1.5161820">
        <ele>262.152008</ele>
        <time>2011-12-24T11:34:03.000Z</time>
      </trkpt>
      <trkpt lat="43.2647000" lon="-1.5162790">
        <ele>262.130005</ele>
        <time>2011-12-24T11:33:56.000Z</time>
      </trkpt>
      <trkpt lat="43.2646760" lon="-1.5163270">
        <ele>261.106995</ele>
        <time>2011-12-24T11:33:53.000Z</time>
      </trkpt>
      <trkpt lat="43.2646740" lon="-1.5163280">
        <ele>261.121002</ele>
        <time>2011-12-24T11:33:52.000Z</time>
      </trkpt>
      <trkpt lat="43.2645770" lon="-1.5164510">
        <ele>258.729004</ele>
        <time>2011-12-24T11:33:39.000Z</time>
      </trkpt>
      <trkpt lat="43.2644870" lon="-1.5165720">
        <ele>257.365997</ele>
        <time>2011-12-24T11:33:33.000Z</time>
      </trkpt>
      <trkpt lat="43.2645060" lon="-1.5166420">
        <ele>259.291016</ele>
        <time>2011-12-24T11:33:29.000Z</time>
      </trkpt>
      <trkpt lat="43.2646670" lon="-1.5166910">
        <ele>262.632019</ele>
        <time>2011-12-24T11:33:25.000Z</time>
      </trkpt>
      <trkpt lat="43.2648210" lon="-1.5168990">
        <ele>266.933990</ele>
        <time>2011-12-24T11:33:21.000Z</time>
      </trkpt>
      <trkpt lat="43.2649650" lon="-1.5172040">
        <ele>270.867004</ele>
        <time>2011-12-24T11:33:16.000Z</time>
      </trkpt>
      <trkpt lat="43.2649890" lon="-1.5173200">
        <ele>272.250000</ele>
        <time>2011-12-24T11:33:14.000Z</time>
      </trkpt>
      <trkpt lat="43.2651740" lon="-1.5177510">
        <ele>275.687988</ele>
        <time>2011-12-24T11:33:05.000Z</time>
      </trkpt>
      <trkpt lat="43.2653040" lon="-1.5179830">
        <ele>276.085999</ele>
        <time>2011-12-24T11:33:00.000Z</time>
      </trkpt>
      <trkpt lat="43.2655160" lon="-1.5179970">
        <ele>278.906982</ele>
        <time>2011-12-24T11:32:56.000Z</time>
      </trkpt>
      <trkpt lat="43.2657000" lon="-1.5180060">
        <ele>278.407990</ele>
        <time>2011-12-24T11:32:52.000Z</time>
      </trkpt>
      <trkpt lat="43.2659160" lon="-1.5179050">
        <ele>281.862000</ele>
        <time>2011-12-24T11:32:47.000Z</time>
      </trkpt>
      <trkpt lat="43.2661410" lon="-1.5179540">
        <ele>282.821991</ele>
        <time>2011-12-24T11:32:40.000Z</time>
      </trkpt>
      <trkpt lat="43.2663440" lon="-1.5180440">
        <ele>281.380005</ele>
        <time>2011-12-24T11:32:31.000Z</time>
      </trkpt>
      <trkpt lat="43.2663650" lon="-1.5182100">
        <ele>282.871002</ele>
        <time>2011-12-24T11:32:28.000Z</time>
      </trkpt>
      <trkpt lat="43.2664280" lon="-1.5186210">
        <ele>284.282990</ele>
        <time>2011-12-24T11:32:17.000Z</time>
      </trkpt>
      <trkpt lat="43.2665080" lon="-1.5186380">
        <ele>284.216003</ele>
        <time>2011-12-24T11:32:14.000Z</time>
      </trkpt>
      <trkpt lat="43.2667840" lon="-1.5185950">
        <ele>285.789001</ele>
        <time>2011-12-24T11:32:01.000Z</time>
      </trkpt>
      <trkpt lat="43.2667840" lon="-1.5185950">
        <ele>285.777008</ele>
        <time>2011-12-24T11:28:44.000Z</time>
      </trkpt>
      <trkpt lat="43.2668980" lon="-1.5185850">
        <ele>285.735016</ele>
        <time>2011-12-24T11:28:31.000Z</time>
      </trkpt>
      <trkpt lat="43.2669200" lon="-1.5186180">
        <ele>285.707001</ele>
        <time>2011-12-24T11:28:28.000Z</time>
      </trkpt>
      <trkpt lat="43.2667700" lon="-1.5187360">
        <ele>290.019012</ele>
        <time>2011-12-24T11:28:24.000Z</time>
      </trkpt>
      <trkpt lat="43.2667270" lon="-1.5188150">
        <ele>292.408997</ele>
        <time>2011-12-24T11:28:23.000Z</time>
      </trkpt>
      <trkpt lat="43.2665960" lon="-1.5190320">
        <ele>297.218994</ele>
        <time>2011-12-24T11:28:20.000Z</time>
      </trkpt>
      <trkpt lat="43.2665510" lon="-1.5190870">
        <ele>298.209991</ele>
        <time>2011-12-24T11:28:19.000Z</time>
      </trkpt>
      <trkpt lat="43.2663710" lon="-1.5191920">
        <ele>302.571014</ele>
        <time>2011-12-24T11:28:15.000Z</time>
      </trkpt>
      <trkpt lat="43.2662530" lon="-1.5191240">
        <ele>303.022980</ele>
        <time>2011-12-24T11:28:12.000Z</time>
      </trkpt>
      <trkpt lat="43.2661560" lon="-1.5190940">
        <ele>303.425995</ele>
        <time>2011-12-24T11:28:10.000Z</time>
      </trkpt>
      <trkpt lat="43.2660720" lon="-1.5190840">
        <ele>303.419006</ele>
        <time>2011-12-24T11:28:08.000Z</time>
      </trkpt>
      <trkpt lat="43.2658380" lon="-1.5190320">
        <ele>303.467010</ele>
        <time>2011-12-24T11:28:01.000Z</time>
      </trkpt>
      <trkpt lat="43.2656360" lon="-1.5187980">
        <ele>303.994995</ele>
        <time>2011-12-24T11:27:56.000Z</time>
      </trkpt>
      <trkpt lat="43.2655320" lon="-1.5187580">
        <ele>303.906982</ele>
        <time>2011-12-24T11:27:54.000Z</time>
      </trkpt>
      <trkpt lat="43.2653630" lon="-1.5187540">
        <ele>304.404999</ele>
        <time>2011-12-24T11:27:51.000Z</time>
      </trkpt>
      <trkpt lat="43.2652580" lon="-1.5187760">
        <ele>303.932007</ele>
        <time>2011-12-24T11:27:49.000Z</time>
      </trkpt>
      <trkpt lat="43.2651650" lon="-1.5188140">
        <ele>304.412018</ele>
        <time>2011-12-24T11:27:47.000Z</time>
      </trkpt>
      <trkpt lat="43.2648380" lon="-1.5190510">
        <ele>304.412994</ele>
        <time>2011-12-24T11:27:39.000Z</time>
      </trkpt>
      <trkpt lat="43.2647800" lon="-1.5191360">
        <ele>304.914001</ele>
        <time>2011-12-24T11:27:37.000Z</time>
      </trkpt>
      <trkpt lat="43.2644020" lon="-1.5193780">
        <ele>305.436005</ele>
        <time>2011-12-24T11:27:27.000Z</time>
      </trkpt>
      <trkpt lat="43.2640240" lon="-1.5194490">
        <ele>305.878998</ele>
        <time>2011-12-24T11:27:19.000Z</time>
      </trkpt>
      <trkpt lat="43.2638370" lon="-1.5196140">
        <ele>306.812012</ele>
        <time>2011-12-24T11:27:14.000Z</time>
      </trkpt>
      <trkpt lat="43.2637820" lon="-1.5197490">
        <ele>305.850006</ele>
        <time>2011-12-24T11:27:11.000Z</time>
      </trkpt>
      <trkpt lat="43.2636930" lon="-1.5198850">
        <ele>307.888000</ele>
        <time>2011-12-24T11:27:08.000Z</time>
      </trkpt>
      <trkpt lat="43.2635410" lon="-1.5201880">
        <ele>310.606995</ele>
        <time>2011-12-24T11:26:59.000Z</time>
      </trkpt>
      <trkpt lat="43.2632920" lon="-1.5203690">
        <ele>313.514008</ele>
        <time>2011-12-24T11:26:53.000Z</time>
      </trkpt>
      <trkpt lat="43.2632530" lon="-1.5204140">
        <ele>313.522003</ele>
        <time>2011-12-24T11:26:52.000Z</time>
      </trkpt>
      <trkpt lat="43.2630890" lon="-1.5206270">
        <ele>315.541992</ele>
        <time>2011-12-24T11:26:26.000Z</time>
      </trkpt>
      <trkpt lat="43.2630760" lon="-1.5206650">
        <ele>315.553986</ele>
        <time>2011-12-24T11:23:51.000Z</time>
      </trkpt>
      <trkpt lat="43.2629250" lon="-1.5207840">
        <ele>315.054993</ele>
        <time>2011-12-24T11:23:40.000Z</time>
      </trkpt>
      <trkpt lat="43.2628840" lon="-1.5208440">
        <ele>315.076996</ele>
        <time>2011-12-24T11:23:37.000Z</time>
      </trkpt>
      <trkpt lat="43.2628000" lon="-1.5207790">
        <ele>315.059998</ele>
        <time>2011-12-24T11:23:31.000Z</time>
      </trkpt>
      <trkpt lat="43.2628050" lon="-1.5206640">
        <ele>315.553009</ele>
        <time>2011-12-24T11:23:29.000Z</time>
      </trkpt>
      <trkpt lat="43.2628920" lon="-1.5204090">
        <ele>317.460999</ele>
        <time>2011-12-24T11:23:24.000Z</time>
      </trkpt>
      <trkpt lat="43.2629320" lon="-1.5203100">
        <ele>317.498993</ele>
        <time>2011-12-24T11:23:22.000Z</time>
      </trkpt>
      <trkpt lat="43.2629530" lon="-1.5201560">
        <ele>316.906982</ele>
        <time>2011-12-24T11:23:19.000Z</time>
      </trkpt>
      <trkpt lat="43.2628890" lon="-1.5199450">
        <ele>320.311005</ele>
        <time>2011-12-24T11:23:15.000Z</time>
      </trkpt>
      <trkpt lat="43.2628240" lon="-1.5198880">
        <ele>323.656006</ele>
        <time>2011-12-24T11:23:13.000Z</time>
      </trkpt>
      <trkpt lat="43.2627100" lon="-1.5198690">
        <ele>325.153992</ele>
        <time>2011-12-24T11:23:10.000Z</time>
      </trkpt>
      <trkpt lat="43.2626690" lon="-1.5198990">
        <ele>325.150024</ele>
        <time>2011-12-24T11:23:09.000Z</time>
      </trkpt>
      <trkpt lat="43.2623870" lon="-1.5201420">
        <ele>328.911011</ele>
        <time>2011-12-24T11:23:00.000Z</time>
      </trkpt>
      <trkpt lat="43.2622620" lon="-1.5202300">
        <ele>331.842987</ele>
        <time>2011-12-24T11:22:54.000Z</time>
      </trkpt>
      <trkpt lat="43.2622060" lon="-1.5201720">
        <ele>330.875977</ele>
        <time>2011-12-24T11:22:51.000Z</time>
      </trkpt>
      <trkpt lat="43.2619610" lon="-1.5200730">
        <ele>336.139008</ele>
        <time>2011-12-24T11:22:44.000Z</time>
      </trkpt>
      <trkpt lat="43.2617890" lon="-1.5199190">
        <ele>338.546997</ele>
        <time>2011-12-24T11:22:40.000Z</time>
      </trkpt>
      <trkpt lat="43.2616730" lon="-1.5198740">
        <ele>340.044983</ele>
        <time>2011-12-24T11:22:37.000Z</time>
      </trkpt>
      <trkpt lat="43.2615380" lon="-1.5199210">
        <ele>343.807007</ele>
        <time>2011-12-24T11:22:33.000Z</time>
      </trkpt>
      <trkpt lat="43.2613560" lon="-1.5198190">
        <ele>348.606995</ele>
        <time>2011-12-24T11:22:29.000Z</time>
      </trkpt>
      <trkpt lat="43.2610720" lon="-1.5194030">
        <ele>348.143005</ele>
        <time>2011-12-24T11:22:20.000Z</time>
      </trkpt>
      <trkpt lat="43.2610520" lon="-1.5192580">
        <ele>349.613007</ele>
        <time>2011-12-24T11:22:16.000Z</time>
      </trkpt>
      <trkpt lat="43.2611240" lon="-1.5191730">
        <ele>350.130005</ele>
        <time>2011-12-24T11:22:14.000Z</time>
      </trkpt>
      <trkpt lat="43.2612290" lon="-1.5190020">
        <ele>352.581024</ele>
        <time>2011-12-24T11:22:10.000Z</time>
      </trkpt>
      <trkpt lat="43.2612430" lon="-1.5188770">
        <ele>354.963013</ele>
        <time>2011-12-24T11:22:08.000Z</time>
      </trkpt>
      <trkpt lat="43.2612800" lon="-1.5186710">
        <ele>356.876007</ele>
        <time>2011-12-24T11:22:05.000Z</time>
      </trkpt>
      <trkpt lat="43.2612740" lon="-1.5185990">
        <ele>357.889008</ele>
        <time>2011-12-24T11:22:04.000Z</time>
      </trkpt>
      <trkpt lat="43.2612560" lon="-1.5183040">
        <ele>360.626984</ele>
        <time>2011-12-24T11:21:58.000Z</time>
      </trkpt>
      <trkpt lat="43.2611280" lon="-1.5179090">
        <ele>361.665009</ele>
        <time>2011-12-24T11:21:49.000Z</time>
      </trkpt>
      <trkpt lat="43.2611840" lon="-1.5176850">
        <ele>364.507019</ele>
        <time>2011-12-24T11:21:45.000Z</time>
      </trkpt>
      <trkpt lat="43.2612270" lon="-1.5174390">
        <ele>365.918976</ele>
        <time>2011-12-24T11:21:41.000Z</time>
      </trkpt>
      <trkpt lat="43.2613350" lon="-1.5169890">
        <ele>368.309021</ele>
        <time>2011-12-24T11:21:30.000Z</time>
      </trkpt>
      <trkpt lat="43.2614190" lon="-1.5168770">
        <ele>366.419006</ele>
        <time>2011-12-24T11:21:25.000Z</time>
      </trkpt>
      <trkpt lat="43.2615540" lon="-1.5166390">
        <ele>362.677002</ele>
        <time>2011-12-24T11:21:17.000Z</time>
      </trkpt>
      <trkpt lat="43.2616930" lon="-1.5164970">
        <ele>364.567993</ele>
        <time>2011-12-24T11:21:13.000Z</time>
      </trkpt>
      <trkpt lat="43.2618270" lon="-1.5163080">
        <ele>367.879974</ele>
        <time>2011-12-24T11:21:08.000Z</time>
      </trkpt>
      <trkpt lat="43.2618870" lon="-1.5162210">
        <ele>369.393005</ele>
        <time>2011-12-24T11:21:06.000Z</time>
      </trkpt>
      <trkpt lat="43.2619660" lon="-1.5160160">
        <ele>372.216003</ele>
        <time>2011-12-24T11:21:02.000Z</time>
      </trkpt>
      <trkpt lat="43.2619600" lon="-1.5159680">
        <ele>372.753998</ele>
        <time>2011-12-24T11:21:01.000Z</time>
      </trkpt>
      <trkpt lat="43.2618830" lon="-1.5157460">
        <ele>376.082001</ele>
        <time>2011-12-24T11:20:57.000Z</time>
      </trkpt>
      <trkpt lat="43.2618240" lon="-1.5155580">
        <ele>378.407013</ele>
        <time>2011-12-24T11:20:54.000Z</time>
      </trkpt>
      <trkpt lat="43.2618140" lon="-1.5154620">
        <ele>379.917023</ele>
        <time>2011-12-24T11:20:52.000Z</time>
      </trkpt>
      <trkpt lat="43.2618320" lon="-1.5152950">
        <ele>380.306976</ele>
        <time>2011-12-24T11:20:47.000Z</time>
      </trkpt>
      <trkpt lat="43.2618310" lon="-1.5152870">
        <ele>380.384003</ele>
        <time>2011-12-24T11:20:43.000Z</time>
      </trkpt>
      <trkpt lat="43.2617710" lon="-1.5151550">
        <ele>381.381012</ele>
        <time>2011-12-24T11:20:35.000Z</time>
      </trkpt>
      <trkpt lat="43.2617160" lon="-1.5151770">
        <ele>382.752014</ele>
        <time>2011-12-24T11:20:33.000Z</time>
      </trkpt>
      <trkpt lat="43.2616330" lon="-1.5153300">
        <ele>386.143982</ele>
        <time>2011-12-24T11:20:28.000Z</time>
      </trkpt>
      <trkpt lat="43.2615340" lon="-1.5154610">
        <ele>389.556976</ele>
        <time>2011-12-24T11:20:22.000Z</time>
      </trkpt>
      <trkpt lat="43.2614290" lon="-1.5155900">
        <ele>391.479980</ele>
        <time>2011-12-24T11:20:18.000Z</time>
      </trkpt>
      <trkpt lat="43.2613930" lon="-1.5156240">
        <ele>391.917999</ele>
        <time>2011-12-24T11:20:17.000Z</time>
      </trkpt>
      <trkpt lat="43.2611770" lon="-1.5158340">
        <ele>395.246002</ele>
        <time>2011-12-24T11:20:11.000Z</time>
      </trkpt>
      <trkpt lat="43.2610810" lon="-1.5159090">
        <ele>397.207001</ele>
        <time>2011-12-24T11:20:09.000Z</time>
      </trkpt>
      <trkpt lat="43.2609010" lon="-1.5160330">
        <ele>400.508026</ele>
        <time>2011-12-24T11:20:05.000Z</time>
      </trkpt>
      <trkpt lat="43.2607250" lon="-1.5162220">
        <ele>403.462006</ele>
        <time>2011-12-24T11:20:00.000Z</time>
      </trkpt>
      <trkpt lat="43.2606630" lon="-1.5162900">
        <ele>404.421997</ele>
        <time>2011-12-24T11:19:58.000Z</time>
      </trkpt>
      <trkpt lat="43.2606390" lon="-1.5163330">
        <ele>404.945007</ele>
        <time>2011-12-24T11:19:57.000Z</time>
      </trkpt>
      <trkpt lat="43.2604930" lon="-1.5169030">
        <ele>407.316010</ele>
        <time>2011-12-24T11:19:43.000Z</time>
      </trkpt>
      <trkpt lat="43.2604590" lon="-1.5169920">
        <ele>407.787994</ele>
        <time>2011-12-24T11:19:41.000Z</time>
      </trkpt>
      <trkpt lat="43.2602870" lon="-1.5173030">
        <ele>408.791016</ele>
        <time>2011-12-24T11:19:29.000Z</time>
      </trkpt>
      <trkpt lat="43.2600940" lon="-1.5176090">
        <ele>409.244019</ele>
        <time>2011-12-24T11:19:17.000Z</time>
      </trkpt>
      <trkpt lat="43.2600740" lon="-1.5176220">
        <ele>409.242004</ele>
        <time>2011-12-24T11:18:52.000Z</time>
      </trkpt>
      <trkpt lat="43.2601140" lon="-1.5175540">
        <ele>409.709991</ele>
        <time>2011-12-24T11:18:37.000Z</time>
      </trkpt>
      <trkpt lat="43.2601530" lon="-1.5174090">
        <ele>408.207001</ele>
        <time>2011-12-24T11:18:30.000Z</time>
      </trkpt>
      <trkpt lat="43.2602030" lon="-1.5174040">
        <ele>409.210999</ele>
        <time>2011-12-24T11:18:23.000Z</time>
      </trkpt>
      <trkpt lat="43.2601190" lon="-1.5175000">
        <ele>409.282990</ele>
        <time>2011-12-24T11:18:17.000Z</time>
      </trkpt>
      <trkpt lat="43.2600380" lon="-1.5176890">
        <ele>408.261993</ele>
        <time>2011-12-24T11:18:05.000Z</time>
      </trkpt>
      <trkpt lat="43.2599890" lon="-1.5177990">
        <ele>405.830994</ele>
        <time>2011-12-24T11:17:59.000Z</time>
      </trkpt>
      <trkpt lat="43.2599950" lon="-1.5178220">
        <ele>405.832001</ele>
        <time>2011-12-24T11:17:57.000Z</time>
      </trkpt>
      <trkpt lat="43.2599910" lon="-1.5178410">
        <ele>404.934021</ele>
        <time>2011-12-24T11:17:56.000Z</time>
      </trkpt>
      <trkpt lat="43.2598520" lon="-1.5180710">
        <ele>401.067017</ele>
        <time>2011-12-24T11:17:41.000Z</time>
      </trkpt>
      <trkpt lat="43.2597610" lon="-1.5182480">
        <ele>399.170013</ele>
        <time>2011-12-24T11:17:29.000Z</time>
      </trkpt>
      <trkpt lat="43.2596920" lon="-1.5182370">
        <ele>399.138031</ele>
        <time>2011-12-24T11:17:24.000Z</time>
      </trkpt>
      <trkpt lat="43.2596330" lon="-1.5183260">
        <ele>399.696014</ele>
        <time>2011-12-24T11:17:17.000Z</time>
      </trkpt>
      <trkpt lat="43.2595700" lon="-1.5184640">
        <ele>398.606995</ele>
        <time>2011-12-24T11:17:10.000Z</time>
      </trkpt>
      <trkpt lat="43.2595840" lon="-1.5186280">
        <ele>398.619995</ele>
        <time>2011-12-24T11:17:02.000Z</time>
      </trkpt>
      <trkpt lat="43.2596300" lon="-1.5188410">
        <ele>399.100006</ele>
        <time>2011-12-24T11:16:55.000Z</time>
      </trkpt>
      <trkpt lat="43.2596510" lon="-1.5195490">
        <ele>398.628998</ele>
        <time>2011-12-24T11:16:42.000Z</time>
      </trkpt>
      <trkpt lat="43.2595860" lon="-1.5198550">
        <ele>399.695007</ele>
        <time>2011-12-24T11:16:38.000Z</time>
      </trkpt>
      <trkpt lat="43.2594910" lon="-1.5201210">
        <ele>401.595978</ele>
        <time>2011-12-24T11:16:34.000Z</time>
      </trkpt>
      <trkpt lat="43.2591760" lon="-1.5208830">
        <ele>400.197998</ele>
        <time>2011-12-24T11:16:21.000Z</time>
      </trkpt>
      <trkpt lat="43.2590490" lon="-1.5212630">
        <ele>400.141022</ele>
        <time>2011-12-24T11:16:17.000Z</time>
      </trkpt>
      <trkpt lat="43.2589430" lon="-1.5215830">
        <ele>402.543976</ele>
        <time>2011-12-24T11:16:14.000Z</time>
      </trkpt>
      <trkpt lat="43.2589420" lon="-1.5219240">
        <ele>407.391998</ele>
        <time>2011-12-24T11:16:10.000Z</time>
      </trkpt>
      <trkpt lat="43.2590130" lon="-1.5221000">
        <ele>407.779999</ele>
        <time>2011-12-24T11:16:07.000Z</time>
      </trkpt>
      <trkpt lat="43.2591940" lon="-1.5224500">
        <ele>406.806976</ele>
        <time>2011-12-24T11:15:59.000Z</time>
      </trkpt>
      <trkpt lat="43.2593670" lon="-1.5226710">
        <ele>407.714020</ele>
        <time>2011-12-24T11:15:55.000Z</time>
      </trkpt>
      <trkpt lat="43.2595250" lon="-1.5228180">
        <ele>408.768005</ele>
        <time>2011-12-24T11:15:52.000Z</time>
      </trkpt>
      <trkpt lat="43.2599850" lon="-1.5231820">
        <ele>412.164978</ele>
        <time>2011-12-24T11:15:42.000Z</time>
      </trkpt>
      <trkpt lat="43.2602850" lon="-1.5237320">
        <ele>411.623993</ele>
        <time>2011-12-24T11:15:30.000Z</time>
      </trkpt>
      <trkpt lat="43.2603670" lon="-1.5239540">
        <ele>411.635010</ele>
        <time>2011-12-24T11:15:26.000Z</time>
      </trkpt>
      <trkpt lat="43.2604470" lon="-1.5242350">
        <ele>412.546997</ele>
        <time>2011-12-24T11:15:21.000Z</time>
      </trkpt>
      <trkpt lat="43.2605240" lon="-1.5243760">
        <ele>411.629974</ele>
        <time>2011-12-24T11:15:18.000Z</time>
      </trkpt>
      <trkpt lat="43.2606280" lon="-1.5246800">
        <ele>411.162994</ele>
        <time>2011-12-24T11:15:13.000Z</time>
      </trkpt>
      <trkpt lat="43.2606770" lon="-1.5248920">
        <ele>411.640991</ele>
        <time>2011-12-24T11:15:10.000Z</time>
      </trkpt>
      <trkpt lat="43.2608320" lon="-1.5252700">
        <ele>412.598999</ele>
        <time>2011-12-24T11:15:05.000Z</time>
      </trkpt>
      <trkpt lat="43.2610120" lon="-1.5256460">
        <ele>414.006989</ele>
        <time>2011-12-24T11:14:59.000Z</time>
      </trkpt>
      <trkpt lat="43.2610350" lon="-1.5257760">
        <ele>414.011017</ele>
        <time>2011-12-24T11:14:57.000Z</time>
      </trkpt>
      <trkpt lat="43.2610750" lon="-1.5259080">
        <ele>414.056000</ele>
        <time>2011-12-24T11:14:55.000Z</time>
      </trkpt>
      <trkpt lat="43.2611260" lon="-1.5261730">
        <ele>415.454010</ele>
        <time>2011-12-24T11:14:51.000Z</time>
      </trkpt>
      <trkpt lat="43.2610760" lon="-1.5266830">
        <ele>415.085999</ele>
        <time>2011-12-24T11:14:42.000Z</time>
      </trkpt>
      <trkpt lat="43.2610640" lon="-1.5268560">
        <ele>415.016998</ele>
        <time>2011-12-24T11:14:39.000Z</time>
      </trkpt>
      <trkpt lat="43.2611700" lon="-1.5275960">
        <ele>415.918976</ele>
        <time>2011-12-24T11:14:29.000Z</time>
      </trkpt>
      <trkpt lat="43.2613660" lon="-1.5278280">
        <ele>415.082001</ele>
        <time>2011-12-24T11:14:25.000Z</time>
      </trkpt>
      <trkpt lat="43.2617590" lon="-1.5280790">
        <ele>415.044983</ele>
        <time>2011-12-24T11:14:19.000Z</time>
      </trkpt>
      <trkpt lat="43.2618130" lon="-1.5281450">
        <ele>415.062988</ele>
        <time>2011-12-24T11:14:18.000Z</time>
      </trkpt>
      <trkpt lat="43.2618510" lon="-1.5282360">
        <ele>415.471008</ele>
        <time>2011-12-24T11:14:17.000Z</time>
      </trkpt>
      <trkpt lat="43.2616940" lon="-1.5288610">
        <ele>418.807007</ele>
        <time>2011-12-24T11:14:10.000Z</time>
      </trkpt>
      <trkpt lat="43.2613890" lon="-1.5293550">
        <ele>421.214996</ele>
        <time>2011-12-24T11:14:04.000Z</time>
      </trkpt>
      <trkpt lat="43.2613910" lon="-1.5296040">
        <ele>422.241028</ele>
        <time>2011-12-24T11:14:02.000Z</time>
      </trkpt>
      <trkpt lat="43.2613740" lon="-1.5297210">
        <ele>422.670990</ele>
        <time>2011-12-24T11:14:01.000Z</time>
      </trkpt>
      <trkpt lat="43.2613550" lon="-1.5298310">
        <ele>422.260986</ele>
        <time>2011-12-24T11:14:00.000Z</time>
      </trkpt>
      <trkpt lat="43.2614320" lon="-1.5302560">
        <ele>425.552002</ele>
        <time>2011-12-24T11:13:55.000Z</time>
      </trkpt>
      <trkpt lat="43.2615630" lon="-1.5305480">
        <ele>426.053986</ele>
        <time>2011-12-24T11:13:51.000Z</time>
      </trkpt>
      <trkpt lat="43.2616030" lon="-1.5309000">
        <ele>428.916992</ele>
        <time>2011-12-24T11:13:47.000Z</time>
      </trkpt>
      <trkpt lat="43.2617300" lon="-1.5313190">
        <ele>429.430023</ele>
        <time>2011-12-24T11:13:42.000Z</time>
      </trkpt>
      <trkpt lat="43.2617380" lon="-1.5314150">
        <ele>429.438019</ele>
        <time>2011-12-24T11:13:41.000Z</time>
      </trkpt>
      <trkpt lat="43.2617490" lon="-1.5318070">
        <ele>431.336029</ele>
        <time>2011-12-24T11:13:37.000Z</time>
      </trkpt>
      <trkpt lat="43.2617950" lon="-1.5320930">
        <ele>433.207001</ele>
        <time>2011-12-24T11:13:33.000Z</time>
      </trkpt>
      <trkpt lat="43.2618130" lon="-1.5322880">
        <ele>434.704987</ele>
        <time>2011-12-24T11:13:26.000Z</time>
      </trkpt>
      <trkpt lat="43.2618150" lon="-1.5323100">
        <ele>434.741028</ele>
        <time>2011-12-24T11:13:14.000Z</time>
      </trkpt>
      <trkpt lat="43.2619010" lon="-1.5325880">
        <ele>435.121002</ele>
        <time>2011-12-24T11:13:02.000Z</time>
      </trkpt>
      <trkpt lat="43.2619050" lon="-1.5325960">
        <ele>435.182007</ele>
        <time>2011-12-24T11:11:35.000Z</time>
      </trkpt>
      <trkpt lat="43.2619020" lon="-1.5325880">
        <ele>435.673004</ele>
        <time>2011-12-24T11:10:50.000Z</time>
      </trkpt>
      <trkpt lat="43.2618790" lon="-1.5325640">
        <ele>435.654999</ele>
        <time>2011-12-24T11:10:32.000Z</time>
      </trkpt>
      <trkpt lat="43.2618740" lon="-1.5325750">
        <ele>435.128021</ele>
        <time>2011-12-24T11:10:05.000Z</time>
      </trkpt>
      <trkpt lat="43.2618390" lon="-1.5326270">
        <ele>434.760986</ele>
        <time>2011-12-24T11:09:50.000Z</time>
      </trkpt>
      <trkpt lat="43.2617950" lon="-1.5326270">
        <ele>434.739014</ele>
        <time>2011-12-24T11:09:47.000Z</time>
      </trkpt>
      <trkpt lat="43.2615930" lon="-1.5326500">
        <ele>430.886993</ele>
        <time>2011-12-24T11:09:34.000Z</time>
      </trkpt>
      <trkpt lat="43.2615640" lon="-1.5326620">
        <ele>430.807007</ele>
        <time>2011-12-24T11:09:32.000Z</time>
      </trkpt>
      <trkpt lat="43.2615220" lon="-1.5326640">
        <ele>429.912994</ele>
        <time>2011-12-24T11:09:29.000Z</time>
      </trkpt>
      <trkpt lat="43.2614360" lon="-1.5326150">
        <ele>428.449005</ele>
        <time>2011-12-24T11:09:22.000Z</time>
      </trkpt>
      <trkpt lat="43.2613880" lon="-1.5326120">
        <ele>428.436981</ele>
        <time>2011-12-24T11:09:19.000Z</time>
      </trkpt>
      <trkpt lat="43.2613220" lon="-1.5325520">
        <ele>428.497009</ele>
        <time>2011-12-24T11:09:14.000Z</time>
      </trkpt>
      <trkpt lat="43.2612250" lon="-1.5324290">
        <ele>426.568024</ele>
        <time>2011-12-24T11:09:05.000Z</time>
      </trkpt>
      <trkpt lat="43.2611660" lon="-1.5323480">
        <ele>425.509979</ele>
        <time>2011-12-24T11:09:00.000Z</time>
      </trkpt>
      <trkpt lat="43.2609870" lon="-1.5322300">
        <ele>424.183014</ele>
        <time>2011-12-24T11:08:51.000Z</time>
      </trkpt>
      <trkpt lat="43.2606440" lon="-1.5323650">
        <ele>422.265991</ele>
        <time>2011-12-24T11:08:35.000Z</time>
      </trkpt>
      <trkpt lat="43.2602070" lon="-1.5323800">
        <ele>422.623993</ele>
        <time>2011-12-24T11:08:20.000Z</time>
      </trkpt>
      <trkpt lat="43.2597820" lon="-1.5322450">
        <ele>421.771973</ele>
        <time>2011-12-24T11:08:05.000Z</time>
      </trkpt>
      <trkpt lat="43.2596930" lon="-1.5323190">
        <ele>420.707001</ele>
        <time>2011-12-24T11:08:01.000Z</time>
      </trkpt>
      <trkpt lat="43.2596520" lon="-1.5323740">
        <ele>420.225983</ele>
        <time>2011-12-24T11:07:59.000Z</time>
      </trkpt>
      <trkpt lat="43.2595000" lon="-1.5326410">
        <ele>417.424011</ele>
        <time>2011-12-24T11:07:49.000Z</time>
      </trkpt>
      <trkpt lat="43.2592000" lon="-1.5327290">
        <ele>415.088013</ele>
        <time>2011-12-24T11:07:36.000Z</time>
      </trkpt>
      <trkpt lat="43.2591730" lon="-1.5327340">
        <ele>415.035980</ele>
        <time>2011-12-24T11:07:35.000Z</time>
      </trkpt>
      <trkpt lat="43.2589110" lon="-1.5327580">
        <ele>410.687012</ele>
        <time>2011-12-24T11:07:26.000Z</time>
      </trkpt>
      <trkpt lat="43.2586430" lon="-1.5327470">
        <ele>408.759003</ele>
        <time>2011-12-24T11:07:19.000Z</time>
      </trkpt>
      <trkpt lat="43.2584260" lon="-1.5328620">
        <ele>407.362000</ele>
        <time>2011-12-24T11:07:15.000Z</time>
      </trkpt>
      <trkpt lat="43.2583020" lon="-1.5329800">
        <ele>407.725006</ele>
        <time>2011-12-24T11:07:13.000Z</time>
      </trkpt>
      <trkpt lat="43.2580450" lon="-1.5331750">
        <ele>410.132996</ele>
        <time>2011-12-24T11:07:09.000Z</time>
      </trkpt>
      <trkpt lat="43.2579110" lon="-1.5332290">
        <ele>413.061005</ele>
        <time>2011-12-24T11:07:06.000Z</time>
      </trkpt>
      <trkpt lat="43.2578490" lon="-1.5332650">
        <ele>413.007019</ele>
        <time>2011-12-24T11:07:04.000Z</time>
      </trkpt>
      <trkpt lat="43.2575910" lon="-1.5336280">
        <ele>413.024994</ele>
        <time>2011-12-24T11:06:50.000Z</time>
      </trkpt>
      <trkpt lat="43.2575280" lon="-1.5338070">
        <ele>411.605011</ele>
        <time>2011-12-24T11:06:45.000Z</time>
      </trkpt>
      <trkpt lat="43.2574970" lon="-1.5339570">
        <ele>410.178986</ele>
        <time>2011-12-24T11:06:41.000Z</time>
      </trkpt>
      <trkpt lat="43.2574470" lon="-1.5344020">
        <ele>407.779999</ele>
        <time>2011-12-24T11:06:29.000Z</time>
      </trkpt>
      <trkpt lat="43.2574020" lon="-1.5345090">
        <ele>406.320984</ele>
        <time>2011-12-24T11:06:26.000Z</time>
      </trkpt>
      <trkpt lat="43.2572360" lon="-1.5346810">
        <ele>404.432983</ele>
        <time>2011-12-24T11:06:21.000Z</time>
      </trkpt>
      <trkpt lat="43.2571050" lon="-1.5347710">
        <ele>403.945984</ele>
        <time>2011-12-24T11:06:18.000Z</time>
      </trkpt>
      <trkpt lat="43.2569430" lon="-1.5348250">
        <ele>404.468994</ele>
        <time>2011-12-24T11:06:15.000Z</time>
      </trkpt>
      <trkpt lat="43.2566610" lon="-1.5350890">
        <ele>405.857025</ele>
        <time>2011-12-24T11:06:07.000Z</time>
      </trkpt>
      <trkpt lat="43.2566330" lon="-1.5352670">
        <ele>405.865021</ele>
        <time>2011-12-24T11:06:04.000Z</time>
      </trkpt>
      <trkpt lat="43.2566770" lon="-1.5356770">
        <ele>405.306976</ele>
        <time>2011-12-24T11:05:58.000Z</time>
      </trkpt>
      <trkpt lat="43.2567520" lon="-1.5358870">
        <ele>404.411011</ele>
        <time>2011-12-24T11:05:55.000Z</time>
      </trkpt>
      <trkpt lat="43.2567830" lon="-1.5359650">
        <ele>403.964996</ele>
        <time>2011-12-24T11:05:54.000Z</time>
      </trkpt>
      <trkpt lat="43.2565510" lon="-1.5367080">
        <ele>408.714996</ele>
        <time>2011-12-24T11:05:47.000Z</time>
      </trkpt>
      <trkpt lat="43.2564130" lon="-1.5368040">
        <ele>411.176971</ele>
        <time>2011-12-24T11:05:45.000Z</time>
      </trkpt>
      <trkpt lat="43.2563460" lon="-1.5372090">
        <ele>414.528015</ele>
        <time>2011-12-24T11:05:41.000Z</time>
      </trkpt>
      <trkpt lat="43.2563820" lon="-1.5373940">
        <ele>416.930023</ele>
        <time>2011-12-24T11:05:39.000Z</time>
      </trkpt>
      <trkpt lat="43.2565100" lon="-1.5378970">
        <ele>419.382996</ele>
        <time>2011-12-24T11:05:32.000Z</time>
      </trkpt>
      <trkpt lat="43.2568200" lon="-1.5384190">
        <ele>420.276001</ele>
        <time>2011-12-24T11:05:22.000Z</time>
      </trkpt>
      <trkpt lat="43.2568740" lon="-1.5385210">
        <ele>420.783997</ele>
        <time>2011-12-24T11:05:20.000Z</time>
      </trkpt>
      <trkpt lat="43.2569360" lon="-1.5387320">
        <ele>420.732025</ele>
        <time>2011-12-24T11:05:16.000Z</time>
      </trkpt>
      <trkpt lat="43.2569770" lon="-1.5390890">
        <ele>420.206970</ele>
        <time>2011-12-24T11:05:10.000Z</time>
      </trkpt>
      <trkpt lat="43.2570020" lon="-1.5394150">
        <ele>420.717010</ele>
        <time>2011-12-24T11:05:05.000Z</time>
      </trkpt>
      <trkpt lat="43.2569560" lon="-1.5397800">
        <ele>421.761017</ele>
        <time>2011-12-24T11:04:59.000Z</time>
      </trkpt>
      <trkpt lat="43.2567850" lon="-1.5400040">
        <ele>422.281006</ele>
        <time>2011-12-24T11:04:54.000Z</time>
      </trkpt>
      <trkpt lat="43.2567130" lon="-1.5403600">
        <ele>423.115021</ele>
        <time>2011-12-24T11:04:48.000Z</time>
      </trkpt>
      <trkpt lat="43.2567230" lon="-1.5405380">
        <ele>423.196014</ele>
        <time>2011-12-24T11:04:45.000Z</time>
      </trkpt>
      <trkpt lat="43.2568520" lon="-1.5409780">
        <ele>424.688019</ele>
        <time>2011-12-24T11:04:34.000Z</time>
      </trkpt>
      <trkpt lat="43.2569350" lon="-1.5416360">
        <ele>425.561005</ele>
        <time>2011-12-24T11:04:15.000Z</time>
      </trkpt>
      <trkpt lat="43.2569680" lon="-1.5420530">
        <ele>426.083984</ele>
        <time>2011-12-24T11:03:56.000Z</time>
      </trkpt>
      <trkpt lat="43.2569750" lon="-1.5420790">
        <ele>426.582001</ele>
        <time>2011-12-24T11:01:42.000Z</time>
      </trkpt>
      <trkpt lat="43.2568610" lon="-1.5423930">
        <ele>426.520020</ele>
        <time>2011-12-24T11:01:31.000Z</time>
      </trkpt>
      <trkpt lat="43.2568210" lon="-1.5425030">
        <ele>427.007019</ele>
        <time>2011-12-24T11:01:29.000Z</time>
      </trkpt>
      <trkpt lat="43.2567750" lon="-1.5426430">
        <ele>428.919006</ele>
        <time>2011-12-24T11:01:26.000Z</time>
      </trkpt>
      <trkpt lat="43.2567040" lon="-1.5428500">
        <ele>430.881012</ele>
        <time>2011-12-24T11:01:23.000Z</time>
      </trkpt>
      <trkpt lat="43.2566000" lon="-1.5431710">
        <ele>434.266998</ele>
        <time>2011-12-24T11:01:19.000Z</time>
      </trkpt>
      <trkpt lat="43.2564960" lon="-1.5434780">
        <ele>438.535980</ele>
        <time>2011-12-24T11:01:15.000Z</time>
      </trkpt>
      <trkpt lat="43.2564280" lon="-1.5437300">
        <ele>441.927002</ele>
        <time>2011-12-24T11:01:11.000Z</time>
      </trkpt>
      <trkpt lat="43.2564010" lon="-1.5439590">
        <ele>446.289001</ele>
        <time>2011-12-24T11:01:08.000Z</time>
      </trkpt>
      <trkpt lat="43.2563830" lon="-1.5442740">
        <ele>450.031982</ele>
        <time>2011-12-24T11:01:04.000Z</time>
      </trkpt>
      <trkpt lat="43.2564080" lon="-1.5445960">
        <ele>453.494995</ele>
        <time>2011-12-24T11:01:00.000Z</time>
      </trkpt>
      <trkpt lat="43.2564010" lon="-1.5446780">
        <ele>454.432983</ele>
        <time>2011-12-24T11:00:59.000Z</time>
      </trkpt>
      <trkpt lat="43.2563200" lon="-1.5450000">
        <ele>459.221008</ele>
        <time>2011-12-24T11:00:55.000Z</time>
      </trkpt>
      <trkpt lat="43.2562480" lon="-1.5453240">
        <ele>464.006989</ele>
        <time>2011-12-24T11:00:51.000Z</time>
      </trkpt>
      <trkpt lat="43.2562810" lon="-1.5456210">
        <ele>467.821014</ele>
        <time>2011-12-24T11:00:47.000Z</time>
      </trkpt>
      <trkpt lat="43.2563010" lon="-1.5458490">
        <ele>470.255981</ele>
        <time>2011-12-24T11:00:44.000Z</time>
      </trkpt>
      <trkpt lat="43.2563110" lon="-1.5460040">
        <ele>471.773987</ele>
        <time>2011-12-24T11:00:42.000Z</time>
      </trkpt>
      <trkpt lat="43.2562830" lon="-1.5462660">
        <ele>474.125000</ele>
        <time>2011-12-24T11:00:38.000Z</time>
      </trkpt>
      <trkpt lat="43.2562220" lon="-1.5464260">
        <ele>474.616028</ele>
        <time>2011-12-24T11:00:35.000Z</time>
      </trkpt>
      <trkpt lat="43.2562040" lon="-1.5464780">
        <ele>474.657990</ele>
        <time>2011-12-24T11:00:34.000Z</time>
      </trkpt>
      <trkpt lat="43.2560640" lon="-1.5467620">
        <ele>480.331024</ele>
        <time>2011-12-24T11:00:28.000Z</time>
      </trkpt>
      <trkpt lat="43.2560150" lon="-1.5468200">
        <ele>481.814026</ele>
        <time>2011-12-24T11:00:27.000Z</time>
      </trkpt>
      <trkpt lat="43.2559310" lon="-1.5470280">
        <ele>485.661987</ele>
        <time>2011-12-24T11:00:23.000Z</time>
      </trkpt>
      <trkpt lat="43.2560930" lon="-1.5475380">
        <ele>487.570007</ele>
        <time>2011-12-24T11:00:12.000Z</time>
      </trkpt>
      <trkpt lat="43.2561770" lon="-1.5476140">
        <ele>488.506989</ele>
        <time>2011-12-24T11:00:07.000Z</time>
      </trkpt>
      <trkpt lat="43.2562220" lon="-1.5477020">
        <ele>491.423981</ele>
        <time>2011-12-24T11:00:01.000Z</time>
      </trkpt>
      <trkpt lat="43.2561170" lon="-1.5477610">
        <ele>493.804016</ele>
        <time>2011-12-24T10:59:56.000Z</time>
      </trkpt>
      <trkpt lat="43.2560720" lon="-1.5477630">
        <ele>494.769012</ele>
        <time>2011-12-24T10:59:54.000Z</time>
      </trkpt>
      <trkpt lat="43.2560250" lon="-1.5478060">
        <ele>496.269989</ele>
        <time>2011-12-24T10:59:51.000Z</time>
      </trkpt>
      <trkpt lat="43.2560320" lon="-1.5478720">
        <ele>497.681000</ele>
        <time>2011-12-24T10:59:47.000Z</time>
      </trkpt>
      <trkpt lat="43.2560330" lon="-1.5479900">
        <ele>500.032990</ele>
        <time>2011-12-24T10:59:36.000Z</time>
      </trkpt>
      <trkpt lat="43.2560510" lon="-1.5481070">
        <ele>500.086029</ele>
        <time>2011-12-24T10:59:17.000Z</time>
      </trkpt>
      <trkpt lat="43.2560950" lon="-1.5481660">
        <ele>501.079010</ele>
        <time>2011-12-24T10:59:02.000Z</time>
      </trkpt>
      <trkpt lat="43.2560940" lon="-1.5481950">
        <ele>500.566986</ele>
        <time>2011-12-24T10:58:48.000Z</time>
      </trkpt>
      <trkpt lat="43.2561280" lon="-1.5484210">
        <ele>503.994995</ele>
        <time>2011-12-24T10:58:42.000Z</time>
      </trkpt>
      <trkpt lat="43.2561650" lon="-1.5485230">
        <ele>504.807007</ele>
        <time>2011-12-24T10:58:40.000Z</time>
      </trkpt>
      <trkpt lat="43.2561800" lon="-1.5486300">
        <ele>504.807007</ele>
        <time>2011-12-24T10:58:38.000Z</time>
      </trkpt>
      <trkpt lat="43.2561930" lon="-1.5487670">
        <ele>506.343018</ele>
        <time>2011-12-24T10:58:34.000Z</time>
      </trkpt>
      <trkpt lat="43.2561810" lon="-1.5488960">
        <ele>508.213013</ele>
        <time>2011-12-24T10:58:29.000Z</time>
      </trkpt>
      <trkpt lat="43.2561930" lon="-1.5490040">
        <ele>508.756989</ele>
        <time>2011-12-24T10:58:25.000Z</time>
      </trkpt>
      <trkpt lat="43.2563450" lon="-1.5493940">
        <ele>509.227997</ele>
        <time>2011-12-24T10:58:16.000Z</time>
      </trkpt>
      <trkpt lat="43.2564730" lon="-1.5495120">
        <ele>512.580017</ele>
        <time>2011-12-24T10:58:12.000Z</time>
      </trkpt>
      <trkpt lat="43.2565610" lon="-1.5496840">
        <ele>515.973022</ele>
        <time>2011-12-24T10:58:08.000Z</time>
      </trkpt>
      <trkpt lat="43.2565900" lon="-1.5497660">
        <ele>516.436035</ele>
        <time>2011-12-24T10:58:06.000Z</time>
      </trkpt>
      <trkpt lat="43.2566020" lon="-1.5498100">
        <ele>517.364014</ele>
        <time>2011-12-24T10:58:05.000Z</time>
      </trkpt>
      <trkpt lat="43.2567340" lon="-1.5501300">
        <ele>518.342041</ele>
        <time>2011-12-24T10:57:54.000Z</time>
      </trkpt>
      <trkpt lat="43.2567380" lon="-1.5501750">
        <ele>518.807007</ele>
        <time>2011-12-24T10:57:53.000Z</time>
      </trkpt>
      <trkpt lat="43.2567460" lon="-1.5506620">
        <ele>520.226013</ele>
        <time>2011-12-24T10:57:42.000Z</time>
      </trkpt>
      <trkpt lat="43.2567370" lon="-1.5507310">
        <ele>520.760010</ele>
        <time>2011-12-24T10:57:41.000Z</time>
      </trkpt>
      <trkpt lat="43.2566730" lon="-1.5509090">
        <ele>522.686035</ele>
        <time>2011-12-24T10:57:38.000Z</time>
      </trkpt>
      <trkpt lat="43.2565790" lon="-1.5510410">
        <ele>524.523987</ele>
        <time>2011-12-24T10:57:34.000Z</time>
      </trkpt>
      <trkpt lat="43.2565590" lon="-1.5513470">
        <ele>523.644958</ele>
        <time>2011-12-24T10:57:21.000Z</time>
      </trkpt>
      <trkpt lat="43.2565500" lon="-1.5513830">
        <ele>524.536987</ele>
        <time>2011-12-24T10:57:19.000Z</time>
      </trkpt>
      <trkpt lat="43.2565550" lon="-1.5514180">
        <ele>523.630005</ele>
        <time>2011-12-24T10:57:17.000Z</time>
      </trkpt>
      <trkpt lat="43.2564960" lon="-1.5516050">
        <ele>523.672974</ele>
        <time>2011-12-24T10:57:04.000Z</time>
      </trkpt>
      <trkpt lat="43.2564960" lon="-1.5516050">
        <ele>523.190979</ele>
        <time>2011-12-24T10:56:49.000Z</time>
      </trkpt>
      <trkpt lat="43.2564950" lon="-1.5516120">
        <ele>523.189026</ele>
        <time>2011-12-24T10:56:05.000Z</time>
      </trkpt>
      <trkpt lat="43.2564710" lon="-1.5516550">
        <ele>524.106995</ele>
        <time>2011-12-24T10:55:52.000Z</time>
      </trkpt>
      <trkpt lat="43.2563370" lon="-1.5518970">
        <ele>524.511047</ele>
        <time>2011-12-24T10:55:35.000Z</time>
      </trkpt>
      <trkpt lat="43.2563060" lon="-1.5519980">
        <ele>524.156006</ele>
        <time>2011-12-24T10:55:30.000Z</time>
      </trkpt>
      <trkpt lat="43.2562340" lon="-1.5520560">
        <ele>523.153992</ele>
        <time>2011-12-24T10:55:25.000Z</time>
      </trkpt>
      <trkpt lat="43.2561880" lon="-1.5521350">
        <ele>522.132996</ele>
        <time>2011-12-24T10:55:21.000Z</time>
      </trkpt>
      <trkpt lat="43.2561350" lon="-1.5521530">
        <ele>522.633972</ele>
        <time>2011-12-24T10:55:18.000Z</time>
      </trkpt>
      <trkpt lat="43.2560310" lon="-1.5521370">
        <ele>523.645996</ele>
        <time>2011-12-24T10:55:10.000Z</time>
      </trkpt>
      <trkpt lat="43.2559550" lon="-1.5521550">
        <ele>523.689026</ele>
        <time>2011-12-24T10:54:51.000Z</time>
      </trkpt>
      <trkpt lat="43.2558530" lon="-1.5522200">
        <ele>525.591980</ele>
        <time>2011-12-24T10:54:40.000Z</time>
      </trkpt>
      <trkpt lat="43.2557710" lon="-1.5523450">
        <ele>525.570007</ele>
        <time>2011-12-24T10:54:32.000Z</time>
      </trkpt>
      <trkpt lat="43.2557950" lon="-1.5523820">
        <ele>525.067993</ele>
        <time>2011-12-24T10:54:30.000Z</time>
      </trkpt>
      <trkpt lat="43.2558160" lon="-1.5524630">
        <ele>525.507019</ele>
        <time>2011-12-24T10:54:27.000Z</time>
      </trkpt>
      <trkpt lat="43.2557190" lon="-1.5527760">
        <ele>525.515991</ele>
        <time>2011-12-24T10:54:11.000Z</time>
      </trkpt>
      <trkpt lat="43.2556330" lon="-1.5530840">
        <ele>523.687988</ele>
        <time>2011-12-24T10:53:56.000Z</time>
      </trkpt>
      <trkpt lat="43.2555310" lon="-1.5533660">
        <ele>520.745972</ele>
        <time>2011-12-24T10:53:39.000Z</time>
      </trkpt>
      <trkpt lat="43.2554620" lon="-1.5534480">
        <ele>521.281982</ele>
        <time>2011-12-24T10:53:34.000Z</time>
      </trkpt>
      <trkpt lat="43.2554040" lon="-1.5535600">
        <ele>520.263000</ele>
        <time>2011-12-24T10:53:28.000Z</time>
      </trkpt>
      <trkpt lat="43.2553350" lon="-1.5538000">
        <ele>516.974976</ele>
        <time>2011-12-24T10:53:16.000Z</time>
      </trkpt>
      <trkpt lat="43.2553160" lon="-1.5538590">
        <ele>515.947998</ele>
        <time>2011-12-24T10:53:12.000Z</time>
      </trkpt>
      <trkpt lat="43.2553160" lon="-1.5540070">
        <ele>514.010986</ele>
        <time>2011-12-24T10:53:04.000Z</time>
      </trkpt>
      <trkpt lat="43.2552830" lon="-1.5543300">
        <ele>512.028992</ele>
        <time>2011-12-24T10:52:48.000Z</time>
      </trkpt>
      <trkpt lat="43.2551790" lon="-1.5546920">
        <ele>509.627014</ele>
        <time>2011-12-24T10:52:33.000Z</time>
      </trkpt>
      <trkpt lat="43.2551330" lon="-1.5552530">
        <ele>508.207001</ele>
        <time>2011-12-24T10:52:18.000Z</time>
      </trkpt>
      <trkpt lat="43.2549860" lon="-1.5555030">
        <ele>508.217987</ele>
        <time>2011-12-24T10:52:13.000Z</time>
      </trkpt>
      <trkpt lat="43.2545950" lon="-1.5559250">
        <ele>511.617004</ele>
        <time>2011-12-24T10:52:05.000Z</time>
      </trkpt>
      <trkpt lat="43.2544700" lon="-1.5561340">
        <ele>512.536011</ele>
        <time>2011-12-24T10:52:02.000Z</time>
      </trkpt>
      <trkpt lat="43.2543990" lon="-1.5562840">
        <ele>514.445984</ele>
        <time>2011-12-24T10:52:00.000Z</time>
      </trkpt>
      <trkpt lat="43.2542630" lon="-1.5566120">
        <ele>516.937012</ele>
        <time>2011-12-24T10:51:55.000Z</time>
      </trkpt>
      <trkpt lat="43.2542130" lon="-1.5567770">
        <ele>517.869019</ele>
        <time>2011-12-24T10:51:52.000Z</time>
      </trkpt>
      <trkpt lat="43.2541410" lon="-1.5569910">
        <ele>518.821960</ele>
        <time>2011-12-24T10:51:47.000Z</time>
      </trkpt>
      <trkpt lat="43.2541150" lon="-1.5570130">
        <ele>519.355042</ele>
        <time>2011-12-24T10:51:46.000Z</time>
      </trkpt>
      <trkpt lat="43.2539670" lon="-1.5571440">
        <ele>521.243042</ele>
        <time>2011-12-24T10:51:42.000Z</time>
      </trkpt>
      <trkpt lat="43.2538620" lon="-1.5573250">
        <ele>523.151001</ele>
        <time>2011-12-24T10:51:37.000Z</time>
      </trkpt>
      <trkpt lat="43.2537000" lon="-1.5574820">
        <ele>522.606995</ele>
        <time>2011-12-24T10:51:28.000Z</time>
      </trkpt>
      <trkpt lat="43.2536910" lon="-1.5575520">
        <ele>522.621033</ele>
        <time>2011-12-24T10:49:52.000Z</time>
      </trkpt>
      <trkpt lat="43.2536730" lon="-1.5576680">
        <ele>521.755981</ele>
        <time>2011-12-24T10:49:40.000Z</time>
      </trkpt>
      <trkpt lat="43.2536700" lon="-1.5577160">
        <ele>521.273987</ele>
        <time>2011-12-24T10:49:35.000Z</time>
      </trkpt>
      <trkpt lat="43.2536040" lon="-1.5579110">
        <ele>522.648010</ele>
        <time>2011-12-24T10:49:26.000Z</time>
      </trkpt>
      <trkpt lat="43.2535010" lon="-1.5581390">
        <ele>523.628967</ele>
        <time>2011-12-24T10:49:21.000Z</time>
      </trkpt>
      <trkpt lat="43.2534830" lon="-1.5584010">
        <ele>525.070984</ele>
        <time>2011-12-24T10:49:17.000Z</time>
      </trkpt>
      <trkpt lat="43.2534570" lon="-1.5586160">
        <ele>528.494019</ele>
        <time>2011-12-24T10:49:11.000Z</time>
      </trkpt>
      <trkpt lat="43.2533880" lon="-1.5586800">
        <ele>529.846985</ele>
        <time>2011-12-24T10:49:02.000Z</time>
      </trkpt>
      <trkpt lat="43.2532970" lon="-1.5588640">
        <ele>531.385010</ele>
        <time>2011-12-24T10:48:56.000Z</time>
      </trkpt>
      <trkpt lat="43.2530620" lon="-1.5592720">
        <ele>530.872986</ele>
        <time>2011-12-24T10:48:40.000Z</time>
      </trkpt>
      <trkpt lat="43.2530160" lon="-1.5594160">
        <ele>530.307007</ele>
        <time>2011-12-24T10:48:36.000Z</time>
      </trkpt>
      <trkpt lat="43.2530200" lon="-1.5594990">
        <ele>530.322998</ele>
        <time>2011-12-24T10:48:33.000Z</time>
      </trkpt>
      <trkpt lat="43.2529490" lon="-1.5597670">
        <ele>530.348999</ele>
        <time>2011-12-24T10:48:25.000Z</time>
      </trkpt>
      <trkpt lat="43.2528510" lon="-1.5599430">
        <ele>528.994995</ele>
        <time>2011-12-24T10:48:19.000Z</time>
      </trkpt>
      <trkpt lat="43.2526380" lon="-1.5604180">
        <ele>528.916016</ele>
        <time>2011-12-24T10:48:05.000Z</time>
      </trkpt>
      <trkpt lat="43.2523720" lon="-1.5607490">
        <ele>529.397034</ele>
        <time>2011-12-24T10:47:54.000Z</time>
      </trkpt>
      <trkpt lat="43.2521970" lon="-1.5611620">
        <ele>532.758972</ele>
        <time>2011-12-24T10:47:42.000Z</time>
      </trkpt>
      <trkpt lat="43.2521430" lon="-1.5612200">
        <ele>532.291992</ele>
        <time>2011-12-24T10:47:40.000Z</time>
      </trkpt>
      <trkpt lat="43.2519390" lon="-1.5616760">
        <ele>534.695007</ele>
        <time>2011-12-24T10:47:25.000Z</time>
      </trkpt>
      <trkpt lat="43.2518770" lon="-1.5617930">
        <ele>534.222961</ele>
        <time>2011-12-24T10:47:19.000Z</time>
      </trkpt>
      <trkpt lat="43.2518840" lon="-1.5618690">
        <ele>534.291016</ele>
        <time>2011-12-24T10:47:16.000Z</time>
      </trkpt>
      <trkpt lat="43.2517580" lon="-1.5621850">
        <ele>533.207031</ele>
        <time>2011-12-24T10:47:00.000Z</time>
      </trkpt>
      <trkpt lat="43.2516930" lon="-1.5625730">
        <ele>530.325989</ele>
        <time>2011-12-24T10:46:43.000Z</time>
      </trkpt>
      <trkpt lat="43.2517240" lon="-1.5629640">
        <ele>527.432983</ele>
        <time>2011-12-24T10:46:26.000Z</time>
      </trkpt>
      <trkpt lat="43.2516620" lon="-1.5632340">
        <ele>524.178040</ele>
        <time>2011-12-24T10:46:11.000Z</time>
      </trkpt>
      <trkpt lat="43.2516680" lon="-1.5634380">
        <ele>521.750000</ele>
        <time>2011-12-24T10:46:02.000Z</time>
      </trkpt>
      <trkpt lat="43.2515640" lon="-1.5635870">
        <ele>521.281006</ele>
        <time>2011-12-24T10:42:25.000Z</time>
      </trkpt>
      <trkpt lat="43.2514820" lon="-1.5636810">
        <ele>519.713013</ele>
        <time>2011-12-24T10:42:06.000Z</time>
      </trkpt>
      <trkpt lat="43.2514040" lon="-1.5637170">
        <ele>519.315979</ele>
        <time>2011-12-24T10:42:00.000Z</time>
      </trkpt>
      <trkpt lat="43.2512230" lon="-1.5638620">
        <ele>516.948975</ele>
        <time>2011-12-24T10:41:45.000Z</time>
      </trkpt>
      <trkpt lat="43.2510930" lon="-1.5640820">
        <ele>514.476990</ele>
        <time>2011-12-24T10:41:29.000Z</time>
      </trkpt>
      <trkpt lat="43.2511430" lon="-1.5642230">
        <ele>512.585022</ele>
        <time>2011-12-24T10:41:20.000Z</time>
      </trkpt>
      <trkpt lat="43.2511730" lon="-1.5644130">
        <ele>510.606995</ele>
        <time>2011-12-24T10:41:11.000Z</time>
      </trkpt>
      <trkpt lat="43.2512720" lon="-1.5645780">
        <ele>509.218994</ele>
        <time>2011-12-24T10:41:00.000Z</time>
      </trkpt>
      <trkpt lat="43.2512770" lon="-1.5646480">
        <ele>509.208984</ele>
        <time>2011-12-24T10:40:56.000Z</time>
      </trkpt>
      <trkpt lat="43.2512720" lon="-1.5646770">
        <ele>510.118988</ele>
        <time>2011-12-24T10:40:54.000Z</time>
      </trkpt>
      <trkpt lat="43.2510490" lon="-1.5649840">
        <ele>510.127014</ele>
        <time>2011-12-24T10:40:43.000Z</time>
      </trkpt>
      <trkpt lat="43.2509790" lon="-1.5651320">
        <ele>512.057983</ele>
        <time>2011-12-24T10:40:38.000Z</time>
      </trkpt>
      <trkpt lat="43.2509620" lon="-1.5654610">
        <ele>511.679993</ele>
        <time>2011-12-24T10:40:25.000Z</time>
      </trkpt>
      <trkpt lat="43.2509790" lon="-1.5655770">
        <ele>510.163025</ele>
        <time>2011-12-24T10:40:20.000Z</time>
      </trkpt>
      <trkpt lat="43.2509610" lon="-1.5658590">
        <ele>508.235992</ele>
        <time>2011-12-24T10:40:08.000Z</time>
      </trkpt>
      <trkpt lat="43.2509480" lon="-1.5659350">
        <ele>507.253998</ele>
        <time>2011-12-24T10:39:59.000Z</time>
      </trkpt>
      <trkpt lat="43.2509120" lon="-1.5660180">
        <ele>506.871979</ele>
        <time>2011-12-24T10:39:52.000Z</time>
      </trkpt>
      <trkpt lat="43.2508630" lon="-1.5661030">
        <ele>505.807007</ele>
        <time>2011-12-24T10:39:45.000Z</time>
      </trkpt>
      <trkpt lat="43.2508170" lon="-1.5661290">
        <ele>505.817017</ele>
        <time>2011-12-24T10:39:42.000Z</time>
      </trkpt>
      <trkpt lat="43.2507770" lon="-1.5662020">
        <ele>506.325012</ele>
        <time>2011-12-24T10:39:38.000Z</time>
      </trkpt>
      <trkpt lat="43.2507770" lon="-1.5663300">
        <ele>506.882996</ele>
        <time>2011-12-24T10:39:33.000Z</time>
      </trkpt>
      <trkpt lat="43.2507860" lon="-1.5663800">
        <ele>506.393982</ele>
        <time>2011-12-24T10:39:31.000Z</time>
      </trkpt>
      <trkpt lat="43.2507470" lon="-1.5664450">
        <ele>506.344971</ele>
        <time>2011-12-24T10:39:27.000Z</time>
      </trkpt>
      <trkpt lat="43.2505670" lon="-1.5665240">
        <ele>507.777008</ele>
        <time>2011-12-24T10:39:19.000Z</time>
      </trkpt>
      <trkpt lat="43.2504970" lon="-1.5666900">
        <ele>508.279999</ele>
        <time>2011-12-24T10:39:13.000Z</time>
      </trkpt>
      <trkpt lat="43.2505340" lon="-1.5667790">
        <ele>507.273010</ele>
        <time>2011-12-24T10:39:10.000Z</time>
      </trkpt>
      <trkpt lat="43.2504910" lon="-1.5671270">
        <ele>506.821014</ele>
        <time>2011-12-24T10:38:57.000Z</time>
      </trkpt>
      <trkpt lat="43.2502220" lon="-1.5673040">
        <ele>508.229004</ele>
        <time>2011-12-24T10:38:47.000Z</time>
      </trkpt>
      <trkpt lat="43.2501210" lon="-1.5673980">
        <ele>510.106995</ele>
        <time>2011-12-24T10:38:43.000Z</time>
      </trkpt>
      <trkpt lat="43.2501280" lon="-1.5674990">
        <ele>509.207977</ele>
        <time>2011-12-24T10:38:39.000Z</time>
      </trkpt>
      <trkpt lat="43.2502240" lon="-1.5679030">
        <ele>506.852997</ele>
        <time>2011-12-24T10:38:25.000Z</time>
      </trkpt>
      <trkpt lat="43.2502590" lon="-1.5679910">
        <ele>506.851990</ele>
        <time>2011-12-24T10:38:22.000Z</time>
      </trkpt>
      <trkpt lat="43.2504480" lon="-1.5683780">
        <ele>506.887024</ele>
        <time>2011-12-24T10:38:08.000Z</time>
      </trkpt>
      <trkpt lat="43.2504340" lon="-1.5685040">
        <ele>505.848022</ele>
        <time>2011-12-24T10:38:02.000Z</time>
      </trkpt>
      <trkpt lat="43.2503620" lon="-1.5685800">
        <ele>505.880005</ele>
        <time>2011-12-24T10:37:56.000Z</time>
      </trkpt>
      <trkpt lat="43.2502920" lon="-1.5688370">
        <ele>507.252991</ele>
        <time>2011-12-24T10:37:50.000Z</time>
      </trkpt>
      <trkpt lat="43.2502640" lon="-1.5689350">
        <ele>507.786011</ele>
        <time>2011-12-24T10:37:48.000Z</time>
      </trkpt>
      <trkpt lat="43.2502470" lon="-1.5691590">
        <ele>508.793976</ele>
        <time>2011-12-24T10:37:40.000Z</time>
      </trkpt>
      <trkpt lat="43.2502730" lon="-1.5692800">
        <ele>508.731995</ele>
        <time>2011-12-24T10:37:35.000Z</time>
      </trkpt>
      <trkpt lat="43.2503870" lon="-1.5695440">
        <ele>507.207001</ele>
        <time>2011-12-24T10:37:22.000Z</time>
      </trkpt>
      <trkpt lat="43.2506020" lon="-1.5697140">
        <ele>506.317017</ele>
        <time>2011-12-24T10:37:07.000Z</time>
      </trkpt>
      <trkpt lat="43.2506390" lon="-1.5698370">
        <ele>505.825012</ele>
        <time>2011-12-24T10:37:01.000Z</time>
      </trkpt>
      <trkpt lat="43.2506540" lon="-1.5700070">
        <ele>502.483002</ele>
        <time>2011-12-24T10:36:54.000Z</time>
      </trkpt>
      <trkpt lat="43.2506450" lon="-1.5700370">
        <ele>501.015015</ele>
        <time>2011-12-24T10:35:10.000Z</time>
      </trkpt>
      <trkpt lat="43.2507370" lon="-1.5702710">
        <ele>500.556000</ele>
        <time>2011-12-24T10:34:57.000Z</time>
      </trkpt>
      <trkpt lat="43.2507340" lon="-1.5702970">
        <ele>500.527985</ele>
        <time>2011-12-24T10:34:56.000Z</time>
      </trkpt>
      <trkpt lat="43.2507230" lon="-1.5706280">
        <ele>498.691010</ele>
        <time>2011-12-24T10:34:45.000Z</time>
      </trkpt>
      <trkpt lat="43.2507310" lon="-1.5710280">
        <ele>496.783997</ele>
        <time>2011-12-24T10:34:35.000Z</time>
      </trkpt>
      <trkpt lat="43.2506930" lon="-1.5711290">
        <ele>497.131989</ele>
        <time>2011-12-24T10:34:33.000Z</time>
      </trkpt>
      <trkpt lat="43.2507080" lon="-1.5715000">
        <ele>498.189972</ele>
        <time>2011-12-24T10:34:26.000Z</time>
      </trkpt>
      <trkpt lat="43.2507390" lon="-1.5715990">
        <ele>498.107025</ele>
        <time>2011-12-24T10:34:24.000Z</time>
      </trkpt>
      <trkpt lat="43.2510340" lon="-1.5722800">
        <ele>502.413025</ele>
        <time>2011-12-24T10:34:08.000Z</time>
      </trkpt>
      <trkpt lat="43.2511730" lon="-1.5724850">
        <ele>503.921021</ele>
        <time>2011-12-24T10:34:02.000Z</time>
      </trkpt>
      <trkpt lat="43.2512840" lon="-1.5728350">
        <ele>505.860992</ele>
        <time>2011-12-24T10:33:53.000Z</time>
      </trkpt>
      <trkpt lat="43.2512530" lon="-1.5729800">
        <ele>506.391022</ele>
        <time>2011-12-24T10:33:49.000Z</time>
      </trkpt>
      <trkpt lat="43.2509060" lon="-1.5732500">
        <ele>506.352020</ele>
        <time>2011-12-24T10:33:36.000Z</time>
      </trkpt>
      <trkpt lat="43.2507760" lon="-1.5734280">
        <ele>506.854004</ele>
        <time>2011-12-24T10:33:29.000Z</time>
      </trkpt>
      <trkpt lat="43.2507980" lon="-1.5737900">
        <ele>504.437012</ele>
        <time>2011-12-24T10:33:20.000Z</time>
      </trkpt>
      <trkpt lat="43.2507770" lon="-1.5740680">
        <ele>503.910004</ele>
        <time>2011-12-24T10:33:15.000Z</time>
      </trkpt>
      <trkpt lat="43.2507350" lon="-1.5741750">
        <ele>503.997986</ele>
        <time>2011-12-24T10:33:13.000Z</time>
      </trkpt>
      <trkpt lat="43.2502520" lon="-1.5747290">
        <ele>506.365997</ele>
        <time>2011-12-24T10:33:01.000Z</time>
      </trkpt>
      <trkpt lat="43.2500110" lon="-1.5749540">
        <ele>510.106995</ele>
        <time>2011-12-24T10:32:56.000Z</time>
      </trkpt>
      <trkpt lat="43.2499290" lon="-1.5749880">
        <ele>511.608002</ele>
        <time>2011-12-24T10:32:54.000Z</time>
      </trkpt>
      <trkpt lat="43.2498600" lon="-1.5751320">
        <ele>514.461975</ele>
        <time>2011-12-24T10:32:47.000Z</time>
      </trkpt>
      <trkpt lat="43.2497290" lon="-1.5751760">
        <ele>515.921997</ele>
        <time>2011-12-24T10:32:44.000Z</time>
      </trkpt>
      <trkpt lat="43.2495590" lon="-1.5752930">
        <ele>517.356995</ele>
        <time>2011-12-24T10:32:40.000Z</time>
      </trkpt>
      <trkpt lat="43.2493130" lon="-1.5758390">
        <ele>518.828003</ele>
        <time>2011-12-24T10:32:29.000Z</time>
      </trkpt>
      <trkpt lat="43.2491800" lon="-1.5760780">
        <ele>520.729980</ele>
        <time>2011-12-24T10:32:25.000Z</time>
      </trkpt>
      <trkpt lat="43.2490430" lon="-1.5762270">
        <ele>521.722961</ele>
        <time>2011-12-24T10:32:22.000Z</time>
      </trkpt>
      <trkpt lat="43.2488900" lon="-1.5763660">
        <ele>525.015991</ele>
        <time>2011-12-24T10:32:18.000Z</time>
      </trkpt>
      <trkpt lat="43.2486390" lon="-1.5765600">
        <ele>525.093994</ele>
        <time>2011-12-24T10:32:00.000Z</time>
      </trkpt>
      <trkpt lat="43.2483780" lon="-1.5766940">
        <ele>524.582031</ele>
        <time>2011-12-24T10:31:46.000Z</time>
      </trkpt>
      <trkpt lat="43.2481210" lon="-1.5766140">
        <ele>521.206970</ele>
        <time>2011-12-24T10:31:31.000Z</time>
      </trkpt>
      <trkpt lat="43.2479100" lon="-1.5764940">
        <ele>517.825989</ele>
        <time>2011-12-24T10:31:17.000Z</time>
      </trkpt>
      <trkpt lat="43.2476920" lon="-1.5763580">
        <ele>514.424011</ele>
        <time>2011-12-24T10:31:04.000Z</time>
      </trkpt>
      <trkpt lat="43.2476710" lon="-1.5763550">
        <ele>514.088013</ele>
        <time>2011-12-24T10:31:03.000Z</time>
      </trkpt>
      <trkpt lat="43.2475600" lon="-1.5763820">
        <ele>512.512024</ele>
        <time>2011-12-24T10:30:57.000Z</time>
      </trkpt>
      <trkpt lat="43.2473380" lon="-1.5763930">
        <ele>510.132996</ele>
        <time>2011-12-24T10:30:47.000Z</time>
      </trkpt>
      <trkpt lat="43.2470440" lon="-1.5761260">
        <ele>510.154968</ele>
        <time>2011-12-24T10:30:35.000Z</time>
      </trkpt>
      <trkpt lat="43.2466880" lon="-1.5762190">
        <ele>509.217987</ele>
        <time>2011-12-24T10:30:21.000Z</time>
      </trkpt>
      <trkpt lat="43.2464580" lon="-1.5765110">
        <ele>509.210999</ele>
        <time>2011-12-24T10:30:10.000Z</time>
      </trkpt>
      <trkpt lat="43.2461870" lon="-1.5770150">
        <ele>508.728973</ele>
        <time>2011-12-24T10:29:53.000Z</time>
      </trkpt>
      <trkpt lat="43.2459890" lon="-1.5771070">
        <ele>508.266998</ele>
        <time>2011-12-24T10:29:45.000Z</time>
      </trkpt>
      <trkpt lat="43.2457230" lon="-1.5773300">
        <ele>507.207001</ele>
        <time>2011-12-24T10:29:32.000Z</time>
      </trkpt>
      <trkpt lat="43.2454800" lon="-1.5772000">
        <ele>506.313995</ele>
        <time>2011-12-24T10:29:19.000Z</time>
      </trkpt>
      <trkpt lat="43.2452920" lon="-1.5767800">
        <ele>505.386017</ele>
        <time>2011-12-24T10:29:04.000Z</time>
      </trkpt>
      <trkpt lat="43.2452380" lon="-1.5766780">
        <ele>504.835022</ele>
        <time>2011-12-24T10:29:00.000Z</time>
      </trkpt>
      <trkpt lat="43.2451090" lon="-1.5766900">
        <ele>504.462006</ele>
        <time>2011-12-24T10:28:54.000Z</time>
      </trkpt>
      <trkpt lat="43.2448340" lon="-1.5767050">
        <ele>502.462982</ele>
        <time>2011-12-24T10:28:41.000Z</time>
      </trkpt>
      <trkpt lat="43.2447170" lon="-1.5764970">
        <ele>502.095001</ele>
        <time>2011-12-24T10:28:33.000Z</time>
      </trkpt>
      <trkpt lat="43.2445180" lon="-1.5764170">
        <ele>501.537994</ele>
        <time>2011-12-24T10:28:23.000Z</time>
      </trkpt>
      <trkpt lat="43.2444730" lon="-1.5763930">
        <ele>501.051025</ele>
        <time>2011-12-24T10:28:19.000Z</time>
      </trkpt>
      <trkpt lat="43.2444110" lon="-1.5762760">
        <ele>501.039001</ele>
        <time>2011-12-24T10:28:14.000Z</time>
      </trkpt>
      <trkpt lat="43.2443910" lon="-1.5760660">
        <ele>500.016998</ele>
        <time>2011-12-24T10:28:06.000Z</time>
      </trkpt>
      <trkpt lat="43.2443940" lon="-1.5759880">
        <ele>500.006989</ele>
        <time>2011-12-24T10:28:03.000Z</time>
      </trkpt>
      <trkpt lat="43.2443790" lon="-1.5758890">
        <ele>499.110992</ele>
        <time>2011-12-24T10:27:59.000Z</time>
      </trkpt>
      <trkpt lat="43.2444720" lon="-1.5754760">
        <ele>497.192017</ele>
        <time>2011-12-24T10:27:42.000Z</time>
      </trkpt>
      <trkpt lat="43.2444000" lon="-1.5749950">
        <ele>495.231995</ele>
        <time>2011-12-24T10:27:22.000Z</time>
      </trkpt>
      <trkpt lat="43.2443960" lon="-1.5749650">
        <ele>494.720032</ele>
        <time>2011-12-24T10:27:20.000Z</time>
      </trkpt>
      <trkpt lat="43.2443820" lon="-1.5749110">
        <ele>494.371002</ele>
        <time>2011-12-24T10:27:17.000Z</time>
      </trkpt>
      <trkpt lat="43.2442430" lon="-1.5746630">
        <ele>492.353027</ele>
        <time>2011-12-24T10:27:05.000Z</time>
      </trkpt>
      <trkpt lat="43.2440750" lon="-1.5745380">
        <ele>491.496002</ele>
        <time>2011-12-24T10:26:54.000Z</time>
      </trkpt>
      <trkpt lat="43.2437900" lon="-1.5746140">
        <ele>488.559021</ele>
        <time>2011-12-24T10:26:38.000Z</time>
      </trkpt>
      <trkpt lat="43.2437670" lon="-1.5746190">
        <ele>488.536987</ele>
        <time>2011-12-24T10:26:37.000Z</time>
      </trkpt>
      <trkpt lat="43.2434910" lon="-1.5748220">
        <ele>486.674988</ele>
        <time>2011-12-24T10:26:23.000Z</time>
      </trkpt>
      <trkpt lat="43.2432540" lon="-1.5750480">
        <ele>485.607025</ele>
        <time>2011-12-24T10:26:13.000Z</time>
      </trkpt>
      <trkpt lat="43.2430290" lon="-1.5750610">
        <ele>484.206970</ele>
        <time>2011-12-24T10:26:07.000Z</time>
      </trkpt>
      <trkpt lat="43.2428510" lon="-1.5748570">
        <ele>484.643005</ele>
        <time>2011-12-24T10:26:02.000Z</time>
      </trkpt>
      <trkpt lat="43.2427590" lon="-1.5745150">
        <ele>489.013031</ele>
        <time>2011-12-24T10:25:58.000Z</time>
      </trkpt>
      <trkpt lat="43.2425230" lon="-1.5745220">
        <ele>491.442993</ele>
        <time>2011-12-24T10:25:52.000Z</time>
      </trkpt>
      <trkpt lat="43.2424290" lon="-1.5746590">
        <ele>491.984009</ele>
        <time>2011-12-24T10:25:49.000Z</time>
      </trkpt>
      <trkpt lat="43.2422530" lon="-1.5750530">
        <ele>494.335999</ele>
        <time>2011-12-24T10:25:42.000Z</time>
      </trkpt>
      <trkpt lat="43.2422240" lon="-1.5751620">
        <ele>495.259003</ele>
        <time>2011-12-24T10:25:40.000Z</time>
      </trkpt>
      <trkpt lat="43.2421850" lon="-1.5753170">
        <ele>495.791992</ele>
        <time>2011-12-24T10:25:37.000Z</time>
      </trkpt>
      <trkpt lat="43.2418810" lon="-1.5757200">
        <ele>496.720001</ele>
        <time>2011-12-24T10:25:26.000Z</time>
      </trkpt>
      <trkpt lat="43.2414890" lon="-1.5762890">
        <ele>499.128021</ele>
        <time>2011-12-24T10:25:09.000Z</time>
      </trkpt>
      <trkpt lat="43.2412380" lon="-1.5768650">
        <ele>498.107025</ele>
        <time>2011-12-24T10:24:52.000Z</time>
      </trkpt>
      <trkpt lat="43.2412190" lon="-1.5768940">
        <ele>498.116974</ele>
        <time>2011-12-24T10:24:51.000Z</time>
      </trkpt>
      <trkpt lat="43.2409740" lon="-1.5773980">
        <ele>494.360992</ele>
        <time>2011-12-24T10:24:42.000Z</time>
      </trkpt>
      <trkpt lat="43.2407880" lon="-1.5776120">
        <ele>495.247986</ele>
        <time>2011-12-24T10:24:38.000Z</time>
      </trkpt>
      <trkpt lat="43.2406720" lon="-1.5777220">
        <ele>496.726990</ele>
        <time>2011-12-24T10:24:35.000Z</time>
      </trkpt>
      <trkpt lat="43.2404240" lon="-1.5780170">
        <ele>494.787994</ele>
        <time>2011-12-24T10:24:28.000Z</time>
      </trkpt>
      <trkpt lat="43.2401520" lon="-1.5789330">
        <ele>496.239990</ele>
        <time>2011-12-24T10:24:18.000Z</time>
      </trkpt>
      <trkpt lat="43.2400920" lon="-1.5792100">
        <ele>498.622986</ele>
        <time>2011-12-24T10:24:15.000Z</time>
      </trkpt>
      <trkpt lat="43.2400180" lon="-1.5794490">
        <ele>499.545990</ele>
        <time>2011-12-24T10:24:12.000Z</time>
      </trkpt>
      <trkpt lat="43.2399410" lon="-1.5797820">
        <ele>501.074005</ele>
        <time>2011-12-24T10:24:08.000Z</time>
      </trkpt>
      <trkpt lat="43.2398360" lon="-1.5800770">
        <ele>502.082001</ele>
        <time>2011-12-24T10:24:04.000Z</time>
      </trkpt>
      <trkpt lat="43.2397480" lon="-1.5801990">
        <ele>501.506989</ele>
        <time>2011-12-24T10:24:02.000Z</time>
      </trkpt>
      <trkpt lat="43.2395380" lon="-1.5806410">
        <ele>501.016998</ele>
        <time>2011-12-24T10:23:56.000Z</time>
      </trkpt>
      <trkpt lat="43.2392730" lon="-1.5809030">
        <ele>501.043030</ele>
        <time>2011-12-24T10:23:50.000Z</time>
      </trkpt>
      <trkpt lat="43.2388650" lon="-1.5815260">
        <ele>502.981995</ele>
        <time>2011-12-24T10:23:41.000Z</time>
      </trkpt>
      <trkpt lat="43.2386720" lon="-1.5822760">
        <ele>504.833008</ele>
        <time>2011-12-24T10:23:33.000Z</time>
      </trkpt>
      <trkpt lat="43.2386370" lon="-1.5825120">
        <ele>506.344025</ele>
        <time>2011-12-24T10:23:31.000Z</time>
      </trkpt>
      <trkpt lat="43.2386540" lon="-1.5830090">
        <ele>510.155975</ele>
        <time>2011-12-24T10:23:26.000Z</time>
      </trkpt>
      <trkpt lat="43.2387710" lon="-1.5833860">
        <ele>513.549011</ele>
        <time>2011-12-24T10:23:20.000Z</time>
      </trkpt>
      <trkpt lat="43.2387250" lon="-1.5838060">
        <ele>513.521973</ele>
        <time>2011-12-24T10:23:12.000Z</time>
      </trkpt>
      <trkpt lat="43.2385590" lon="-1.5841390">
        <ele>514.469971</ele>
        <time>2011-12-24T10:23:07.000Z</time>
      </trkpt>
      <trkpt lat="43.2385030" lon="-1.5843590">
        <ele>516.428040</ele>
        <time>2011-12-24T10:23:04.000Z</time>
      </trkpt>
      <trkpt lat="43.2385110" lon="-1.5844190">
        <ele>517.307007</ele>
        <time>2011-12-24T10:23:03.000Z</time>
      </trkpt>
      <trkpt lat="43.2386130" lon="-1.5848250">
        <ele>517.321960</ele>
        <time>2011-12-24T10:22:51.000Z</time>
      </trkpt>
      <trkpt lat="43.2383690" lon="-1.5852650">
        <ele>517.302002</ele>
        <time>2011-12-24T10:22:45.000Z</time>
      </trkpt>
      <trkpt lat="43.2383000" lon="-1.5857100">
        <ele>518.348999</ele>
        <time>2011-12-24T10:22:39.000Z</time>
      </trkpt>
      <trkpt lat="43.2383500" lon="-1.5858350">
        <ele>516.419983</ele>
        <time>2011-12-24T10:22:37.000Z</time>
      </trkpt>
      <trkpt lat="43.2383980" lon="-1.5861200">
        <ele>515.971008</ele>
        <time>2011-12-24T10:22:33.000Z</time>
      </trkpt>
      <trkpt lat="43.2383700" lon="-1.5863510">
        <ele>516.972961</ele>
        <time>2011-12-24T10:22:30.000Z</time>
      </trkpt>
      <trkpt lat="43.2381780" lon="-1.5867310">
        <ele>518.856018</ele>
        <time>2011-12-24T10:22:23.000Z</time>
      </trkpt>
      <trkpt lat="43.2380250" lon="-1.5867630">
        <ele>519.718994</ele>
        <time>2011-12-24T10:22:20.000Z</time>
      </trkpt>
      <trkpt lat="43.2377310" lon="-1.5867950">
        <ele>519.337036</ele>
        <time>2011-12-24T10:22:12.000Z</time>
      </trkpt>
      <trkpt lat="43.2375820" lon="-1.5867250">
        <ele>519.794983</ele>
        <time>2011-12-24T10:22:09.000Z</time>
      </trkpt>
      <trkpt lat="43.2374240" lon="-1.5866920">
        <ele>520.707031</ele>
        <time>2011-12-24T10:22:05.000Z</time>
      </trkpt>
      <trkpt lat="43.2371430" lon="-1.5867960">
        <ele>522.603027</ele>
        <time>2011-12-24T10:21:59.000Z</time>
      </trkpt>
      <trkpt lat="43.2369580" lon="-1.5869070">
        <ele>524.121033</ele>
        <time>2011-12-24T10:21:56.000Z</time>
      </trkpt>
      <trkpt lat="43.2367280" lon="-1.5868880">
        <ele>526.011047</ele>
        <time>2011-12-24T10:21:52.000Z</time>
      </trkpt>
      <trkpt lat="43.2366450" lon="-1.5869000">
        <ele>526.961975</ele>
        <time>2011-12-24T10:21:50.000Z</time>
      </trkpt>
      <trkpt lat="43.2364610" lon="-1.5869390">
        <ele>529.362976</ele>
        <time>2011-12-24T10:21:40.000Z</time>
      </trkpt>
      <trkpt lat="43.2363800" lon="-1.5869930">
        <ele>530.885010</ele>
        <time>2011-12-24T10:21:33.000Z</time>
      </trkpt>
      <trkpt lat="43.2363620" lon="-1.5870500">
        <ele>531.317993</ele>
        <time>2011-12-24T10:21:28.000Z</time>
      </trkpt>
      <trkpt lat="43.2363140" lon="-1.5869490">
        <ele>531.380981</ele>
        <time>2011-12-24T10:21:22.000Z</time>
      </trkpt>
      <trkpt lat="43.2361590" lon="-1.5868510">
        <ele>535.169006</ele>
        <time>2011-12-24T10:21:16.000Z</time>
      </trkpt>
      <trkpt lat="43.2360840" lon="-1.5867940">
        <ele>535.156982</ele>
        <time>2011-12-24T10:21:14.000Z</time>
      </trkpt>
      <trkpt lat="43.2359920" lon="-1.5866110">
        <ele>536.606995</ele>
        <time>2011-12-24T10:21:10.000Z</time>
      </trkpt>
      <trkpt lat="43.2359680" lon="-1.5864430">
        <ele>537.510010</ele>
        <time>2011-12-24T10:21:07.000Z</time>
      </trkpt>
      <trkpt lat="43.2358590" lon="-1.5860300">
        <ele>536.654968</ele>
        <time>2011-12-24T10:20:58.000Z</time>
      </trkpt>
      <trkpt lat="43.2358560" lon="-1.5857500">
        <ele>536.134033</ele>
        <time>2011-12-24T10:20:54.000Z</time>
      </trkpt>
      <trkpt lat="43.2359470" lon="-1.5855340">
        <ele>537.586975</ele>
        <time>2011-12-24T10:20:52.000Z</time>
      </trkpt>
      <trkpt lat="43.2360960" lon="-1.5851610">
        <ele>541.877991</ele>
        <time>2011-12-24T10:20:49.000Z</time>
      </trkpt>
      <trkpt lat="43.2361500" lon="-1.5847620">
        <ele>547.619995</ele>
        <time>2011-12-24T10:20:46.000Z</time>
      </trkpt>
      <trkpt lat="43.2361780" lon="-1.5842260">
        <ele>553.492981</ele>
        <time>2011-12-24T10:20:42.000Z</time>
      </trkpt>
      <trkpt lat="43.2361870" lon="-1.5840920">
        <ele>554.395996</ele>
        <time>2011-12-24T10:20:41.000Z</time>
      </trkpt>
      <trkpt lat="43.2362300" lon="-1.5836110">
        <ele>557.783997</ele>
        <time>2011-12-24T10:20:37.000Z</time>
      </trkpt>
      <trkpt lat="43.2362460" lon="-1.5835000">
        <ele>557.752014</ele>
        <time>2011-12-24T10:20:36.000Z</time>
      </trkpt>
      <trkpt lat="43.2363030" lon="-1.5830630">
        <ele>561.606995</ele>
        <time>2011-12-24T10:20:32.000Z</time>
      </trkpt>
      <trkpt lat="43.2363590" lon="-1.5826050">
        <ele>564.916992</ele>
        <time>2011-12-24T10:20:27.000Z</time>
      </trkpt>
      <trkpt lat="43.2364690" lon="-1.5818450">
        <ele>568.861023</ele>
        <time>2011-12-24T10:20:12.000Z</time>
      </trkpt>
      <trkpt lat="43.2365240" lon="-1.5811450">
        <ele>568.380981</ele>
        <time>2011-12-24T10:19:55.000Z</time>
      </trkpt>
      <trkpt lat="43.2365410" lon="-1.5808830">
        <ele>568.354980</ele>
        <time>2011-12-24T10:19:49.000Z</time>
      </trkpt>
      <trkpt lat="43.2367340" lon="-1.5802740">
        <ele>570.716003</ele>
        <time>2011-12-24T10:19:36.000Z</time>
      </trkpt>
      <trkpt lat="43.2369700" lon="-1.5797440">
        <ele>571.658020</ele>
        <time>2011-12-24T10:19:19.000Z</time>
      </trkpt>
      <trkpt lat="43.2371380" lon="-1.5792510">
        <ele>569.751038</ele>
        <time>2011-12-24T10:19:04.000Z</time>
      </trkpt>
      <trkpt lat="43.2371670" lon="-1.5791130">
        <ele>568.833984</ele>
        <time>2011-12-24T10:19:00.000Z</time>
      </trkpt>
      <trkpt lat="43.2372060" lon="-1.5786240">
        <ele>566.452026</ele>
        <time>2011-12-24T10:18:45.000Z</time>
      </trkpt>
      <trkpt lat="43.2370880" lon="-1.5783700">
        <ele>563.070007</ele>
        <time>2011-12-24T10:18:37.000Z</time>
      </trkpt>
      <trkpt lat="43.2369250" lon="-1.5781380">
        <ele>559.606995</ele>
        <time>2011-12-24T10:18:24.000Z</time>
      </trkpt>
      <trkpt lat="43.2367980" lon="-1.5779520">
        <ele>556.713989</ele>
        <time>2011-12-24T10:18:15.000Z</time>
      </trkpt>
      <trkpt lat="43.2366670" lon="-1.5778050">
        <ele>553.968018</ele>
        <time>2011-12-24T10:18:06.000Z</time>
      </trkpt>
      <trkpt lat="43.2364670" lon="-1.5776120">
        <ele>551.965027</ele>
        <time>2011-12-24T10:17:54.000Z</time>
      </trkpt>
      <trkpt lat="43.2362850" lon="-1.5774440">
        <ele>550.054993</ele>
        <time>2011-12-24T10:17:45.000Z</time>
      </trkpt>
      <trkpt lat="43.2361430" lon="-1.5770790">
        <ele>547.625977</ele>
        <time>2011-12-24T10:17:31.000Z</time>
      </trkpt>
      <trkpt lat="43.2360750" lon="-1.5765720">
        <ele>545.278015</ele>
        <time>2011-12-24T10:17:17.000Z</time>
      </trkpt>
      <trkpt lat="43.2358830" lon="-1.5759490">
        <ele>543.820984</ele>
        <time>2011-12-24T10:17:02.000Z</time>
      </trkpt>
      <trkpt lat="43.2356540" lon="-1.5755720">
        <ele>543.334045</ele>
        <time>2011-12-24T10:16:49.000Z</time>
      </trkpt>
      <trkpt lat="43.2353220" lon="-1.5752530">
        <ele>544.291992</ele>
        <time>2011-12-24T10:16:34.000Z</time>
      </trkpt>
      <trkpt lat="43.2351990" lon="-1.5749860">
        <ele>542.359985</ele>
        <time>2011-12-24T10:16:23.000Z</time>
      </trkpt>
      <trkpt lat="43.2351450" lon="-1.5746180">
        <ele>540.407043</ele>
        <time>2011-12-24T10:16:11.000Z</time>
      </trkpt>
      <trkpt lat="43.2352340" lon="-1.5742290">
        <ele>539.412964</ele>
        <time>2011-12-24T10:16:00.000Z</time>
      </trkpt>
      <trkpt lat="43.2349670" lon="-1.5737670">
        <ele>536.621033</ele>
        <time>2011-12-24T10:15:42.000Z</time>
      </trkpt>
      <trkpt lat="43.2346950" lon="-1.5732270">
        <ele>533.760986</ele>
        <time>2011-12-24T10:15:24.000Z</time>
      </trkpt>
      <trkpt lat="43.2345720" lon="-1.5729040">
        <ele>531.887024</ele>
        <time>2011-12-24T10:15:12.000Z</time>
      </trkpt>
      <trkpt lat="43.2342180" lon="-1.5722870">
        <ele>528.937988</ele>
        <time>2011-12-24T10:14:56.000Z</time>
      </trkpt>
      <trkpt lat="43.2340270" lon="-1.5722670">
        <ele>528.979980</ele>
        <time>2011-12-24T10:14:51.000Z</time>
      </trkpt>
      <trkpt lat="43.2338260" lon="-1.5723670">
        <ele>530.363037</ele>
        <time>2011-12-24T10:14:48.000Z</time>
      </trkpt>
      <trkpt lat="43.2335380" lon="-1.5725530">
        <ele>533.296021</ele>
        <time>2011-12-24T10:14:44.000Z</time>
      </trkpt>
      <trkpt lat="43.2334610" lon="-1.5725750">
        <ele>533.734009</ele>
        <time>2011-12-24T10:14:43.000Z</time>
      </trkpt>
      <trkpt lat="43.2329160" lon="-1.5726530">
        <ele>537.562012</ele>
        <time>2011-12-24T10:14:36.000Z</time>
      </trkpt>
      <trkpt lat="43.2325600" lon="-1.5727890">
        <ele>539.906982</ele>
        <time>2011-12-24T10:14:31.000Z</time>
      </trkpt>
      <trkpt lat="43.2324890" lon="-1.5728320">
        <ele>540.425964</ele>
        <time>2011-12-24T10:14:30.000Z</time>
      </trkpt>
      <trkpt lat="43.2320800" lon="-1.5731650">
        <ele>544.205994</ele>
        <time>2011-12-24T10:14:24.000Z</time>
      </trkpt>
      <trkpt lat="43.2319580" lon="-1.5735590">
        <ele>549.188965</ele>
        <time>2011-12-24T10:14:20.000Z</time>
      </trkpt>
      <trkpt lat="43.2317750" lon="-1.5738020">
        <ele>551.536987</ele>
        <time>2011-12-24T10:14:17.000Z</time>
      </trkpt>
      <trkpt lat="43.2317070" lon="-1.5738700">
        <ele>552.418030</ele>
        <time>2011-12-24T10:14:16.000Z</time>
      </trkpt>
      <trkpt lat="43.2313520" lon="-1.5741880">
        <ele>556.729980</ele>
        <time>2011-12-24T10:14:11.000Z</time>
      </trkpt>
      <trkpt lat="43.2310160" lon="-1.5742620">
        <ele>561.132996</ele>
        <time>2011-12-24T10:14:06.000Z</time>
      </trkpt>
      <trkpt lat="43.2308450" lon="-1.5741250">
        <ele>561.635986</ele>
        <time>2011-12-24T10:14:03.000Z</time>
      </trkpt>
      <trkpt lat="43.2304710" lon="-1.5739400">
        <ele>563.554016</ele>
        <time>2011-12-24T10:13:56.000Z</time>
      </trkpt>
      <trkpt lat="43.2303260" lon="-1.5740040">
        <ele>564.952026</ele>
        <time>2011-12-24T10:13:54.000Z</time>
      </trkpt>
      <trkpt lat="43.2301720" lon="-1.5740310">
        <ele>565.906982</ele>
        <time>2011-12-24T10:13:52.000Z</time>
      </trkpt>
      <trkpt lat="43.2298760" lon="-1.5740160">
        <ele>568.317017</ele>
        <time>2011-12-24T10:13:48.000Z</time>
      </trkpt>
      <trkpt lat="43.2296210" lon="-1.5739890">
        <ele>571.206970</ele>
        <time>2011-12-24T10:13:44.000Z</time>
      </trkpt>
      <trkpt lat="43.2293650" lon="-1.5739420">
        <ele>573.684021</ele>
        <time>2011-12-24T10:13:39.000Z</time>
      </trkpt>
      <trkpt lat="43.2292480" lon="-1.5738980">
        <ele>574.513977</ele>
        <time>2011-12-24T10:13:36.000Z</time>
      </trkpt>
      <trkpt lat="43.2288730" lon="-1.5736810">
        <ele>575.515015</ele>
        <time>2011-12-24T10:13:24.000Z</time>
      </trkpt>
      <trkpt lat="43.2286300" lon="-1.5735700">
        <ele>573.137024</ele>
        <time>2011-12-24T10:13:16.000Z</time>
      </trkpt>
      <trkpt lat="43.2284550" lon="-1.5734060">
        <ele>573.130005</ele>
        <time>2011-12-24T10:13:09.000Z</time>
      </trkpt>
      <trkpt lat="43.2283080" lon="-1.5730980">
        <ele>573.112976</ele>
        <time>2011-12-24T10:13:00.000Z</time>
      </trkpt>
      <trkpt lat="43.2281230" lon="-1.5727610">
        <ele>574.510986</ele>
        <time>2011-12-24T10:12:55.000Z</time>
      </trkpt>
      <trkpt lat="43.2279920" lon="-1.5726180">
        <ele>575.588989</ele>
        <time>2011-12-24T10:12:51.000Z</time>
      </trkpt>
      <trkpt lat="43.2275220" lon="-1.5722890">
        <ele>576.906982</ele>
        <time>2011-12-24T10:12:39.000Z</time>
      </trkpt>
      <trkpt lat="43.2273720" lon="-1.5721490">
        <ele>577.914001</ele>
        <time>2011-12-24T10:12:36.000Z</time>
      </trkpt>
      <trkpt lat="43.2272960" lon="-1.5720260">
        <ele>578.903992</ele>
        <time>2011-12-24T10:12:34.000Z</time>
      </trkpt>
      <trkpt lat="43.2272790" lon="-1.5719540">
        <ele>579.853027</ele>
        <time>2011-12-24T10:12:33.000Z</time>
      </trkpt>
      <trkpt lat="43.2271200" lon="-1.5714520">
        <ele>582.728027</ele>
        <time>2011-12-24T10:12:25.000Z</time>
      </trkpt>
      <trkpt lat="43.2270700" lon="-1.5713430">
        <ele>583.739014</ele>
        <time>2011-12-24T10:12:23.000Z</time>
      </trkpt>
      <trkpt lat="43.2269000" lon="-1.5711350">
        <ele>584.130981</ele>
        <time>2011-12-24T10:12:17.000Z</time>
      </trkpt>
      <trkpt lat="43.2267550" lon="-1.5709910">
        <ele>585.653992</ele>
        <time>2011-12-24T10:12:13.000Z</time>
      </trkpt>
      <trkpt lat="43.2266510" lon="-1.5708980">
        <ele>586.557007</ele>
        <time>2011-12-24T10:12:10.000Z</time>
      </trkpt>
      <trkpt lat="43.2264190" lon="-1.5707160">
        <ele>586.595032</ele>
        <time>2011-12-24T10:11:32.000Z</time>
      </trkpt>
      <trkpt lat="43.2263520" lon="-1.5706680">
        <ele>587.033020</ele>
        <time>2011-12-24T10:10:58.000Z</time>
      </trkpt>
      <trkpt lat="43.2263520" lon="-1.5706680">
        <ele>586.106995</ele>
        <time>2011-12-24T10:10:33.000Z</time>
      </trkpt>
      <trkpt lat="43.2263640" lon="-1.5706420">
        <ele>582.721985</ele>
        <time>2011-12-24T10:00:01.000Z</time>
      </trkpt>
      <trkpt lat="43.2263640" lon="-1.5706410">
        <ele>582.756958</ele>
        <time>2011-12-24T09:58:56.000Z</time>
      </trkpt>
      <trkpt lat="43.2263470" lon="-1.5706530">
        <ele>583.794006</ele>
        <time>2011-12-24T09:58:47.000Z</time>
      </trkpt>
      <trkpt lat="43.2263240" lon="-1.5706220">
        <ele>584.151001</ele>
        <time>2011-12-24T09:58:45.000Z</time>
      </trkpt>
      <trkpt lat="43.2259250" lon="-1.5702750">
        <ele>587.041992</ele>
        <time>2011-12-24T09:58:32.000Z</time>
      </trkpt>
      <trkpt lat="43.2255790" lon="-1.5699120">
        <ele>590.473999</ele>
        <time>2011-12-24T09:58:18.000Z</time>
      </trkpt>
      <trkpt lat="43.2254150" lon="-1.5695860">
        <ele>589.437012</ele>
        <time>2011-12-24T09:58:04.000Z</time>
      </trkpt>
      <trkpt lat="43.2253200" lon="-1.5691230">
        <ele>588.539978</ele>
        <time>2011-12-24T09:57:50.000Z</time>
      </trkpt>
      <trkpt lat="43.2251960" lon="-1.5687650">
        <ele>589.427979</ele>
        <time>2011-12-24T09:57:37.000Z</time>
      </trkpt>
      <trkpt lat="43.2250170" lon="-1.5685220">
        <ele>587.515991</ele>
        <time>2011-12-24T09:57:20.000Z</time>
      </trkpt>
      <trkpt lat="43.2249170" lon="-1.5683340">
        <ele>586.106995</ele>
        <time>2011-12-24T09:57:07.000Z</time>
      </trkpt>
      <trkpt lat="43.2247860" lon="-1.5680840">
        <ele>583.213989</ele>
        <time>2011-12-24T09:56:50.000Z</time>
      </trkpt>
      <trkpt lat="43.2247510" lon="-1.5680220">
        <ele>582.204041</ele>
        <time>2011-12-24T09:56:46.000Z</time>
      </trkpt>
      <trkpt lat="43.2247380" lon="-1.5680020">
        <ele>582.223999</ele>
        <time>2011-12-24T09:56:44.000Z</time>
      </trkpt>
      <trkpt lat="43.2246880" lon="-1.5678890">
        <ele>580.335022</ele>
        <time>2011-12-24T09:56:36.000Z</time>
      </trkpt>
      <trkpt lat="43.2245290" lon="-1.5676200">
        <ele>578.485962</ele>
        <time>2011-12-24T09:56:19.000Z</time>
      </trkpt>
      <trkpt lat="43.2243400" lon="-1.5674180">
        <ele>576.937988</ele>
        <time>2011-12-24T09:56:02.000Z</time>
      </trkpt>
      <trkpt lat="43.2242530" lon="-1.5673130">
        <ele>576.541016</ele>
        <time>2011-12-24T09:55:42.000Z</time>
      </trkpt>
      <trkpt lat="43.2242400" lon="-1.5672870">
        <ele>576.033997</ele>
        <time>2011-12-24T09:55:15.000Z</time>
      </trkpt>
      <trkpt lat="43.2241430" lon="-1.5671030">
        <ele>574.562012</ele>
        <time>2011-12-24T09:54:57.000Z</time>
      </trkpt>
      <trkpt lat="43.2241200" lon="-1.5670810">
        <ele>574.040039</ele>
        <time>2011-12-24T09:54:53.000Z</time>
      </trkpt>
      <trkpt lat="43.2240340" lon="-1.5669840">
        <ele>572.606995</ele>
        <time>2011-12-24T09:54:37.000Z</time>
      </trkpt>
      <trkpt lat="43.2239300" lon="-1.5666720">
        <ele>569.221008</ele>
        <time>2011-12-24T09:54:20.000Z</time>
      </trkpt>
      <trkpt lat="43.2239320" lon="-1.5665850">
        <ele>568.328979</ele>
        <time>2011-12-24T09:54:16.000Z</time>
      </trkpt>
      <trkpt lat="43.2239020" lon="-1.5664600">
        <ele>567.366028</ele>
        <time>2011-12-24T09:54:10.000Z</time>
      </trkpt>
      <trkpt lat="43.2239270" lon="-1.5661510">
        <ele>564.492981</ele>
        <time>2011-12-24T09:53:55.000Z</time>
      </trkpt>
      <trkpt lat="43.2239870" lon="-1.5660340">
        <ele>562.093994</ele>
        <time>2011-12-24T09:53:48.000Z</time>
      </trkpt>
      <trkpt lat="43.2240510" lon="-1.5657720">
        <ele>561.116028</ele>
        <time>2011-12-24T09:53:34.000Z</time>
      </trkpt>
      <trkpt lat="43.2240020" lon="-1.5656180">
        <ele>560.169006</ele>
        <time>2011-12-24T09:53:26.000Z</time>
      </trkpt>
      <trkpt lat="43.2238630" lon="-1.5653320">
        <ele>557.261963</ele>
        <time>2011-12-24T09:53:08.000Z</time>
      </trkpt>
      <trkpt lat="43.2238340" lon="-1.5653020">
        <ele>556.790039</ele>
        <time>2011-12-24T09:53:06.000Z</time>
      </trkpt>
      <trkpt lat="43.2237570" lon="-1.5651180">
        <ele>553.427979</ele>
        <time>2011-12-24T09:52:53.000Z</time>
      </trkpt>
      <trkpt lat="43.2236760" lon="-1.5649500">
        <ele>551.506958</ele>
        <time>2011-12-24T09:52:40.000Z</time>
      </trkpt>
      <trkpt lat="43.2236170" lon="-1.5647550">
        <ele>548.609009</ele>
        <time>2011-12-24T09:52:28.000Z</time>
      </trkpt>
      <trkpt lat="43.2236030" lon="-1.5646890">
        <ele>547.680969</ele>
        <time>2011-12-24T09:52:24.000Z</time>
      </trkpt>
      <trkpt lat="43.2236170" lon="-1.5645620">
        <ele>546.241028</ele>
        <time>2011-12-24T09:52:17.000Z</time>
      </trkpt>
      <trkpt lat="43.2236210" lon="-1.5644850">
        <ele>545.782959</ele>
        <time>2011-12-24T09:52:13.000Z</time>
      </trkpt>
      <trkpt lat="43.2236000" lon="-1.5642150">
        <ele>542.374023</ele>
        <time>2011-12-24T09:51:59.000Z</time>
      </trkpt>
      <trkpt lat="43.2235730" lon="-1.5639660">
        <ele>538.556030</ele>
        <time>2011-12-24T09:51:46.000Z</time>
      </trkpt>
      <trkpt lat="43.2235290" lon="-1.5637060">
        <ele>535.138977</ele>
        <time>2011-12-24T09:51:32.000Z</time>
      </trkpt>
      <trkpt lat="43.2235280" lon="-1.5635690">
        <ele>533.781982</ele>
        <time>2011-12-24T09:51:25.000Z</time>
      </trkpt>
      <trkpt lat="43.2235280" lon="-1.5634210">
        <ele>531.359985</ele>
        <time>2011-12-24T09:51:18.000Z</time>
      </trkpt>
      <trkpt lat="43.2235320" lon="-1.5633890">
        <ele>530.357971</ele>
        <time>2011-12-24T09:51:16.000Z</time>
      </trkpt>
      <trkpt lat="43.2235330" lon="-1.5631480">
        <ele>527.406982</ele>
        <time>2011-12-24T09:51:04.000Z</time>
      </trkpt>
      <trkpt lat="43.2234270" lon="-1.5629080">
        <ele>525.015015</ele>
        <time>2011-12-24T09:50:49.000Z</time>
      </trkpt>
      <trkpt lat="43.2232050" lon="-1.5626110">
        <ele>522.605042</ele>
        <time>2011-12-24T09:50:31.000Z</time>
      </trkpt>
      <trkpt lat="43.2230030" lon="-1.5624980">
        <ele>520.744019</ele>
        <time>2011-12-24T09:50:14.000Z</time>
      </trkpt>
      <trkpt lat="43.2229650" lon="-1.5624820">
        <ele>520.276978</ele>
        <time>2011-12-24T09:50:10.000Z</time>
      </trkpt>
      <trkpt lat="43.2229440" lon="-1.5624910">
        <ele>520.268005</ele>
        <time>2011-12-24T09:50:08.000Z</time>
      </trkpt>
      <trkpt lat="43.2229470" lon="-1.5624900">
        <ele>519.750000</ele>
        <time>2011-12-24T09:49:28.000Z</time>
      </trkpt>
      <trkpt lat="43.2229390" lon="-1.5624910">
        <ele>520.283020</ele>
        <time>2011-12-24T09:49:12.000Z</time>
      </trkpt>
      <trkpt lat="43.2229330" lon="-1.5624850">
        <ele>519.745972</ele>
        <time>2011-12-24T09:48:32.000Z</time>
      </trkpt>
      <trkpt lat="43.2229170" lon="-1.5624500">
        <ele>517.843994</ele>
        <time>2011-12-24T09:47:00.000Z</time>
      </trkpt>
      <trkpt lat="43.2229520" lon="-1.5624430">
        <ele>516.911987</ele>
        <time>2011-12-24T09:46:49.000Z</time>
      </trkpt>
      <trkpt lat="43.2229530" lon="-1.5624010">
        <ele>516.406982</ele>
        <time>2011-12-24T09:46:46.000Z</time>
      </trkpt>
      <trkpt lat="43.2229120" lon="-1.5622000">
        <ele>513.517029</ele>
        <time>2011-12-24T09:46:32.000Z</time>
      </trkpt>
      <trkpt lat="43.2229220" lon="-1.5620410">
        <ele>510.625031</ele>
        <time>2011-12-24T09:46:18.000Z</time>
      </trkpt>
      <trkpt lat="43.2229030" lon="-1.5619370">
        <ele>509.282990</ele>
        <time>2011-12-24T09:46:13.000Z</time>
      </trkpt>
      <trkpt lat="43.2229070" lon="-1.5618670">
        <ele>508.714996</ele>
        <time>2011-12-24T09:46:08.000Z</time>
      </trkpt>
      <trkpt lat="43.2228980" lon="-1.5617730">
        <ele>507.776001</ele>
        <time>2011-12-24T09:46:03.000Z</time>
      </trkpt>
      <trkpt lat="43.2228980" lon="-1.5616570">
        <ele>507.218018</ele>
        <time>2011-12-24T09:45:57.000Z</time>
      </trkpt>
      <trkpt lat="43.2228940" lon="-1.5615610">
        <ele>506.381012</ele>
        <time>2011-12-24T09:45:52.000Z</time>
      </trkpt>
      <trkpt lat="43.2228140" lon="-1.5614380">
        <ele>504.844025</ele>
        <time>2011-12-24T09:45:46.000Z</time>
      </trkpt>
      <trkpt lat="43.2226920" lon="-1.5613830">
        <ele>502.421997</ele>
        <time>2011-12-24T09:45:39.000Z</time>
      </trkpt>
      <trkpt lat="43.2224050" lon="-1.5613140">
        <ele>499.589996</ele>
        <time>2011-12-24T09:45:27.000Z</time>
      </trkpt>
      <trkpt lat="43.2221880" lon="-1.5610720">
        <ele>498.107025</ele>
        <time>2011-12-24T09:45:16.000Z</time>
      </trkpt>
      <trkpt lat="43.2220280" lon="-1.5608430">
        <ele>497.111023</ele>
        <time>2011-12-24T09:45:06.000Z</time>
      </trkpt>
      <trkpt lat="43.2217510" lon="-1.5606480">
        <ele>494.783020</ele>
        <time>2011-12-24T09:44:53.000Z</time>
      </trkpt>
      <trkpt lat="43.2214980" lon="-1.5603740">
        <ele>491.461975</ele>
        <time>2011-12-24T09:44:39.000Z</time>
      </trkpt>
      <trkpt lat="43.2213210" lon="-1.5602310">
        <ele>489.030975</ele>
        <time>2011-12-24T09:44:31.000Z</time>
      </trkpt>
      <trkpt lat="43.2210220" lon="-1.5601140">
        <ele>487.562012</ele>
        <time>2011-12-24T09:44:21.000Z</time>
      </trkpt>
      <trkpt lat="43.2206510" lon="-1.5597370">
        <ele>488.044006</ele>
        <time>2011-12-24T09:44:10.000Z</time>
      </trkpt>
      <trkpt lat="43.2205490" lon="-1.5596160">
        <ele>489.576996</ele>
        <time>2011-12-24T09:44:07.000Z</time>
      </trkpt>
      <trkpt lat="43.2204150" lon="-1.5594670">
        <ele>489.570007</ele>
        <time>2011-12-24T09:44:04.000Z</time>
      </trkpt>
      <trkpt lat="43.2202920" lon="-1.5593210">
        <ele>490.977997</ele>
        <time>2011-12-24T09:44:01.000Z</time>
      </trkpt>
      <trkpt lat="43.2201350" lon="-1.5591920">
        <ele>491.936005</ele>
        <time>2011-12-24T09:43:57.000Z</time>
      </trkpt>
      <trkpt lat="43.2199710" lon="-1.5590990">
        <ele>491.907013</ele>
        <time>2011-12-24T09:43:53.000Z</time>
      </trkpt>
      <trkpt lat="43.2197030" lon="-1.5589970">
        <ele>494.316986</ele>
        <time>2011-12-24T09:43:47.000Z</time>
      </trkpt>
      <trkpt lat="43.2195460" lon="-1.5589880">
        <ele>493.889008</ele>
        <time>2011-12-24T09:43:43.000Z</time>
      </trkpt>
      <trkpt lat="43.2194040" lon="-1.5588390">
        <ele>493.828003</ele>
        <time>2011-12-24T09:43:38.000Z</time>
      </trkpt>
      <trkpt lat="43.2192810" lon="-1.5587300">
        <ele>492.842987</ele>
        <time>2011-12-24T09:43:32.000Z</time>
      </trkpt>
      <trkpt lat="43.2192600" lon="-1.5587070">
        <ele>492.823975</ele>
        <time>2011-12-24T09:43:31.000Z</time>
      </trkpt>
      <trkpt lat="43.2192390" lon="-1.5582290">
        <ele>494.776001</ele>
        <time>2011-12-24T09:43:22.000Z</time>
      </trkpt>
      <trkpt lat="43.2192070" lon="-1.5579960">
        <ele>495.289001</ele>
        <time>2011-12-24T09:43:19.000Z</time>
      </trkpt>
      <trkpt lat="43.2191460" lon="-1.5576280">
        <ele>496.771973</ele>
        <time>2011-12-24T09:43:14.000Z</time>
      </trkpt>
      <trkpt lat="43.2191070" lon="-1.5574340">
        <ele>498.679993</ele>
        <time>2011-12-24T09:43:10.000Z</time>
      </trkpt>
      <trkpt lat="43.2190820" lon="-1.5573760">
        <ele>498.658020</ele>
        <time>2011-12-24T09:43:07.000Z</time>
      </trkpt>
      <trkpt lat="43.2187400" lon="-1.5569820">
        <ele>499.506989</ele>
        <time>2011-12-24T09:42:56.000Z</time>
      </trkpt>
      <trkpt lat="43.2186500" lon="-1.5568660">
        <ele>498.116974</ele>
        <time>2011-12-24T09:42:52.000Z</time>
      </trkpt>
      <trkpt lat="43.2186070" lon="-1.5564870">
        <ele>494.760986</ele>
        <time>2011-12-24T09:42:39.000Z</time>
      </trkpt>
      <trkpt lat="43.2185670" lon="-1.5563470">
        <ele>494.347992</ele>
        <time>2011-12-24T09:42:35.000Z</time>
      </trkpt>
      <trkpt lat="43.2185560" lon="-1.5561980">
        <ele>494.390991</ele>
        <time>2011-12-24T09:42:30.000Z</time>
      </trkpt>
      <trkpt lat="43.2186050" lon="-1.5561270">
        <ele>493.842010</ele>
        <time>2011-12-24T09:42:27.000Z</time>
      </trkpt>
      <trkpt lat="43.2185420" lon="-1.5556580">
        <ele>494.793976</ele>
        <time>2011-12-24T09:42:19.000Z</time>
      </trkpt>
      <trkpt lat="43.2183540" lon="-1.5551740">
        <ele>494.746979</ele>
        <time>2011-12-24T09:42:07.000Z</time>
      </trkpt>
      <trkpt lat="43.2183160" lon="-1.5550070">
        <ele>493.339996</ele>
        <time>2011-12-24T09:41:58.000Z</time>
      </trkpt>
      <trkpt lat="43.2182470" lon="-1.5546130">
        <ele>494.768005</ele>
        <time>2011-12-24T09:41:49.000Z</time>
      </trkpt>
      <trkpt lat="43.2182000" lon="-1.5543240">
        <ele>498.196014</ele>
        <time>2011-12-24T09:41:43.000Z</time>
      </trkpt>
      <trkpt lat="43.2181280" lon="-1.5538360">
        <ele>499.106995</ele>
        <time>2011-12-24T09:41:29.000Z</time>
      </trkpt>
      <trkpt lat="43.2180800" lon="-1.5536750">
        <ele>499.110992</ele>
        <time>2011-12-24T09:41:24.000Z</time>
      </trkpt>
      <trkpt lat="43.2179440" lon="-1.5534450">
        <ele>498.147003</ele>
        <time>2011-12-24T09:41:13.000Z</time>
      </trkpt>
      <trkpt lat="43.2177440" lon="-1.5532330">
        <ele>498.125977</ele>
        <time>2011-12-24T09:41:01.000Z</time>
      </trkpt>
      <trkpt lat="43.2176860" lon="-1.5532000">
        <ele>496.768005</ele>
        <time>2011-12-24T09:40:58.000Z</time>
      </trkpt>
      <trkpt lat="43.2174770" lon="-1.5528960">
        <ele>495.758972</ele>
        <time>2011-12-24T09:40:48.000Z</time>
      </trkpt>
      <trkpt lat="43.2174070" lon="-1.5524130">
        <ele>495.710999</ele>
        <time>2011-12-24T09:40:35.000Z</time>
      </trkpt>
      <trkpt lat="43.2172970" lon="-1.5521610">
        <ele>493.313995</ele>
        <time>2011-12-24T09:40:27.000Z</time>
      </trkpt>
      <trkpt lat="43.2171440" lon="-1.5519100">
        <ele>489.987000</ele>
        <time>2011-12-24T09:40:18.000Z</time>
      </trkpt>
      <trkpt lat="43.2171270" lon="-1.5518730">
        <ele>490.424988</ele>
        <time>2011-12-24T09:40:17.000Z</time>
      </trkpt>
      <trkpt lat="43.2171130" lon="-1.5518500">
        <ele>489.962982</ele>
        <time>2011-12-24T09:40:16.000Z</time>
      </trkpt>
      <trkpt lat="43.2171010" lon="-1.5518160">
        <ele>489.906982</ele>
        <time>2011-12-24T09:40:15.000Z</time>
      </trkpt>
      <trkpt lat="43.2170940" lon="-1.5517800">
        <ele>489.921997</ele>
        <time>2011-12-24T09:40:14.000Z</time>
      </trkpt>
      <trkpt lat="43.2170780" lon="-1.5517290">
        <ele>490.456970</ele>
        <time>2011-12-24T09:40:13.000Z</time>
      </trkpt>
      <trkpt lat="43.2170130" lon="-1.5515800">
        <ele>488.093994</ele>
        <time>2011-12-24T09:40:08.000Z</time>
      </trkpt>
      <trkpt lat="43.2169970" lon="-1.5515470">
        <ele>487.510010</ele>
        <time>2011-12-24T09:40:07.000Z</time>
      </trkpt>
      <trkpt lat="43.2169490" lon="-1.5513280">
        <ele>487.570984</ele>
        <time>2011-12-24T09:40:03.000Z</time>
      </trkpt>
      <trkpt lat="43.2169350" lon="-1.5511350">
        <ele>490.953003</ele>
        <time>2011-12-24T09:39:58.000Z</time>
      </trkpt>
      <trkpt lat="43.2168840" lon="-1.5507100">
        <ele>494.386017</ele>
        <time>2011-12-24T09:39:48.000Z</time>
      </trkpt>
      <trkpt lat="43.2167850" lon="-1.5506220">
        <ele>495.239014</ele>
        <time>2011-12-24T09:39:44.000Z</time>
      </trkpt>
      <trkpt lat="43.2167270" lon="-1.5504940">
        <ele>496.737000</ele>
        <time>2011-12-24T09:39:40.000Z</time>
      </trkpt>
      <trkpt lat="43.2166900" lon="-1.5504400">
        <ele>496.714996</ele>
        <time>2011-12-24T09:39:37.000Z</time>
      </trkpt>
      <trkpt lat="43.2166580" lon="-1.5503840">
        <ele>497.606995</ele>
        <time>2011-12-24T09:38:58.000Z</time>
      </trkpt>
      <trkpt lat="43.2166380" lon="-1.5503590">
        <ele>495.707001</ele>
        <time>2011-12-24T09:36:15.000Z</time>
      </trkpt>
      <trkpt lat="43.2166420" lon="-1.5503440">
        <ele>495.742981</ele>
        <time>2011-12-24T09:36:14.000Z</time>
      </trkpt>
      <trkpt lat="43.2165840" lon="-1.5502290">
        <ele>499.113007</ele>
        <time>2011-12-24T09:36:11.000Z</time>
      </trkpt>
      <trkpt lat="43.2164760" lon="-1.5500360">
        <ele>501.565002</ele>
        <time>2011-12-24T09:36:07.000Z</time>
      </trkpt>
      <trkpt lat="43.2163820" lon="-1.5498510">
        <ele>505.325989</ele>
        <time>2011-12-24T09:36:03.000Z</time>
      </trkpt>
      <trkpt lat="43.2163060" lon="-1.5496460">
        <ele>509.217987</ele>
        <time>2011-12-24T09:35:56.000Z</time>
      </trkpt>
      <trkpt lat="43.2162520" lon="-1.5495970">
        <ele>510.171021</ele>
        <time>2011-12-24T09:35:51.000Z</time>
      </trkpt>
      <trkpt lat="43.2161290" lon="-1.5492540">
        <ele>514.434021</ele>
        <time>2011-12-24T09:35:44.000Z</time>
      </trkpt>
      <trkpt lat="43.2160210" lon="-1.5489760">
        <ele>518.812012</ele>
        <time>2011-12-24T09:35:40.000Z</time>
      </trkpt>
      <trkpt lat="43.2159300" lon="-1.5487220">
        <ele>521.770020</ele>
        <time>2011-12-24T09:35:36.000Z</time>
      </trkpt>
      <trkpt lat="43.2158360" lon="-1.5484990">
        <ele>525.006958</ele>
        <time>2011-12-24T09:35:32.000Z</time>
      </trkpt>
      <trkpt lat="43.2158160" lon="-1.5484630">
        <ele>525.515991</ele>
        <time>2011-12-24T09:35:31.000Z</time>
      </trkpt>
      <trkpt lat="43.2158040" lon="-1.5484220">
        <ele>525.505981</ele>
        <time>2011-12-24T09:35:30.000Z</time>
      </trkpt>
      <trkpt lat="43.2157360" lon="-1.5482580">
        <ele>529.364014</ele>
        <time>2011-12-24T09:35:25.000Z</time>
      </trkpt>
      <trkpt lat="43.2157130" lon="-1.5481940">
        <ele>530.361023</ele>
        <time>2011-12-24T09:35:23.000Z</time>
      </trkpt>
      <trkpt lat="43.2156350" lon="-1.5480390">
        <ele>533.731995</ele>
        <time>2011-12-24T09:35:18.000Z</time>
      </trkpt>
      <trkpt lat="43.2156240" lon="-1.5480230">
        <ele>534.653992</ele>
        <time>2011-12-24T09:35:17.000Z</time>
      </trkpt>
      <trkpt lat="43.2155450" lon="-1.5478640">
        <ele>539.026978</ele>
        <time>2011-12-24T09:35:11.000Z</time>
      </trkpt>
      <trkpt lat="43.2154970" lon="-1.5477170">
        <ele>541.820007</ele>
        <time>2011-12-24T09:35:05.000Z</time>
      </trkpt>
      <trkpt lat="43.2154950" lon="-1.5476620">
        <ele>542.877991</ele>
        <time>2011-12-24T09:35:03.000Z</time>
      </trkpt>
      <trkpt lat="43.2154880" lon="-1.5475860">
        <ele>543.895996</ele>
        <time>2011-12-24T09:35:01.000Z</time>
      </trkpt>
      <trkpt lat="43.2154410" lon="-1.5474390">
        <ele>547.106995</ele>
        <time>2011-12-24T09:34:57.000Z</time>
      </trkpt>
      <trkpt lat="43.2154280" lon="-1.5474190">
        <ele>547.119995</ele>
        <time>2011-12-24T09:34:56.000Z</time>
      </trkpt>
      <trkpt lat="43.2153520" lon="-1.5473370">
        <ele>550.500000</ele>
        <time>2011-12-24T09:34:52.000Z</time>
      </trkpt>
      <trkpt lat="43.2152510" lon="-1.5471870">
        <ele>553.929016</ele>
        <time>2011-12-24T09:34:47.000Z</time>
      </trkpt>
      <trkpt lat="43.2151380" lon="-1.5469840">
        <ele>557.786011</ele>
        <time>2011-12-24T09:34:42.000Z</time>
      </trkpt>
      <trkpt lat="43.2150430" lon="-1.5468080">
        <ele>561.136963</ele>
        <time>2011-12-24T09:34:38.000Z</time>
      </trkpt>
      <trkpt lat="43.2149220" lon="-1.5466310">
        <ele>565.498962</ele>
        <time>2011-12-24T09:34:34.000Z</time>
      </trkpt>
      <trkpt lat="43.2148250" lon="-1.5464870">
        <ele>568.841980</ele>
        <time>2011-12-24T09:34:30.000Z</time>
      </trkpt>
      <trkpt lat="43.2146820" lon="-1.5463340">
        <ele>573.195007</ele>
        <time>2011-12-24T09:34:26.000Z</time>
      </trkpt>
      <trkpt lat="43.2146200" lon="-1.5462440">
        <ele>574.592957</ele>
        <time>2011-12-24T09:34:24.000Z</time>
      </trkpt>
      <trkpt lat="43.2145550" lon="-1.5461540">
        <ele>576.531006</ele>
        <time>2011-12-24T09:34:22.000Z</time>
      </trkpt>
      <trkpt lat="43.2144410" lon="-1.5459430">
        <ele>579.807007</ele>
        <time>2011-12-24T09:34:18.000Z</time>
      </trkpt>
      <trkpt lat="43.2143910" lon="-1.5457460">
        <ele>583.714966</ele>
        <time>2011-12-24T09:34:14.000Z</time>
      </trkpt>
      <trkpt lat="43.2143830" lon="-1.5455540">
        <ele>587.041016</ele>
        <time>2011-12-24T09:34:11.000Z</time>
      </trkpt>
      <trkpt lat="43.2144280" lon="-1.5452250">
        <ele>591.471008</ele>
        <time>2011-12-24T09:34:06.000Z</time>
      </trkpt>
      <trkpt lat="43.2144480" lon="-1.5451360">
        <ele>591.445984</ele>
        <time>2011-12-24T09:34:05.000Z</time>
      </trkpt>
      <trkpt lat="43.2145340" lon="-1.5446140">
        <ele>594.786987</ele>
        <time>2011-12-24T09:34:00.000Z</time>
      </trkpt>
      <trkpt lat="43.2145000" lon="-1.5442680">
        <ele>596.239014</ele>
        <time>2011-12-24T09:33:57.000Z</time>
      </trkpt>
      <trkpt lat="43.2143290" lon="-1.5438480">
        <ele>599.552002</ele>
        <time>2011-12-24T09:33:52.000Z</time>
      </trkpt>
      <trkpt lat="43.2140640" lon="-1.5436650">
        <ele>602.955017</ele>
        <time>2011-12-24T09:33:48.000Z</time>
      </trkpt>
      <trkpt lat="43.2137990" lon="-1.5435030">
        <ele>606.372986</ele>
        <time>2011-12-24T09:33:44.000Z</time>
      </trkpt>
      <trkpt lat="43.2136000" lon="-1.5432260">
        <ele>609.181030</ele>
        <time>2011-12-24T09:33:39.000Z</time>
      </trkpt>
      <trkpt lat="43.2136170" lon="-1.5423640">
        <ele>609.606995</ele>
        <time>2011-12-24T09:33:27.000Z</time>
      </trkpt>
      <trkpt lat="43.2136600" lon="-1.5418580">
        <ele>611.127014</ele>
        <time>2011-12-24T09:33:22.000Z</time>
      </trkpt>
      <trkpt lat="43.2136290" lon="-1.5414940">
        <ele>613.060974</ele>
        <time>2011-12-24T09:33:18.000Z</time>
      </trkpt>
      <trkpt lat="43.2135360" lon="-1.5412870">
        <ele>614.976990</ele>
        <time>2011-12-24T09:33:15.000Z</time>
      </trkpt>
      <trkpt lat="43.2133630" lon="-1.5410800">
        <ele>614.414978</ele>
        <time>2011-12-24T09:33:10.000Z</time>
      </trkpt>
      <trkpt lat="43.2132710" lon="-1.5410560">
        <ele>614.986023</ele>
        <time>2011-12-24T09:33:08.000Z</time>
      </trkpt>
      <trkpt lat="43.2129840" lon="-1.5410100">
        <ele>616.888000</ele>
        <time>2011-12-24T09:33:03.000Z</time>
      </trkpt>
      <trkpt lat="43.2125590" lon="-1.5409410">
        <ele>618.880981</ele>
        <time>2011-12-24T09:32:56.000Z</time>
      </trkpt>
      <trkpt lat="43.2124380" lon="-1.5407430">
        <ele>620.263977</ele>
        <time>2011-12-24T09:32:52.000Z</time>
      </trkpt>
      <trkpt lat="43.2124630" lon="-1.5405770">
        <ele>620.252014</ele>
        <time>2011-12-24T09:32:50.000Z</time>
      </trkpt>
      <trkpt lat="43.2124440" lon="-1.5402250">
        <ele>622.119995</ele>
        <time>2011-12-24T09:32:46.000Z</time>
      </trkpt>
      <trkpt lat="43.2123100" lon="-1.5396380">
        <ele>625.506958</ele>
        <time>2011-12-24T09:32:37.000Z</time>
      </trkpt>
      <trkpt lat="43.2122860" lon="-1.5395220">
        <ele>626.423950</ele>
        <time>2011-12-24T09:32:35.000Z</time>
      </trkpt>
      <trkpt lat="43.2122410" lon="-1.5392760">
        <ele>628.403992</ele>
        <time>2011-12-24T09:32:31.000Z</time>
      </trkpt>
      <trkpt lat="43.2122360" lon="-1.5390500">
        <ele>631.268982</ele>
        <time>2011-12-24T09:32:27.000Z</time>
      </trkpt>
      <trkpt lat="43.2121660" lon="-1.5389080">
        <ele>633.256958</ele>
        <time>2011-12-24T09:32:23.000Z</time>
      </trkpt>
      <trkpt lat="43.2121520" lon="-1.5388770">
        <ele>633.778015</ele>
        <time>2011-12-24T09:32:22.000Z</time>
      </trkpt>
      <trkpt lat="43.2120630" lon="-1.5386330">
        <ele>637.579956</ele>
        <time>2011-12-24T09:32:11.000Z</time>
      </trkpt>
      <trkpt lat="43.2120640" lon="-1.5386330">
        <ele>636.562988</ele>
        <time>2011-12-24T09:30:52.000Z</time>
      </trkpt>
      <trkpt lat="43.2119970" lon="-1.5385990">
        <ele>637.096008</ele>
        <time>2011-12-24T09:30:43.000Z</time>
      </trkpt>
      <trkpt lat="43.2119320" lon="-1.5385850">
        <ele>638.523987</ele>
        <time>2011-12-24T09:30:41.000Z</time>
      </trkpt>
      <trkpt lat="43.2118320" lon="-1.5385760">
        <ele>640.452026</ele>
        <time>2011-12-24T09:30:38.000Z</time>
      </trkpt>
      <trkpt lat="43.2116870" lon="-1.5385440">
        <ele>643.707031</ele>
        <time>2011-12-24T09:30:32.000Z</time>
      </trkpt>
      <trkpt lat="43.2116770" lon="-1.5385460">
        <ele>644.725952</ele>
        <time>2011-12-24T09:30:29.000Z</time>
      </trkpt>
      <trkpt lat="43.2116510" lon="-1.5385300">
        <ele>646.123962</ele>
        <time>2011-12-24T09:30:26.000Z</time>
      </trkpt>
      <trkpt lat="43.2115870" lon="-1.5384920">
        <ele>648.187988</ele>
        <time>2011-12-24T09:30:23.000Z</time>
      </trkpt>
      <trkpt lat="43.2115650" lon="-1.5385020">
        <ele>648.624023</ele>
        <time>2011-12-24T09:30:22.000Z</time>
      </trkpt>
      <trkpt lat="43.2114890" lon="-1.5385090">
        <ele>650.554993</ele>
        <time>2011-12-24T09:30:19.000Z</time>
      </trkpt>
      <trkpt lat="43.2114100" lon="-1.5385550">
        <ele>652.927002</ele>
        <time>2011-12-24T09:30:15.000Z</time>
      </trkpt>
      <trkpt lat="43.2112800" lon="-1.5385380">
        <ele>656.269958</ele>
        <time>2011-12-24T09:30:10.000Z</time>
      </trkpt>
      <trkpt lat="43.2111620" lon="-1.5384950">
        <ele>659.682983</ele>
        <time>2011-12-24T09:30:06.000Z</time>
      </trkpt>
      <trkpt lat="43.2110760" lon="-1.5384120">
        <ele>662.020996</ele>
        <time>2011-12-24T09:30:03.000Z</time>
      </trkpt>
      <trkpt lat="43.2109750" lon="-1.5383050">
        <ele>665.419006</ele>
        <time>2011-12-24T09:30:00.000Z</time>
      </trkpt>
      <trkpt lat="43.2108940" lon="-1.5381570">
        <ele>669.207031</ele>
        <time>2011-12-24T09:29:56.000Z</time>
      </trkpt>
      <trkpt lat="43.2107910" lon="-1.5380400">
        <ele>672.613953</ele>
        <time>2011-12-24T09:29:51.000Z</time>
      </trkpt>
      <trkpt lat="43.2107600" lon="-1.5380120">
        <ele>674.059021</ele>
        <time>2011-12-24T09:29:49.000Z</time>
      </trkpt>
      <trkpt lat="43.2106970" lon="-1.5379770">
        <ele>675.955994</ele>
        <time>2011-12-24T09:29:45.000Z</time>
      </trkpt>
      <trkpt lat="43.2106230" lon="-1.5379250">
        <ele>678.434998</ele>
        <time>2011-12-24T09:29:41.000Z</time>
      </trkpt>
      <trkpt lat="43.2105730" lon="-1.5378850">
        <ele>679.346008</ele>
        <time>2011-12-24T09:29:39.000Z</time>
      </trkpt>
      <trkpt lat="43.2104650" lon="-1.5376950">
        <ele>682.788025</ele>
        <time>2011-12-24T09:29:33.000Z</time>
      </trkpt>
      <trkpt lat="43.2102970" lon="-1.5374520">
        <ele>684.180969</ele>
        <time>2011-12-24T09:29:27.000Z</time>
      </trkpt>
      <trkpt lat="43.2101170" lon="-1.5372930">
        <ele>686.093994</ele>
        <time>2011-12-24T09:29:22.000Z</time>
      </trkpt>
      <trkpt lat="43.2100210" lon="-1.5371220">
        <ele>687.552002</ele>
        <time>2011-12-24T09:29:18.000Z</time>
      </trkpt>
      <trkpt lat="43.2099220" lon="-1.5369430">
        <ele>689.970032</ele>
        <time>2011-12-24T09:29:13.000Z</time>
      </trkpt>
      <trkpt lat="43.2097960" lon="-1.5366430">
        <ele>692.807007</ele>
        <time>2011-12-24T09:29:04.000Z</time>
      </trkpt>
      <trkpt lat="43.2097140" lon="-1.5362410">
        <ele>696.123962</ele>
        <time>2011-12-24T09:28:50.000Z</time>
      </trkpt>
      <trkpt lat="43.2096760" lon="-1.5359170">
        <ele>699.004028</ele>
        <time>2011-12-24T09:28:41.000Z</time>
      </trkpt>
      <trkpt lat="43.2096530" lon="-1.5357450">
        <ele>700.968994</ele>
        <time>2011-12-24T09:28:37.000Z</time>
      </trkpt>
      <trkpt lat="43.2096420" lon="-1.5356900">
        <ele>700.985962</ele>
        <time>2011-12-24T09:28:36.000Z</time>
      </trkpt>
      <trkpt lat="43.2096100" lon="-1.5354580">
        <ele>703.846985</ele>
        <time>2011-12-24T09:28:32.000Z</time>
      </trkpt>
      <trkpt lat="43.2096180" lon="-1.5351280">
        <ele>705.828979</ele>
        <time>2011-12-24T09:28:27.000Z</time>
      </trkpt>
      <trkpt lat="43.2095940" lon="-1.5347910">
        <ele>707.261963</ele>
        <time>2011-12-24T09:28:21.000Z</time>
      </trkpt>
      <trkpt lat="43.2095520" lon="-1.5342760">
        <ele>706.284973</ele>
        <time>2011-12-24T09:28:10.000Z</time>
      </trkpt>
      <trkpt lat="43.2094830" lon="-1.5341520">
        <ele>705.383057</ele>
        <time>2011-12-24T09:28:07.000Z</time>
      </trkpt>
      <trkpt lat="43.2090420" lon="-1.5335600">
        <ele>703.891052</ele>
        <time>2011-12-24T09:27:54.000Z</time>
      </trkpt>
      <trkpt lat="43.2088490" lon="-1.5332410">
        <ele>705.307007</ele>
        <time>2011-12-24T09:27:48.000Z</time>
      </trkpt>
      <trkpt lat="43.2087570" lon="-1.5330850">
        <ele>705.315002</ele>
        <time>2011-12-24T09:27:45.000Z</time>
      </trkpt>
      <trkpt lat="43.2084650" lon="-1.5326680">
        <ele>703.341003</ele>
        <time>2011-12-24T09:27:38.000Z</time>
      </trkpt>
      <trkpt lat="43.2082820" lon="-1.5322050">
        <ele>707.770996</ele>
        <time>2011-12-24T09:27:34.000Z</time>
      </trkpt>
      <trkpt lat="43.2081430" lon="-1.5316240">
        <ele>711.041016</ele>
        <time>2011-12-24T09:27:29.000Z</time>
      </trkpt>
      <trkpt lat="43.2081220" lon="-1.5312020">
        <ele>715.471985</ele>
        <time>2011-12-24T09:27:25.000Z</time>
      </trkpt>
      <trkpt lat="43.2081380" lon="-1.5307710">
        <ele>718.244019</ele>
        <time>2011-12-24T09:27:21.000Z</time>
      </trkpt>
      <trkpt lat="43.2081320" lon="-1.5306590">
        <ele>719.747009</ele>
        <time>2011-12-24T09:27:20.000Z</time>
      </trkpt>
      <trkpt lat="43.2081140" lon="-1.5303070">
        <ele>724.520020</ele>
        <time>2011-12-24T09:27:16.000Z</time>
      </trkpt>
      <trkpt lat="43.2081050" lon="-1.5302380">
        <ele>725.558044</ele>
        <time>2011-12-24T09:27:15.000Z</time>
      </trkpt>
      <trkpt lat="43.2080870" lon="-1.5300400">
        <ele>727.486023</ele>
        <time>2011-12-24T09:27:12.000Z</time>
      </trkpt>
      <trkpt lat="43.2080800" lon="-1.5298370">
        <ele>725.907043</ele>
        <time>2011-12-24T09:27:08.000Z</time>
      </trkpt>
      <trkpt lat="43.2079070" lon="-1.5290190">
        <ele>726.416992</ele>
        <time>2011-12-24T09:26:51.000Z</time>
      </trkpt>
      <trkpt lat="43.2077110" lon="-1.5285080">
        <ele>728.389038</ele>
        <time>2011-12-24T09:26:38.000Z</time>
      </trkpt>
      <trkpt lat="43.2076590" lon="-1.5283700">
        <ele>727.427979</ele>
        <time>2011-12-24T09:26:33.000Z</time>
      </trkpt>
      <trkpt lat="43.2076070" lon="-1.5277800">
        <ele>756.848999</ele>
        <time>2018-08-23T12:02:50.000Z</time>
      </trkpt>
      <trkpt lat="43.2075440" lon="-1.5282850">
        <ele>755.837036</ele>
        <time>2018-08-23T12:02:34.000Z</time>
      </trkpt>
      <trkpt lat="43.2073730" lon="-1.5289100">
        <ele>756.982056</ele>
        <time>2018-08-23T12:02:21.000Z</time>
      </trkpt>
      <trkpt lat="43.2069930" lon="-1.5296540">
        <ele>763.773010</ele>
        <time>2018-08-23T12:02:06.000Z</time>
      </trkpt>
      <trkpt lat="43.2068370" lon="-1.5304900">
        <ele>769.147034</ele>
        <time>2018-08-23T12:01:52.000Z</time>
      </trkpt>
      <trkpt lat="43.2067480" lon="-1.5306220">
        <ele>769.669983</ele>
        <time>2018-08-23T12:01:49.000Z</time>
      </trkpt>
      <trkpt lat="43.2061910" lon="-1.5315020">
        <ele>777.979004</ele>
        <time>2018-08-23T12:01:30.000Z</time>
      </trkpt>
      <trkpt lat="43.2061600" lon="-1.5315340">
        <ele>778.171021</ele>
        <time>2018-08-23T12:01:29.000Z</time>
      </trkpt>
      <trkpt lat="43.2056920" lon="-1.5318890">
        <ele>784.679016</ele>
        <time>2018-08-23T12:01:14.000Z</time>
      </trkpt>
      <trkpt lat="43.2052780" lon="-1.5323060">
        <ele>789.833984</ele>
        <time>2018-08-23T12:00:59.000Z</time>
      </trkpt>
      <trkpt lat="43.2048830" lon="-1.5328150">
        <ele>796.307983</ele>
        <time>2018-08-23T12:00:43.000Z</time>
      </trkpt>
      <trkpt lat="43.2045950" lon="-1.5331910">
        <ele>801.007996</ele>
        <time>2018-08-23T12:00:27.000Z</time>
      </trkpt>
      <trkpt lat="43.2044070" lon="-1.5335960">
        <ele>802.361938</ele>
        <time>2018-08-23T12:00:11.000Z</time>
      </trkpt>
      <trkpt lat="43.2040450" lon="-1.5339800">
        <ele>801.421936</ele>
        <time>2018-08-23T11:59:52.000Z</time>
      </trkpt>
      <trkpt lat="43.2035830" lon="-1.5347400">
        <ele>802.653992</ele>
        <time>2018-08-23T11:59:34.000Z</time>
      </trkpt>
      <trkpt lat="43.2034130" lon="-1.5349620">
        <ele>804.574951</ele>
        <time>2018-08-23T11:59:19.000Z</time>
      </trkpt>
      <trkpt lat="43.2032070" lon="-1.5350540">
        <ele>804.968994</ele>
        <time>2018-08-23T11:59:03.000Z</time>
      </trkpt>
      <trkpt lat="43.2030590" lon="-1.5350680">
        <ele>804.551941</ele>
        <time>2018-08-23T11:57:48.000Z</time>
      </trkpt>
      <trkpt lat="43.2029810" lon="-1.5350360">
        <ele>804.690979</ele>
        <time>2018-08-23T11:57:32.000Z</time>
      </trkpt>
      <trkpt lat="43.2025940" lon="-1.5349450">
        <ele>804.222961</ele>
        <time>2018-08-23T11:57:13.000Z</time>
      </trkpt>
      <trkpt lat="43.2022860" lon="-1.5349320">
        <ele>803.261047</ele>
        <time>2018-08-23T11:56:57.000Z</time>
      </trkpt>
      <trkpt lat="43.2017610" lon="-1.5348030">
        <ele>801.895996</ele>
        <time>2018-08-23T11:56:32.000Z</time>
      </trkpt>
      <trkpt lat="43.2012890" lon="-1.5345010">
        <ele>801.907959</ele>
        <time>2018-08-23T11:56:10.000Z</time>
      </trkpt>
      <trkpt lat="43.2009820" lon="-1.5343470">
        <ele>800.921997</ele>
        <time>2018-08-23T11:55:53.000Z</time>
      </trkpt>
      <trkpt lat="43.2006270" lon="-1.5343790">
        <ele>798.701965</ele>
        <time>2018-08-23T11:55:35.000Z</time>
      </trkpt>
      <trkpt lat="43.2002850" lon="-1.5344280">
        <ele>797.448975</ele>
        <time>2018-08-23T11:55:15.000Z</time>
      </trkpt>
      <trkpt lat="43.2000810" lon="-1.5344180">
        <ele>796.794006</ele>
        <time>2018-08-23T11:54:54.000Z</time>
      </trkpt>
      <trkpt lat="43.1999260" lon="-1.5343550">
        <ele>796.775024</ele>
        <time>2018-08-23T11:54:42.000Z</time>
      </trkpt>
      <trkpt lat="43.1996570" lon="-1.5343220">
        <ele>794.668945</ele>
        <time>2018-08-23T11:54:25.000Z</time>
      </trkpt>
      <trkpt lat="43.1993550" lon="-1.5342030">
        <ele>792.661987</ele>
        <time>2018-08-23T11:54:05.000Z</time>
      </trkpt>
      <trkpt lat="43.1990890" lon="-1.5341450">
        <ele>790.781006</ele>
        <time>2018-08-23T11:53:50.000Z</time>
      </trkpt>
      <trkpt lat="43.1988800" lon="-1.5341340">
        <ele>789.263000</ele>
        <time>2018-08-23T11:53:36.000Z</time>
      </trkpt>
      <trkpt lat="43.1986490" lon="-1.5340300">
        <ele>787.020996</ele>
        <time>2018-08-23T11:53:17.000Z</time>
      </trkpt>
      <trkpt lat="43.1982780" lon="-1.5339920">
        <ele>785.315979</ele>
        <time>2018-08-23T11:53:04.000Z</time>
      </trkpt>
      <trkpt lat="43.1976540" lon="-1.5341000">
        <ele>788.307983</ele>
        <time>2018-08-23T11:52:47.000Z</time>
      </trkpt>
      <trkpt lat="43.1974290" lon="-1.5341000">
        <ele>789.609009</ele>
        <time>2018-08-23T11:52:42.000Z</time>
      </trkpt>
      <trkpt lat="43.1967340" lon="-1.5341360">
        <ele>792.381042</ele>
        <time>2018-08-23T11:52:25.000Z</time>
      </trkpt>
      <trkpt lat="43.1960170" lon="-1.5342130">
        <ele>798.240967</ele>
        <time>2018-08-23T11:52:07.000Z</time>
      </trkpt>
      <trkpt lat="43.1953510" lon="-1.5341370">
        <ele>802.257996</ele>
        <time>2018-08-23T11:51:50.000Z</time>
      </trkpt>
      <trkpt lat="43.1951910" lon="-1.5340720">
        <ele>803.798950</ele>
        <time>2018-08-23T11:51:46.000Z</time>
      </trkpt>
      <trkpt lat="43.1947020" lon="-1.5339930">
        <ele>806.052979</ele>
        <time>2018-08-23T11:51:34.000Z</time>
      </trkpt>
      <trkpt lat="43.1940480" lon="-1.5341470">
        <ele>809.635986</ele>
        <time>2018-08-23T11:51:16.000Z</time>
      </trkpt>
      <trkpt lat="43.1935660" lon="-1.5343920">
        <ele>814.184998</ele>
        <time>2018-08-23T11:51:01.000Z</time>
      </trkpt>
      <trkpt lat="43.1932020" lon="-1.5344530">
        <ele>819.827026</ele>
        <time>2018-08-23T11:50:47.000Z</time>
      </trkpt>
      <trkpt lat="43.1929740" lon="-1.5346710">
        <ele>815.234985</ele>
        <time>2018-08-23T11:50:27.000Z</time>
      </trkpt>
      <trkpt lat="43.1927700" lon="-1.5348850">
        <ele>813.779968</ele>
        <time>2018-08-23T11:50:08.000Z</time>
      </trkpt>
      <trkpt lat="43.1925250" lon="-1.5351110">
        <ele>810.208008</ele>
        <time>2018-08-23T11:49:46.000Z</time>
      </trkpt>
      <trkpt lat="43.1923950" lon="-1.5352650">
        <ele>806.526001</ele>
        <time>2018-08-23T11:49:28.000Z</time>
      </trkpt>
      <trkpt lat="43.1923420" lon="-1.5353290">
        <ele>805.059998</ele>
        <time>2018-08-23T11:47:36.000Z</time>
      </trkpt>
      <trkpt lat="43.1922150" lon="-1.5354410">
        <ele>804.485962</ele>
        <time>2018-08-23T11:47:10.000Z</time>
      </trkpt>
      <trkpt lat="43.1920650" lon="-1.5355740">
        <ele>800.088013</ele>
        <time>2018-08-23T11:46:48.000Z</time>
      </trkpt>
      <trkpt lat="43.1920280" lon="-1.5356330">
        <ele>798.619019</ele>
        <time>2018-08-23T11:46:30.000Z</time>
      </trkpt>
      <trkpt lat="43.1919320" lon="-1.5358020">
        <ele>796.153015</ele>
        <time>2018-08-23T11:46:13.000Z</time>
      </trkpt>
      <trkpt lat="43.1917250" lon="-1.5360800">
        <ele>793.776001</ele>
        <time>2018-08-23T11:45:55.000Z</time>
      </trkpt>
      <trkpt lat="43.1914390" lon="-1.5364330">
        <ele>796.155029</ele>
        <time>2018-08-23T11:45:39.000Z</time>
      </trkpt>
      <trkpt lat="43.1912910" lon="-1.5366010">
        <ele>797.127014</ele>
        <time>2018-08-23T11:45:28.000Z</time>
      </trkpt>
      <trkpt lat="43.1910660" lon="-1.5370520">
        <ele>797.375061</ele>
        <time>2018-08-23T11:45:09.000Z</time>
      </trkpt>
      <trkpt lat="43.1909690" lon="-1.5375400">
        <ele>795.940002</ele>
        <time>2018-08-23T11:44:48.000Z</time>
      </trkpt>
      <trkpt lat="43.1908240" lon="-1.5379180">
        <ele>795.308044</ele>
        <time>2018-08-23T11:44:34.000Z</time>
      </trkpt>
      <trkpt lat="43.1907250" lon="-1.5380550">
        <ele>794.216980</ele>
        <time>2018-08-23T11:44:27.000Z</time>
      </trkpt>
      <trkpt lat="43.1907820" lon="-1.5384260">
        <ele>792.206970</ele>
        <time>2018-08-23T11:44:14.000Z</time>
      </trkpt>
      <trkpt lat="43.1909040" lon="-1.5391720">
        <ele>793.583984</ele>
        <time>2018-08-23T11:44:01.000Z</time>
      </trkpt>
      <trkpt lat="43.1909420" lon="-1.5396390">
        <ele>794.631958</ele>
        <time>2018-08-23T11:43:47.000Z</time>
      </trkpt>
      <trkpt lat="43.1907600" lon="-1.5399660">
        <ele>793.593018</ele>
        <time>2018-08-23T11:43:26.000Z</time>
      </trkpt>
      <trkpt lat="43.1905210" lon="-1.5402170">
        <ele>791.487000</ele>
        <time>2018-08-23T11:43:03.000Z</time>
      </trkpt>
      <trkpt lat="43.1902310" lon="-1.5404090">
        <ele>789.320007</ele>
        <time>2018-08-23T11:42:40.000Z</time>
      </trkpt>
      <trkpt lat="43.1899820" lon="-1.5405600">
        <ele>787.079041</ele>
        <time>2018-08-23T11:42:17.000Z</time>
      </trkpt>
      <trkpt lat="43.1897230" lon="-1.5407320">
        <ele>783.911011</ele>
        <time>2018-08-23T11:41:56.000Z</time>
      </trkpt>
      <trkpt lat="43.1893660" lon="-1.5408680">
        <ele>783.238953</ele>
        <time>2018-08-23T11:41:30.000Z</time>
      </trkpt>
      <trkpt lat="43.1891250" lon="-1.5411660">
        <ele>778.374023</ele>
        <time>2018-08-23T11:41:04.000Z</time>
      </trkpt>
      <trkpt lat="43.1889600" lon="-1.5414970">
        <ele>773.407959</ele>
        <time>2018-08-23T11:40:41.000Z</time>
      </trkpt>
      <trkpt lat="43.1887710" lon="-1.5418620">
        <ele>770.320007</ele>
        <time>2018-08-23T11:40:17.000Z</time>
      </trkpt>
      <trkpt lat="43.1886730" lon="-1.5422000">
        <ele>767.299988</ele>
        <time>2018-08-23T11:39:57.000Z</time>
      </trkpt>
      <trkpt lat="43.1886240" lon="-1.5424890">
        <ele>767.729004</ele>
        <time>2018-08-23T11:39:40.000Z</time>
      </trkpt>
      <trkpt lat="43.1886220" lon="-1.5425030">
        <ele>767.778015</ele>
        <time>2018-08-23T11:39:33.000Z</time>
      </trkpt>
      <trkpt lat="43.1886160" lon="-1.5425260">
        <ele>767.739014</ele>
        <time>2018-08-23T11:39:06.000Z</time>
      </trkpt>
      <trkpt lat="43.1885430" lon="-1.5427430">
        <ele>765.273010</ele>
        <time>2018-08-23T11:38:48.000Z</time>
      </trkpt>
      <trkpt lat="43.1885470" lon="-1.5427750">
        <ele>765.125977</ele>
        <time>2018-08-23T11:37:50.000Z</time>
      </trkpt>
      <trkpt lat="43.1886390" lon="-1.5425340">
        <ele>767.074951</ele>
        <time>2018-08-23T11:37:37.000Z</time>
      </trkpt>
      <trkpt lat="43.1886380" lon="-1.5425160">
        <ele>767.267029</ele>
        <time>2018-08-23T11:35:20.000Z</time>
      </trkpt>
      <trkpt lat="43.1885850" lon="-1.5426260">
        <ele>766.734985</ele>
        <time>2018-08-23T11:35:03.000Z</time>
      </trkpt>
      <trkpt lat="43.1885410" lon="-1.5428010">
        <ele>764.919983</ele>
        <time>2018-08-23T11:34:51.000Z</time>
      </trkpt>
      <trkpt lat="43.1885430" lon="-1.5428580">
        <ele>764.607971</ele>
        <time>2018-08-23T11:34:48.000Z</time>
      </trkpt>
      <trkpt lat="43.1885130" lon="-1.5432750">
        <ele>761.226013</ele>
        <time>2018-08-23T11:34:25.000Z</time>
      </trkpt>
      <trkpt lat="43.1885070" lon="-1.5436710">
        <ele>756.641968</ele>
        <time>2018-08-23T11:34:04.000Z</time>
      </trkpt>
      <trkpt lat="43.1884810" lon="-1.5437180">
        <ele>756.187012</ele>
        <time>2018-08-23T11:34:01.000Z</time>
      </trkpt>
      <trkpt lat="43.1884780" lon="-1.5439590">
        <ele>753.115051</ele>
        <time>2018-08-23T11:33:48.000Z</time>
      </trkpt>
      <trkpt lat="43.1884690" lon="-1.5440220">
        <ele>752.436035</ele>
        <time>2018-08-23T11:33:45.000Z</time>
      </trkpt>
      <trkpt lat="43.1884490" lon="-1.5443430">
        <ele>748.589966</ele>
        <time>2018-08-23T11:33:27.000Z</time>
      </trkpt>
      <trkpt lat="43.1884010" lon="-1.5446800">
        <ele>743.723022</ele>
        <time>2018-08-23T11:33:07.000Z</time>
      </trkpt>
      <trkpt lat="43.1883750" lon="-1.5449770">
        <ele>739.582031</ele>
        <time>2018-08-23T11:32:52.000Z</time>
      </trkpt>
      <trkpt lat="43.1883420" lon="-1.5453140">
        <ele>737.253967</ele>
        <time>2018-08-23T11:32:34.000Z</time>
      </trkpt>
      <trkpt lat="43.1882900" lon="-1.5457970">
        <ele>734.862000</ele>
        <time>2018-08-23T11:32:12.000Z</time>
      </trkpt>
      <trkpt lat="43.1882300" lon="-1.5462100">
        <ele>734.337036</ele>
        <time>2018-08-23T11:31:52.000Z</time>
      </trkpt>
      <trkpt lat="43.1880570" lon="-1.5465190">
        <ele>731.107971</ele>
        <time>2018-08-23T11:31:33.000Z</time>
      </trkpt>
      <trkpt lat="43.1878230" lon="-1.5467800">
        <ele>728.310974</ele>
        <time>2018-08-23T11:31:16.000Z</time>
      </trkpt>
      <trkpt lat="43.1876600" lon="-1.5470130">
        <ele>727.055969</ele>
        <time>2018-08-23T11:30:21.000Z</time>
      </trkpt>
      <trkpt lat="43.1875950" lon="-1.5470890">
        <ele>726.653992</ele>
        <time>2018-08-23T11:29:37.000Z</time>
      </trkpt>
      <trkpt lat="43.1875750" lon="-1.5471250">
        <ele>726.356995</ele>
        <time>2018-08-23T11:29:14.000Z</time>
      </trkpt>
      <trkpt lat="43.1874510" lon="-1.5474570">
        <ele>723.328003</ele>
        <time>2018-08-23T11:28:47.000Z</time>
      </trkpt>
      <trkpt lat="43.1873440" lon="-1.5478080">
        <ele>718.091980</ele>
        <time>2018-08-23T11:28:17.000Z</time>
      </trkpt>
      <trkpt lat="43.1872710" lon="-1.5480460">
        <ele>714.875000</ele>
        <time>2018-08-23T11:27:55.000Z</time>
      </trkpt>
      <trkpt lat="43.1872270" lon="-1.5481840">
        <ele>713.184021</ele>
        <time>2018-08-23T11:27:42.000Z</time>
      </trkpt>
      <trkpt lat="43.1871810" lon="-1.5483620">
        <ele>710.265991</ele>
        <time>2018-08-23T11:27:07.000Z</time>
      </trkpt>
      <trkpt lat="43.1871290" lon="-1.5484800">
        <ele>707.994019</ele>
        <time>2018-08-23T11:26:46.000Z</time>
      </trkpt>
      <trkpt lat="43.1871200" lon="-1.5484920">
        <ele>707.679016</ele>
        <time>2018-08-23T11:26:11.000Z</time>
      </trkpt>
      <trkpt lat="43.1870270" lon="-1.5486490">
        <ele>704.608032</ele>
        <time>2018-08-23T11:25:47.000Z</time>
      </trkpt>
      <trkpt lat="43.1869340" lon="-1.5488950">
        <ele>700.820007</ele>
        <time>2018-08-23T11:25:21.000Z</time>
      </trkpt>
      <trkpt lat="43.1868950" lon="-1.5490060">
        <ele>698.427979</ele>
        <time>2018-08-23T11:23:59.000Z</time>
      </trkpt>
      <trkpt lat="43.1867640" lon="-1.5492480">
        <ele>693.175049</ele>
        <time>2018-08-23T11:23:31.000Z</time>
      </trkpt>
      <trkpt lat="43.1867020" lon="-1.5493780">
        <ele>690.477966</ele>
        <time>2018-08-23T11:23:07.000Z</time>
      </trkpt>
      <trkpt lat="43.1866810" lon="-1.5494520">
        <ele>688.968994</ele>
        <time>2018-08-23T11:22:46.000Z</time>
      </trkpt>
      <trkpt lat="43.1866750" lon="-1.5494880">
        <ele>688.133057</ele>
        <time>2018-08-23T11:22:31.000Z</time>
      </trkpt>
      <trkpt lat="43.1866350" lon="-1.5496020">
        <ele>685.126038</ele>
        <time>2018-08-23T11:22:08.000Z</time>
      </trkpt>
      <trkpt lat="43.1865590" lon="-1.5497370">
        <ele>681.244995</ele>
        <time>2018-08-23T11:20:55.000Z</time>
      </trkpt>
      <trkpt lat="43.1865450" lon="-1.5498400">
        <ele>679.156982</ele>
        <time>2018-08-23T11:20:38.000Z</time>
      </trkpt>
      <trkpt lat="43.1865050" lon="-1.5500300">
        <ele>675.385010</ele>
        <time>2018-08-23T11:20:18.000Z</time>
      </trkpt>
      <trkpt lat="43.1863450" lon="-1.5505210">
        <ele>668.190002</ele>
        <time>2018-08-23T11:07:38.000Z</time>
      </trkpt>
      <trkpt lat="43.1861760" lon="-1.5508380">
        <ele>665.508057</ele>
        <time>2018-08-23T11:07:18.000Z</time>
      </trkpt>
      <trkpt lat="43.1859120" lon="-1.5512100">
        <ele>665.117004</ele>
        <time>2018-08-23T11:07:00.000Z</time>
      </trkpt>
      <trkpt lat="43.1856560" lon="-1.5515260">
        <ele>665.842957</ele>
        <time>2018-08-23T11:06:40.000Z</time>
      </trkpt>
      <trkpt lat="43.1853350" lon="-1.5517940">
        <ele>663.281982</ele>
        <time>2018-08-23T11:06:18.000Z</time>
      </trkpt>
      <trkpt lat="43.1850820" lon="-1.5521360">
        <ele>660.549011</ele>
        <time>2018-08-23T11:05:55.000Z</time>
      </trkpt>
      <trkpt lat="43.1849050" lon="-1.5524420">
        <ele>656.210022</ele>
        <time>2018-08-23T11:05:36.000Z</time>
      </trkpt>
      <trkpt lat="43.1847950" lon="-1.5525980">
        <ele>654.923950</ele>
        <time>2018-08-23T11:05:27.000Z</time>
      </trkpt>
      <trkpt lat="43.1847670" lon="-1.5526290">
        <ele>654.937012</ele>
        <time>2018-08-23T11:05:25.000Z</time>
      </trkpt>
      <trkpt lat="43.1845690" lon="-1.5527770">
        <ele>654.776062</ele>
        <time>2018-08-23T11:05:12.000Z</time>
      </trkpt>
      <trkpt lat="43.1843510" lon="-1.5528630">
        <ele>651.938049</ele>
        <time>2018-08-23T11:04:58.000Z</time>
      </trkpt>
      <trkpt lat="43.1840150" lon="-1.5529930">
        <ele>647.556030</ele>
        <time>2018-08-23T11:04:34.000Z</time>
      </trkpt>
      <trkpt lat="43.1838380" lon="-1.5531530">
        <ele>645.060974</ele>
        <time>2018-08-23T11:04:20.000Z</time>
      </trkpt>
      <trkpt lat="43.1836700" lon="-1.5534810">
        <ele>641.608032</ele>
        <time>2018-08-23T11:04:04.000Z</time>
      </trkpt>
      <trkpt lat="43.1835350" lon="-1.5539860">
        <ele>636.824951</ele>
        <time>2018-08-23T11:03:44.000Z</time>
      </trkpt>
      <trkpt lat="43.1833460" lon="-1.5543780">
        <ele>636.222961</ele>
        <time>2018-08-23T11:03:29.000Z</time>
      </trkpt>
      <trkpt lat="43.1832270" lon="-1.5544750">
        <ele>637.896973</ele>
        <time>2018-08-23T11:03:25.000Z</time>
      </trkpt>
      <trkpt lat="43.1830780" lon="-1.5547190">
        <ele>640.652039</ele>
        <time>2018-08-23T11:03:18.000Z</time>
      </trkpt>
      <trkpt lat="43.1828090" lon="-1.5551280">
        <ele>646.372986</ele>
        <time>2018-08-23T11:03:06.000Z</time>
      </trkpt>
      <trkpt lat="43.1825560" lon="-1.5557200">
        <ele>653.636963</ele>
        <time>2018-08-23T11:02:52.000Z</time>
      </trkpt>
      <trkpt lat="43.1822750" lon="-1.5561580">
        <ele>660.010010</ele>
        <time>2018-08-23T11:02:36.000Z</time>
      </trkpt>
      <trkpt lat="43.1822290" lon="-1.5562690">
        <ele>660.138977</ele>
        <time>2018-08-23T11:02:32.000Z</time>
      </trkpt>
      <trkpt lat="43.1821150" lon="-1.5563870">
        <ele>660.210999</ele>
        <time>2018-08-23T11:02:26.000Z</time>
      </trkpt>
      <trkpt lat="43.1819080" lon="-1.5565010">
        <ele>659.389038</ele>
        <time>2018-08-23T11:02:14.000Z</time>
      </trkpt>
      <trkpt lat="43.1816930" lon="-1.5565560">
        <ele>657.354004</ele>
        <time>2018-08-23T11:02:02.000Z</time>
      </trkpt>
      <trkpt lat="43.1813880" lon="-1.5565730">
        <ele>655.708008</ele>
        <time>2018-08-23T11:01:50.000Z</time>
      </trkpt>
      <trkpt lat="43.1812930" lon="-1.5567440">
        <ele>656.408020</ele>
        <time>2018-08-23T11:01:46.000Z</time>
      </trkpt>
      <trkpt lat="43.1810650" lon="-1.5571260">
        <ele>660.462036</ele>
        <time>2018-08-23T11:01:37.000Z</time>
      </trkpt>
      <trkpt lat="43.1808530" lon="-1.5575340">
        <ele>663.822021</ele>
        <time>2018-08-23T11:01:26.000Z</time>
      </trkpt>
      <trkpt lat="43.1805510" lon="-1.5577450">
        <ele>663.612976</ele>
        <time>2018-08-23T11:01:12.000Z</time>
      </trkpt>
      <trkpt lat="43.1803130" lon="-1.5578810">
        <ele>662.623962</ele>
        <time>2018-08-23T11:01:02.000Z</time>
      </trkpt>
      <trkpt lat="43.1800360" lon="-1.5580020">
        <ele>662.677979</ele>
        <time>2018-08-23T11:00:52.000Z</time>
      </trkpt>
      <trkpt lat="43.1797800" lon="-1.5583350">
        <ele>664.431030</ele>
        <time>2018-08-23T11:00:42.000Z</time>
      </trkpt>
      <trkpt lat="43.1796480" lon="-1.5586320">
        <ele>665.450012</ele>
        <time>2018-08-23T11:00:35.000Z</time>
      </trkpt>
      <trkpt lat="43.1792830" lon="-1.5590410">
        <ele>667.851990</ele>
        <time>2018-08-23T11:00:22.000Z</time>
      </trkpt>
      <trkpt lat="43.1790050" lon="-1.5595520">
        <ele>673.420044</ele>
        <time>2018-08-23T11:00:10.000Z</time>
      </trkpt>
      <trkpt lat="43.1787220" lon="-1.5602520">
        <ele>683.835022</ele>
        <time>2018-08-23T10:59:55.000Z</time>
      </trkpt>
      <trkpt lat="43.1783540" lon="-1.5608550">
        <ele>704.407959</ele>
        <time>2018-08-23T10:59:43.000Z</time>
      </trkpt>
      <trkpt lat="43.1783130" lon="-1.5609370">
        <ele>708.411011</ele>
        <time>2018-08-23T10:59:41.000Z</time>
      </trkpt>
      <trkpt lat="43.1781890" lon="-1.5613470">
        <ele>713.092041</ele>
        <time>2018-08-23T10:59:31.000Z</time>
      </trkpt>
      <trkpt lat="43.1779650" lon="-1.5617410">
        <ele>705.432007</ele>
        <time>2018-08-23T10:59:22.000Z</time>
      </trkpt>
      <trkpt lat="43.1776970" lon="-1.5620270">
        <ele>708.479004</ele>
        <time>2018-08-23T10:59:11.000Z</time>
      </trkpt>
      <trkpt lat="43.1772710" lon="-1.5621770">
        <ele>717.580017</ele>
        <time>2018-08-23T10:58:56.000Z</time>
      </trkpt>
      <trkpt lat="43.1771690" lon="-1.5621160">
        <ele>720.133972</ele>
        <time>2018-08-23T10:58:51.000Z</time>
      </trkpt>
      <trkpt lat="43.1771360" lon="-1.5620430">
        <ele>721.417053</ele>
        <time>2018-08-23T10:58:49.000Z</time>
      </trkpt>
      <trkpt lat="43.1770120" lon="-1.5618530">
        <ele>724.966003</ele>
        <time>2018-08-23T10:58:43.000Z</time>
      </trkpt>
      <trkpt lat="43.1768050" lon="-1.5614490">
        <ele>729.427979</ele>
        <time>2018-08-23T10:58:31.000Z</time>
      </trkpt>
      <trkpt lat="43.1766800" lon="-1.5613290">
        <ele>730.055969</ele>
        <time>2018-08-23T10:58:24.000Z</time>
      </trkpt>
      <trkpt lat="43.1766810" lon="-1.5613290">
        <ele>730.091003</ele>
        <time>2018-08-23T10:57:48.000Z</time>
      </trkpt>
      <trkpt lat="43.1765740" lon="-1.5612890">
        <ele>730.908020</ele>
        <time>2018-08-23T10:57:33.000Z</time>
      </trkpt>
      <trkpt lat="43.1764780" lon="-1.5611470">
        <ele>731.419006</ele>
        <time>2018-08-23T10:57:25.000Z</time>
      </trkpt>
      <trkpt lat="43.1763660" lon="-1.5610760">
        <ele>731.880981</ele>
        <time>2018-08-23T10:57:17.000Z</time>
      </trkpt>
      <trkpt lat="43.1763510" lon="-1.5610660">
        <ele>731.891052</ele>
        <time>2018-08-23T10:57:16.000Z</time>
      </trkpt>
      <trkpt lat="43.1761920" lon="-1.5609850">
        <ele>732.151001</ele>
        <time>2018-08-23T10:57:05.000Z</time>
      </trkpt>
      <trkpt lat="43.1760450" lon="-1.5609310">
        <ele>732.831970</ele>
        <time>2018-08-23T10:56:52.000Z</time>
      </trkpt>
      <trkpt lat="43.1760160" lon="-1.5609250">
        <ele>733.125977</ele>
        <time>2018-08-23T10:56:50.000Z</time>
      </trkpt>
      <trkpt lat="43.1759540" lon="-1.5609040">
        <ele>733.729004</ele>
        <time>2018-08-23T10:56:45.000Z</time>
      </trkpt>
      <trkpt lat="43.1759480" lon="-1.5608880">
        <ele>733.767944</ele>
        <time>2018-08-23T10:55:39.000Z</time>
      </trkpt>
      <trkpt lat="43.1759300" lon="-1.5608320">
        <ele>733.630005</ele>
        <time>2018-08-23T10:55:26.000Z</time>
      </trkpt>
      <trkpt lat="43.1759260" lon="-1.5607770">
        <ele>732.418030</ele>
        <time>2018-08-23T10:55:14.000Z</time>
      </trkpt>
      <trkpt lat="43.1759770" lon="-1.5608180">
        <ele>732.643005</ele>
        <time>2018-08-23T10:55:01.000Z</time>
      </trkpt>
      <trkpt lat="43.1759730" lon="-1.5607990">
        <ele>732.208008</ele>
        <time>2018-08-23T10:54:58.000Z</time>
      </trkpt>
      <trkpt lat="43.1758990" lon="-1.5607430">
        <ele>731.919006</ele>
        <time>2018-08-23T10:54:41.000Z</time>
      </trkpt>
      <trkpt lat="43.1756860" lon="-1.5606240">
        <ele>731.309021</ele>
        <time>2018-08-23T10:54:30.000Z</time>
      </trkpt>
      <trkpt lat="43.1754150" lon="-1.5604630">
        <ele>733.518982</ele>
        <time>2018-08-23T10:54:17.000Z</time>
      </trkpt>
      <trkpt lat="43.1752710" lon="-1.5603230">
        <ele>734.045044</ele>
        <time>2018-08-23T10:54:08.000Z</time>
      </trkpt>
      <trkpt lat="43.1750160" lon="-1.5601090">
        <ele>730.015991</ele>
        <time>2018-08-23T10:53:57.000Z</time>
      </trkpt>
      <trkpt lat="43.1746690" lon="-1.5599270">
        <ele>735.779968</ele>
        <time>2018-08-23T10:53:44.000Z</time>
      </trkpt>
      <trkpt lat="43.1744140" lon="-1.5597900">
        <ele>743.292969</ele>
        <time>2018-08-23T10:53:33.000Z</time>
      </trkpt>
      <trkpt lat="43.1743350" lon="-1.5596710">
        <ele>744.682007</ele>
        <time>2018-08-23T10:53:26.000Z</time>
      </trkpt>
      <trkpt lat="43.1743190" lon="-1.5595190">
        <ele>743.064026</ele>
        <time>2018-08-23T10:53:20.000Z</time>
      </trkpt>
      <trkpt lat="43.1742620" lon="-1.5593820">
        <ele>743.322021</ele>
        <time>2018-08-23T10:53:12.000Z</time>
      </trkpt>
      <trkpt lat="43.1742520" lon="-1.5593730">
        <ele>743.636963</ele>
        <time>2018-08-23T10:52:21.000Z</time>
      </trkpt>
      <trkpt lat="43.1742540" lon="-1.5594030">
        <ele>743.908020</ele>
        <time>2018-08-23T10:52:09.000Z</time>
      </trkpt>
      <trkpt lat="43.1742570" lon="-1.5594170">
        <ele>744.022949</ele>
        <time>2018-08-23T10:52:08.000Z</time>
      </trkpt>
      <trkpt lat="43.1742840" lon="-1.5594010">
        <ele>742.703003</ele>
        <time>2018-08-23T10:51:56.000Z</time>
      </trkpt>
      <trkpt lat="43.1742510" lon="-1.5593140">
        <ele>742.859009</ele>
        <time>2018-08-23T10:50:55.000Z</time>
      </trkpt>
      <trkpt lat="43.1741430" lon="-1.5591000">
        <ele>743.581970</ele>
        <time>2018-08-23T10:50:41.000Z</time>
      </trkpt>
      <trkpt lat="43.1740490" lon="-1.5590130">
        <ele>744.912964</ele>
        <time>2018-08-23T10:50:30.000Z</time>
      </trkpt>
      <trkpt lat="43.1738160" lon="-1.5589840">
        <ele>750.856995</ele>
        <time>2018-08-23T10:50:17.000Z</time>
      </trkpt>
      <trkpt lat="43.1736640" lon="-1.5591440">
        <ele>753.430054</ele>
        <time>2018-08-23T10:50:09.000Z</time>
      </trkpt>
      <trkpt lat="43.1735550" lon="-1.5595180">
        <ele>753.759033</ele>
        <time>2018-08-23T10:49:52.000Z</time>
      </trkpt>
      <trkpt lat="43.1735520" lon="-1.5596640">
        <ele>753.960999</ele>
        <time>2018-08-23T10:49:44.000Z</time>
      </trkpt>
      <trkpt lat="43.1734890" lon="-1.5599300">
        <ele>752.568970</ele>
        <time>2018-08-23T10:49:28.000Z</time>
      </trkpt>
      <trkpt lat="43.1733470" lon="-1.5603280">
        <ele>750.544006</ele>
        <time>2018-08-23T10:49:12.000Z</time>
      </trkpt>
      <trkpt lat="43.1731970" lon="-1.5606560">
        <ele>750.207947</ele>
        <time>2018-08-23T10:48:54.000Z</time>
      </trkpt>
      <trkpt lat="43.1729680" lon="-1.5608460">
        <ele>748.914001</ele>
        <time>2018-08-23T10:48:37.000Z</time>
      </trkpt>
      <trkpt lat="43.1728210" lon="-1.5611860">
        <ele>748.268005</ele>
        <time>2018-08-23T10:48:16.000Z</time>
      </trkpt>
      <trkpt lat="43.1726560" lon="-1.5613800">
        <ele>747.127014</ele>
        <time>2018-08-23T10:48:05.000Z</time>
      </trkpt>
      <trkpt lat="43.1723300" lon="-1.5614940">
        <ele>746.370972</ele>
        <time>2018-08-23T10:47:51.000Z</time>
      </trkpt>
      <trkpt lat="43.1723210" lon="-1.5614980">
        <ele>746.312012</ele>
        <time>2018-08-23T10:47:04.000Z</time>
      </trkpt>
      <trkpt lat="43.1722900" lon="-1.5615300">
        <ele>746.876038</ele>
        <time>2018-08-23T10:46:41.000Z</time>
      </trkpt>
      <trkpt lat="43.1722410" lon="-1.5615440">
        <ele>746.629028</ele>
        <time>2018-08-23T10:46:37.000Z</time>
      </trkpt>
      <trkpt lat="43.1722110" lon="-1.5615710">
        <ele>746.638062</ele>
        <time>2018-08-23T10:46:34.000Z</time>
      </trkpt>
      <trkpt lat="43.1721670" lon="-1.5615590">
        <ele>745.290039</ele>
        <time>2018-08-23T10:46:30.000Z</time>
      </trkpt>
      <trkpt lat="43.1720130" lon="-1.5617040">
        <ele>743.578003</ele>
        <time>2018-08-23T10:46:16.000Z</time>
      </trkpt>
      <trkpt lat="43.1718580" lon="-1.5618660">
        <ele>741.122986</ele>
        <time>2018-08-23T10:45:59.000Z</time>
      </trkpt>
      <trkpt lat="43.1717600" lon="-1.5619780">
        <ele>739.708008</ele>
        <time>2018-08-23T10:45:49.000Z</time>
      </trkpt>
      <trkpt lat="43.1716030" lon="-1.5621260">
        <ele>737.713013</ele>
        <time>2018-08-23T10:45:34.000Z</time>
      </trkpt>
      <trkpt lat="43.1713420" lon="-1.5624630">
        <ele>734.776001</ele>
        <time>2018-08-23T10:45:11.000Z</time>
      </trkpt>
      <trkpt lat="43.1711770" lon="-1.5628070">
        <ele>734.816040</ele>
        <time>2018-08-23T10:44:52.000Z</time>
      </trkpt>
      <trkpt lat="43.1710660" lon="-1.5628600">
        <ele>734.351013</ele>
        <time>2018-08-23T10:44:45.000Z</time>
      </trkpt>
      <trkpt lat="43.1708310" lon="-1.5628120">
        <ele>733.441956</ele>
        <time>2018-08-23T10:44:30.000Z</time>
      </trkpt>
      <trkpt lat="43.1705050" lon="-1.5627150">
        <ele>732.325989</ele>
        <time>2018-08-23T10:44:14.000Z</time>
      </trkpt>
      <trkpt lat="43.1702440" lon="-1.5627640">
        <ele>734.098938</ele>
        <time>2018-08-23T10:43:58.000Z</time>
      </trkpt>
      <trkpt lat="43.1701710" lon="-1.5628860">
        <ele>734.148010</ele>
        <time>2018-08-23T10:38:26.000Z</time>
      </trkpt>
      <trkpt lat="43.1701590" lon="-1.5629080">
        <ele>734.139954</ele>
        <time>2018-08-23T10:35:48.000Z</time>
      </trkpt>
      <trkpt lat="43.1701180" lon="-1.5629630">
        <ele>733.847961</ele>
        <time>2018-08-23T10:35:22.000Z</time>
      </trkpt>
      <trkpt lat="43.1700880" lon="-1.5630130">
        <ele>733.773010</ele>
        <time>2018-08-23T10:35:15.000Z</time>
      </trkpt>
      <trkpt lat="43.1700070" lon="-1.5630760">
        <ele>732.208008</ele>
        <time>2018-08-23T10:34:54.000Z</time>
      </trkpt>
      <trkpt lat="43.1699650" lon="-1.5631800">
        <ele>730.609009</ele>
        <time>2018-08-23T10:34:32.000Z</time>
      </trkpt>
      <trkpt lat="43.1699180" lon="-1.5632390">
        <ele>728.853943</ele>
        <time>2018-08-23T10:34:11.000Z</time>
      </trkpt>
      <trkpt lat="43.1698830" lon="-1.5632750">
        <ele>727.414001</ele>
        <time>2018-08-23T10:33:41.000Z</time>
      </trkpt>
      <trkpt lat="43.1698400" lon="-1.5633020">
        <ele>725.722046</ele>
        <time>2018-08-23T10:33:25.000Z</time>
      </trkpt>
      <trkpt lat="43.1697730" lon="-1.5633980">
        <ele>722.962952</ele>
        <time>2018-08-23T10:33:08.000Z</time>
      </trkpt>
      <trkpt lat="43.1697380" lon="-1.5634840">
        <ele>721.187012</ele>
        <time>2018-08-23T10:32:49.000Z</time>
      </trkpt>
      <trkpt lat="43.1697040" lon="-1.5635710">
        <ele>719.469971</ele>
        <time>2018-08-23T10:32:26.000Z</time>
      </trkpt>
      <trkpt lat="43.1697030" lon="-1.5635980">
        <ele>719.369019</ele>
        <time>2018-08-23T10:32:11.000Z</time>
      </trkpt>
      <trkpt lat="43.1696500" lon="-1.5637310">
        <ele>717.121033</ele>
        <time>2018-08-23T10:31:49.000Z</time>
      </trkpt>
      <trkpt lat="43.1696100" lon="-1.5638840">
        <ele>715.698975</ele>
        <time>2018-08-23T10:31:32.000Z</time>
      </trkpt>
      <trkpt lat="43.1695730" lon="-1.5641260">
        <ele>714.194031</ele>
        <time>2018-08-23T10:31:15.000Z</time>
      </trkpt>
      <trkpt lat="43.1695500" lon="-1.5641780">
        <ele>713.207947</ele>
        <time>2018-08-23T10:31:11.000Z</time>
      </trkpt>
      <trkpt lat="43.1695270" lon="-1.5642130">
        <ele>712.305054</ele>
        <time>2018-08-23T10:26:17.000Z</time>
      </trkpt>
      <trkpt lat="43.1695170" lon="-1.5642160">
        <ele>711.940979</ele>
        <time>2018-08-23T10:25:36.000Z</time>
      </trkpt>
      <trkpt lat="43.1695280" lon="-1.5642250">
        <ele>712.421021</ele>
        <time>2018-08-23T10:25:04.000Z</time>
      </trkpt>
      <trkpt lat="43.1694930" lon="-1.5642810">
        <ele>711.039001</ele>
        <time>2018-08-23T10:24:46.000Z</time>
      </trkpt>
      <trkpt lat="43.1694570" lon="-1.5643500">
        <ele>709.579956</ele>
        <time>2018-08-23T10:24:41.000Z</time>
      </trkpt>
      <trkpt lat="43.1693670" lon="-1.5644950">
        <ele>706.343994</ele>
        <time>2018-08-23T10:24:25.000Z</time>
      </trkpt>
      <trkpt lat="43.1693200" lon="-1.5645660">
        <ele>704.847046</ele>
        <time>2018-08-23T10:24:17.000Z</time>
      </trkpt>
      <trkpt lat="43.1692750" lon="-1.5646130">
        <ele>703.136047</ele>
        <time>2018-08-23T10:24:08.000Z</time>
      </trkpt>
      <trkpt lat="43.1692770" lon="-1.5646810">
        <ele>703.377991</ele>
        <time>2018-08-23T10:23:54.000Z</time>
      </trkpt>
      <trkpt lat="43.1691700" lon="-1.5648760">
        <ele>699.796021</ele>
        <time>2018-08-23T10:23:38.000Z</time>
      </trkpt>
      <trkpt lat="43.1690590" lon="-1.5651900">
        <ele>695.621033</ele>
        <time>2018-08-23T10:23:18.000Z</time>
      </trkpt>
      <trkpt lat="43.1690470" lon="-1.5652220">
        <ele>695.208008</ele>
        <time>2018-08-23T10:23:16.000Z</time>
      </trkpt>
      <trkpt lat="43.1689270" lon="-1.5655230">
        <ele>691.419006</ele>
        <time>2018-08-23T10:22:56.000Z</time>
      </trkpt>
      <trkpt lat="43.1688100" lon="-1.5658080">
        <ele>687.880981</ele>
        <time>2018-08-23T10:22:38.000Z</time>
      </trkpt>
      <trkpt lat="43.1686640" lon="-1.5661320">
        <ele>682.291016</ele>
        <time>2018-08-23T10:22:16.000Z</time>
      </trkpt>
      <trkpt lat="43.1685100" lon="-1.5664410">
        <ele>677.971985</ele>
        <time>2018-08-23T10:21:54.000Z</time>
      </trkpt>
      <trkpt lat="43.1684660" lon="-1.5667700">
        <ele>677.653015</ele>
        <time>2018-08-23T10:21:34.000Z</time>
      </trkpt>
      <trkpt lat="43.1684650" lon="-1.5667680">
        <ele>677.586975</ele>
        <time>2018-08-23T10:21:30.000Z</time>
      </trkpt>
      <trkpt lat="43.1683860" lon="-1.5669660">
        <ele>675.239990</ele>
        <time>2018-08-23T10:21:08.000Z</time>
      </trkpt>
      <trkpt lat="43.1683080" lon="-1.5671440">
        <ele>673.398987</ele>
        <time>2018-08-23T10:20:50.000Z</time>
      </trkpt>
      <trkpt lat="43.1682040" lon="-1.5673320">
        <ele>670.020996</ele>
        <time>2018-08-23T10:20:32.000Z</time>
      </trkpt>
      <trkpt lat="43.1681400" lon="-1.5674760">
        <ele>668.258972</ele>
        <time>2018-08-23T10:19:34.000Z</time>
      </trkpt>
      <trkpt lat="43.1681350" lon="-1.5674750">
        <ele>668.033997</ele>
        <time>2018-08-23T10:18:58.000Z</time>
      </trkpt>
      <trkpt lat="43.1680580" lon="-1.5676190">
        <ele>665.508057</ele>
        <time>2018-08-23T10:18:42.000Z</time>
      </trkpt>
      <trkpt lat="43.1680030" lon="-1.5677580">
        <ele>663.610962</ele>
        <time>2018-08-23T10:18:25.000Z</time>
      </trkpt>
      <trkpt lat="43.1679140" lon="-1.5679330">
        <ele>660.482971</ele>
        <time>2018-08-23T10:18:03.000Z</time>
      </trkpt>
      <trkpt lat="43.1678590" lon="-1.5680610">
        <ele>658.523010</ele>
        <time>2018-08-23T10:17:45.000Z</time>
      </trkpt>
      <trkpt lat="43.1677890" lon="-1.5682780">
        <ele>656.360962</ele>
        <time>2018-08-23T10:17:22.000Z</time>
      </trkpt>
      <trkpt lat="43.1677300" lon="-1.5684240">
        <ele>655.032043</ele>
        <time>2018-08-23T10:17:05.000Z</time>
      </trkpt>
      <trkpt lat="43.1677220" lon="-1.5684430">
        <ele>654.966003</ele>
        <time>2018-08-23T10:16:03.000Z</time>
      </trkpt>
      <trkpt lat="43.1676930" lon="-1.5685490">
        <ele>654.699036</ele>
        <time>2018-08-23T10:15:42.000Z</time>
      </trkpt>
      <trkpt lat="43.1676320" lon="-1.5687010">
        <ele>652.847961</ele>
        <time>2018-08-23T10:15:32.000Z</time>
      </trkpt>
      <trkpt lat="43.1675960" lon="-1.5687890">
        <ele>651.510010</ele>
        <time>2018-08-23T10:15:26.000Z</time>
      </trkpt>
      <trkpt lat="43.1674860" lon="-1.5690930">
        <ele>648.338013</ele>
        <time>2018-08-23T10:15:06.000Z</time>
      </trkpt>
      <trkpt lat="43.1674250" lon="-1.5693340">
        <ele>647.742981</ele>
        <time>2018-08-23T10:14:49.000Z</time>
      </trkpt>
      <trkpt lat="43.1673010" lon="-1.5695690">
        <ele>644.507996</ele>
        <time>2018-08-23T10:14:31.000Z</time>
      </trkpt>
      <trkpt lat="43.1671350" lon="-1.5698220">
        <ele>639.804993</ele>
        <time>2018-08-23T10:14:12.000Z</time>
      </trkpt>
      <trkpt lat="43.1670950" lon="-1.5698610">
        <ele>638.932007</ele>
        <time>2018-08-23T10:14:08.000Z</time>
      </trkpt>
      <trkpt lat="43.1670740" lon="-1.5699170">
        <ele>638.112000</ele>
        <time>2018-08-23T10:14:04.000Z</time>
      </trkpt>
      <trkpt lat="43.1670840" lon="-1.5699340">
        <ele>638.135986</ele>
        <time>2018-08-23T10:13:26.000Z</time>
      </trkpt>
      <trkpt lat="43.1672950" lon="-1.5701840">
        <ele>638.896973</ele>
        <time>2018-08-23T10:13:14.000Z</time>
      </trkpt>
      <trkpt lat="43.1678300" lon="-1.5706770">
        <ele>642.231018</ele>
        <time>2018-08-23T10:12:58.000Z</time>
      </trkpt>
      <trkpt lat="43.1682090" lon="-1.5706680">
        <ele>648.664063</ele>
        <time>2018-08-23T10:12:45.000Z</time>
      </trkpt>
      <trkpt lat="43.1686690" lon="-1.5707570">
        <ele>647.992981</ele>
        <time>2018-08-23T10:12:20.000Z</time>
      </trkpt>
      <trkpt lat="43.1690280" lon="-1.5707840">
        <ele>648.035034</ele>
        <time>2018-08-23T10:12:01.000Z</time>
      </trkpt>
      <trkpt lat="43.1692860" lon="-1.5708070">
        <ele>649.532959</ele>
        <time>2018-08-23T10:11:45.000Z</time>
      </trkpt>
      <trkpt lat="43.1693140" lon="-1.5708310">
        <ele>649.268005</ele>
        <time>2018-08-23T10:11:43.000Z</time>
      </trkpt>
      <trkpt lat="43.1695160" lon="-1.5709400">
        <ele>651.407959</ele>
        <time>2018-08-23T10:11:33.000Z</time>
      </trkpt>
      <trkpt lat="43.1697130" lon="-1.5712410">
        <ele>650.918030</ele>
        <time>2018-08-23T10:11:21.000Z</time>
      </trkpt>
      <trkpt lat="43.1699230" lon="-1.5713200">
        <ele>651.343994</ele>
        <time>2018-08-23T10:10:46.000Z</time>
      </trkpt>
      <trkpt lat="43.1701560" lon="-1.5712680">
        <ele>648.763000</ele>
        <time>2018-08-23T10:10:28.000Z</time>
      </trkpt>
      <trkpt lat="43.1704190" lon="-1.5710950">
        <ele>650.341003</ele>
        <time>2018-08-23T10:10:10.000Z</time>
      </trkpt>
      <trkpt lat="43.1706000" lon="-1.5710810">
        <ele>648.041992</ele>
        <time>2018-08-23T10:09:58.000Z</time>
      </trkpt>
      <trkpt lat="43.1706440" lon="-1.5710710">
        <ele>647.966003</ele>
        <time>2018-08-23T10:08:33.000Z</time>
      </trkpt>
      <trkpt lat="43.1707170" lon="-1.5710610">
        <ele>647.398987</ele>
        <time>2018-08-23T10:08:17.000Z</time>
      </trkpt>
      <trkpt lat="43.1707340" lon="-1.5710660">
        <ele>646.968018</ele>
        <time>2018-08-23T10:08:07.000Z</time>
      </trkpt>
      <trkpt lat="43.1707800" lon="-1.5710980">
        <ele>645.149963</ele>
        <time>2018-08-23T10:07:52.000Z</time>
      </trkpt>
      <trkpt lat="43.1708290" lon="-1.5711290">
        <ele>643.687988</ele>
        <time>2018-08-23T10:07:20.000Z</time>
      </trkpt>
      <trkpt lat="43.1708970" lon="-1.5711620">
        <ele>643.593018</ele>
        <time>2018-08-23T10:07:09.000Z</time>
      </trkpt>
      <trkpt lat="43.1709030" lon="-1.5711600">
        <ele>643.607971</ele>
        <time>2018-08-23T10:07:08.000Z</time>
      </trkpt>
      <trkpt lat="43.1710620" lon="-1.5711740">
        <ele>645.313049</ele>
        <time>2018-08-23T10:06:53.000Z</time>
      </trkpt>
      <trkpt lat="43.1711100" lon="-1.5712150">
        <ele>645.176025</ele>
        <time>2018-08-23T10:06:49.000Z</time>
      </trkpt>
      <trkpt lat="43.1711360" lon="-1.5712570">
        <ele>645.715942</ele>
        <time>2018-08-23T10:06:46.000Z</time>
      </trkpt>
      <trkpt lat="43.1711620" lon="-1.5712680">
        <ele>646.896973</ele>
        <time>2018-08-23T10:06:44.000Z</time>
      </trkpt>
      <trkpt lat="43.1713130" lon="-1.5717260">
        <ele>644.877991</ele>
        <time>2018-08-23T10:06:26.000Z</time>
      </trkpt>
      <trkpt lat="43.1715100" lon="-1.5719200">
        <ele>645.091980</ele>
        <time>2018-08-23T10:06:12.000Z</time>
      </trkpt>
      <trkpt lat="43.1715400" lon="-1.5719200">
        <ele>645.375000</ele>
        <time>2018-08-23T10:06:06.000Z</time>
      </trkpt>
      <trkpt lat="43.1715490" lon="-1.5719150">
        <ele>645.653992</ele>
        <time>2018-08-23T10:05:18.000Z</time>
      </trkpt>
      <trkpt lat="43.1716350" lon="-1.5719810">
        <ele>645.065979</ele>
        <time>2018-08-23T10:05:05.000Z</time>
      </trkpt>
      <trkpt lat="43.1716470" lon="-1.5719910">
        <ele>644.934021</ele>
        <time>2018-08-23T10:05:01.000Z</time>
      </trkpt>
      <trkpt lat="43.1717010" lon="-1.5721050">
        <ele>644.039001</ele>
        <time>2018-08-23T10:04:46.000Z</time>
      </trkpt>
      <trkpt lat="43.1717780" lon="-1.5722620">
        <ele>643.508057</ele>
        <time>2018-08-23T10:04:33.000Z</time>
      </trkpt>
      <trkpt lat="43.1718880" lon="-1.5725380">
        <ele>643.219971</ele>
        <time>2018-08-23T10:04:23.000Z</time>
      </trkpt>
      <trkpt lat="43.1719610" lon="-1.5731080">
        <ele>640.928040</ele>
        <time>2018-08-23T10:04:04.000Z</time>
      </trkpt>
      <trkpt lat="43.1722470" lon="-1.5736010">
        <ele>641.174988</ele>
        <time>2018-08-23T10:03:43.000Z</time>
      </trkpt>
      <trkpt lat="43.1724460" lon="-1.5738430">
        <ele>640.132019</ele>
        <time>2018-08-23T10:03:32.000Z</time>
      </trkpt>
      <trkpt lat="43.1726370" lon="-1.5742170">
        <ele>641.072998</ele>
        <time>2018-08-23T10:03:19.000Z</time>
      </trkpt>
      <trkpt lat="43.1726340" lon="-1.5742200">
        <ele>640.837036</ele>
        <time>2018-08-23T10:00:16.000Z</time>
      </trkpt>
      <trkpt lat="43.1726130" lon="-1.5741260">
        <ele>641.679993</ele>
        <time>2018-08-23T10:00:03.000Z</time>
      </trkpt>
      <trkpt lat="43.1724930" lon="-1.5738520">
        <ele>641.078979</ele>
        <time>2018-08-23T09:59:45.000Z</time>
      </trkpt>
      <trkpt lat="43.1724750" lon="-1.5738320">
        <ele>641.231018</ele>
        <time>2018-08-23T09:59:43.000Z</time>
      </trkpt>
      <trkpt lat="43.1724680" lon="-1.5738490">
        <ele>640.588989</ele>
        <time>2018-08-23T09:59:38.000Z</time>
      </trkpt>
      <trkpt lat="43.1725290" lon="-1.5739350">
        <ele>640.843994</ele>
        <time>2018-08-23T09:59:34.000Z</time>
      </trkpt>
      <trkpt lat="43.1726930" lon="-1.5743310">
        <ele>640.908020</ele>
        <time>2018-08-23T09:59:17.000Z</time>
      </trkpt>
      <trkpt lat="43.1728270" lon="-1.5746120">
        <ele>638.010986</ele>
        <time>2018-08-23T09:58:58.000Z</time>
      </trkpt>
      <trkpt lat="43.1728830" lon="-1.5747250">
        <ele>636.146973</ele>
        <time>2018-08-23T09:58:50.000Z</time>
      </trkpt>
      <trkpt lat="43.1730750" lon="-1.5750190">
        <ele>631.625977</ele>
        <time>2018-08-23T09:58:29.000Z</time>
      </trkpt>
      <trkpt lat="43.1731170" lon="-1.5750440">
        <ele>631.242004</ele>
        <time>2018-08-23T09:58:25.000Z</time>
      </trkpt>
      <trkpt lat="43.1731200" lon="-1.5750440">
        <ele>631.212952</ele>
        <time>2018-08-23T09:58:19.000Z</time>
      </trkpt>
      <trkpt lat="43.1731040" lon="-1.5749990">
        <ele>632.226990</ele>
        <time>2018-08-23T09:54:42.000Z</time>
      </trkpt>
      <trkpt lat="43.1731220" lon="-1.5750340">
        <ele>631.449951</ele>
        <time>2018-08-23T09:53:25.000Z</time>
      </trkpt>
      <trkpt lat="43.1731040" lon="-1.5750460">
        <ele>631.148987</ele>
        <time>2018-08-23T09:53:02.000Z</time>
      </trkpt>
      <trkpt lat="43.1732730" lon="-1.5751220">
        <ele>629.510986</ele>
        <time>2018-08-23T09:52:43.000Z</time>
      </trkpt>
      <trkpt lat="43.1735210" lon="-1.5752880">
        <ele>624.039001</ele>
        <time>2018-08-23T09:52:24.000Z</time>
      </trkpt>
      <trkpt lat="43.1738190" lon="-1.5753560">
        <ele>618.544006</ele>
        <time>2018-08-23T09:52:03.000Z</time>
      </trkpt>
      <trkpt lat="43.1740210" lon="-1.5752930">
        <ele>615.708008</ele>
        <time>2018-08-23T09:51:44.000Z</time>
      </trkpt>
      <trkpt lat="43.1741380" lon="-1.5752090">
        <ele>615.011047</ele>
        <time>2018-08-23T09:51:36.000Z</time>
      </trkpt>
      <trkpt lat="43.1741770" lon="-1.5751780">
        <ele>615.083008</ele>
        <time>2018-08-23T09:51:32.000Z</time>
      </trkpt>
      <trkpt lat="43.1744290" lon="-1.5750060">
        <ele>613.322998</ele>
        <time>2018-08-23T09:51:15.000Z</time>
      </trkpt>
      <trkpt lat="43.1745510" lon="-1.5749060">
        <ele>609.947998</ele>
        <time>2018-08-23T09:51:04.000Z</time>
      </trkpt>
      <trkpt lat="43.1746510" lon="-1.5748230">
        <ele>607.838989</ele>
        <time>2018-08-23T09:50:57.000Z</time>
      </trkpt>
      <trkpt lat="43.1747410" lon="-1.5747560">
        <ele>606.513000</ele>
        <time>2018-08-23T09:50:46.000Z</time>
      </trkpt>
      <trkpt lat="43.1748680" lon="-1.5746500">
        <ele>607.916016</ele>
        <time>2018-08-23T09:50:34.000Z</time>
      </trkpt>
      <trkpt lat="43.1749910" lon="-1.5744870">
        <ele>615.424988</ele>
        <time>2018-08-23T09:50:20.000Z</time>
      </trkpt>
      <trkpt lat="43.1752020" lon="-1.5743070">
        <ele>608.627014</ele>
        <time>2018-08-23T09:50:04.000Z</time>
      </trkpt>
      <trkpt lat="43.1752860" lon="-1.5742240">
        <ele>604.585022</ele>
        <time>2018-08-23T09:49:58.000Z</time>
      </trkpt>
      <trkpt lat="43.1754100" lon="-1.5741560">
        <ele>601.989990</ele>
        <time>2018-08-23T09:49:47.000Z</time>
      </trkpt>
      <trkpt lat="43.1754640" lon="-1.5741620">
        <ele>600.408020</ele>
        <time>2018-08-23T09:49:45.000Z</time>
      </trkpt>
      <trkpt lat="43.1755490" lon="-1.5742030">
        <ele>597.117004</ele>
        <time>2018-08-23T09:49:40.000Z</time>
      </trkpt>
      <trkpt lat="43.1755660" lon="-1.5741970">
        <ele>597.106995</ele>
        <time>2018-08-23T09:49:15.000Z</time>
      </trkpt>
      <trkpt lat="43.1756080" lon="-1.5741950">
        <ele>597.283997</ele>
        <time>2018-08-23T09:48:55.000Z</time>
      </trkpt>
      <trkpt lat="43.1755990" lon="-1.5741820">
        <ele>597.687012</ele>
        <time>2018-08-23T09:48:53.000Z</time>
      </trkpt>
      <trkpt lat="43.1756230" lon="-1.5741630">
        <ele>598.157959</ele>
        <time>2018-08-23T09:48:50.000Z</time>
      </trkpt>
      <trkpt lat="43.1757900" lon="-1.5741790">
        <ele>597.631958</ele>
        <time>2018-08-23T09:48:38.000Z</time>
      </trkpt>
      <trkpt lat="43.1759770" lon="-1.5742110">
        <ele>595.354980</ele>
        <time>2018-08-23T09:48:27.000Z</time>
      </trkpt>
      <trkpt lat="43.1762680" lon="-1.5739490">
        <ele>599.953979</ele>
        <time>2018-08-23T09:48:14.000Z</time>
      </trkpt>
      <trkpt lat="43.1762730" lon="-1.5739490">
        <ele>599.815979</ele>
        <time>2018-08-23T09:48:10.000Z</time>
      </trkpt>
      <trkpt lat="43.1763340" lon="-1.5738870">
        <ele>600.463989</ele>
        <time>2018-08-23T09:47:56.000Z</time>
      </trkpt>
      <trkpt lat="43.1764650" lon="-1.5737520">
        <ele>599.528992</ele>
        <time>2018-08-23T09:47:43.000Z</time>
      </trkpt>
      <trkpt lat="43.1764820" lon="-1.5737140">
        <ele>599.807983</ele>
        <time>2018-08-23T09:47:40.000Z</time>
      </trkpt>
      <trkpt lat="43.1765590" lon="-1.5736170">
        <ele>599.619019</ele>
        <time>2018-08-23T09:47:35.000Z</time>
      </trkpt>
      <trkpt lat="43.1766670" lon="-1.5734380">
        <ele>599.590027</ele>
        <time>2018-08-23T09:47:28.000Z</time>
      </trkpt>
      <trkpt lat="43.1766720" lon="-1.5734120">
        <ele>600.075989</ele>
        <time>2018-08-23T09:46:22.000Z</time>
      </trkpt>
      <trkpt lat="43.1766960" lon="-1.5734280">
        <ele>600.484985</ele>
        <time>2018-08-23T09:45:44.000Z</time>
      </trkpt>
      <trkpt lat="43.1767610" lon="-1.5734110">
        <ele>602.385986</ele>
        <time>2018-08-23T09:45:31.000Z</time>
      </trkpt>
      <trkpt lat="43.1767850" lon="-1.5735140">
        <ele>601.039978</ele>
        <time>2018-08-23T09:45:15.000Z</time>
      </trkpt>
      <trkpt lat="43.1768260" lon="-1.5736230">
        <ele>599.622986</ele>
        <time>2018-08-23T09:45:01.000Z</time>
      </trkpt>
      <trkpt lat="43.1768680" lon="-1.5737980">
        <ele>596.372009</ele>
        <time>2018-08-23T09:44:45.000Z</time>
      </trkpt>
      <trkpt lat="43.1768750" lon="-1.5740910">
        <ele>589.254028</ele>
        <time>2018-08-23T09:44:25.000Z</time>
      </trkpt>
      <trkpt lat="43.1769490" lon="-1.5742420">
        <ele>586.362000</ele>
        <time>2018-08-23T09:44:11.000Z</time>
      </trkpt>
      <trkpt lat="43.1770060" lon="-1.5743480">
        <ele>583.557007</ele>
        <time>2018-08-23T09:44:02.000Z</time>
      </trkpt>
      <trkpt lat="43.1770280" lon="-1.5743790">
        <ele>582.608032</ele>
        <time>2018-08-23T09:43:59.000Z</time>
      </trkpt>
      <trkpt lat="43.1771840" lon="-1.5744940">
        <ele>578.313965</ele>
        <time>2018-08-23T09:43:43.000Z</time>
      </trkpt>
      <trkpt lat="43.1773020" lon="-1.5745240">
        <ele>577.203979</ele>
        <time>2018-08-23T09:43:32.000Z</time>
      </trkpt>
      <trkpt lat="43.1774680" lon="-1.5747070">
        <ele>574.153015</ele>
        <time>2018-08-23T09:43:15.000Z</time>
      </trkpt>
      <trkpt lat="43.1775320" lon="-1.5748160">
        <ele>571.468994</ele>
        <time>2018-08-23T09:43:01.000Z</time>
      </trkpt>
      <trkpt lat="43.1775700" lon="-1.5748370">
        <ele>570.239990</ele>
        <time>2018-08-23T09:42:55.000Z</time>
      </trkpt>
      <trkpt lat="43.1776040" lon="-1.5748580">
        <ele>569.234009</ele>
        <time>2018-08-23T09:41:38.000Z</time>
      </trkpt>
      <trkpt lat="43.1775990" lon="-1.5748600">
        <ele>569.237000</ele>
        <time>2018-08-23T09:41:08.000Z</time>
      </trkpt>
      <trkpt lat="43.1775930" lon="-1.5748530">
        <ele>569.596008</ele>
        <time>2018-08-23T09:40:51.000Z</time>
      </trkpt>
      <trkpt lat="43.1775920" lon="-1.5748520">
        <ele>569.548035</ele>
        <time>2018-08-23T09:40:21.000Z</time>
      </trkpt>
      <trkpt lat="43.1777960" lon="-1.5748060">
        <ele>566.226013</ele>
        <time>2018-08-23T09:39:59.000Z</time>
      </trkpt>
      <trkpt lat="43.1778130" lon="-1.5747950">
        <ele>565.821045</ele>
        <time>2018-08-23T09:39:57.000Z</time>
      </trkpt>
      <trkpt lat="43.1779070" lon="-1.5746960">
        <ele>564.208008</ele>
        <time>2018-08-23T09:39:41.000Z</time>
      </trkpt>
      <trkpt lat="43.1779190" lon="-1.5748240">
        <ele>562.027039</ele>
        <time>2018-08-23T09:39:32.000Z</time>
      </trkpt>
      <trkpt lat="43.1779260" lon="-1.5749410">
        <ele>560.007019</ele>
        <time>2018-08-23T09:39:19.000Z</time>
      </trkpt>
      <trkpt lat="43.1779120" lon="-1.5751670">
        <ele>557.299011</ele>
        <time>2018-08-23T09:39:06.000Z</time>
      </trkpt>
      <trkpt lat="43.1779340" lon="-1.5754010">
        <ele>554.737000</ele>
        <time>2018-08-23T09:38:52.000Z</time>
      </trkpt>
      <trkpt lat="43.1780680" lon="-1.5756930">
        <ele>553.177979</ele>
        <time>2018-08-23T09:38:41.000Z</time>
      </trkpt>
      <trkpt lat="43.1782960" lon="-1.5761350">
        <ele>555.851990</ele>
        <time>2018-08-23T09:38:25.000Z</time>
      </trkpt>
      <trkpt lat="43.1784710" lon="-1.5763470">
        <ele>555.625000</ele>
        <time>2018-08-23T09:38:03.000Z</time>
      </trkpt>
      <trkpt lat="43.1785160" lon="-1.5764180">
        <ele>555.633972</ele>
        <time>2018-08-23T09:37:33.000Z</time>
      </trkpt>
      <trkpt lat="43.1785270" lon="-1.5764490">
        <ele>555.356018</ele>
        <time>2018-08-23T09:36:48.000Z</time>
      </trkpt>
      <trkpt lat="43.1785230" lon="-1.5764480">
        <ele>555.434021</ele>
        <time>2018-08-23T09:35:23.000Z</time>
      </trkpt>
      <trkpt lat="43.1785220" lon="-1.5764390">
        <ele>555.489014</ele>
        <time>2018-08-23T09:34:34.000Z</time>
      </trkpt>
      <trkpt lat="43.1785360" lon="-1.5764760">
        <ele>555.107971</ele>
        <time>2018-08-23T09:34:15.000Z</time>
      </trkpt>
      <trkpt lat="43.1786250" lon="-1.5765830">
        <ele>553.713013</ele>
        <time>2018-08-23T09:34:07.000Z</time>
      </trkpt>
      <trkpt lat="43.1789010" lon="-1.5768910">
        <ele>549.984985</ele>
        <time>2018-08-23T09:33:46.000Z</time>
      </trkpt>
      <trkpt lat="43.1790960" lon="-1.5772000">
        <ele>544.072998</ele>
        <time>2018-08-23T09:33:28.000Z</time>
      </trkpt>
      <trkpt lat="43.1791170" lon="-1.5772570">
        <ele>543.122009</ele>
        <time>2018-08-23T09:33:25.000Z</time>
      </trkpt>
      <trkpt lat="43.1793060" lon="-1.5773490">
        <ele>541.432983</ele>
        <time>2018-08-23T09:33:10.000Z</time>
      </trkpt>
      <trkpt lat="43.1795660" lon="-1.5774390">
        <ele>539.276978</ele>
        <time>2018-08-23T09:32:53.000Z</time>
      </trkpt>
      <trkpt lat="43.1798320" lon="-1.5774900">
        <ele>537.690002</ele>
        <time>2018-08-23T09:32:35.000Z</time>
      </trkpt>
      <trkpt lat="43.1798760" lon="-1.5774890">
        <ele>537.539001</ele>
        <time>2018-08-23T09:32:31.000Z</time>
      </trkpt>
      <trkpt lat="43.1799030" lon="-1.5774970">
        <ele>537.481018</ele>
        <time>2018-08-23T09:32:04.000Z</time>
      </trkpt>
      <trkpt lat="43.1799560" lon="-1.5775590">
        <ele>536.869019</ele>
        <time>2018-08-23T09:31:49.000Z</time>
      </trkpt>
      <trkpt lat="43.1799540" lon="-1.5776060">
        <ele>536.554016</ele>
        <time>2018-08-23T09:31:45.000Z</time>
      </trkpt>
      <trkpt lat="43.1799910" lon="-1.5777450">
        <ele>536.007996</ele>
        <time>2018-08-23T09:31:34.000Z</time>
      </trkpt>
      <trkpt lat="43.1799940" lon="-1.5777880">
        <ele>535.911011</ele>
        <time>2018-08-23T09:31:18.000Z</time>
      </trkpt>
      <trkpt lat="43.1800460" lon="-1.5780450">
        <ele>534.646973</ele>
        <time>2018-08-23T09:12:42.000Z</time>
      </trkpt>
      <trkpt lat="43.1801190" lon="-1.5781210">
        <ele>534.026001</ele>
        <time>2018-08-23T09:12:24.000Z</time>
      </trkpt>
      <trkpt lat="43.1801850" lon="-1.5782090">
        <ele>533.166016</ele>
        <time>2018-08-23T09:12:15.000Z</time>
      </trkpt>
      <trkpt lat="43.1802780" lon="-1.5782750">
        <ele>533.016968</ele>
        <time>2018-08-23T09:12:08.000Z</time>
      </trkpt>
      <trkpt lat="43.1805230" lon="-1.5784050">
        <ele>529.991028</ele>
        <time>2018-08-23T09:11:52.000Z</time>
      </trkpt>
      <trkpt lat="43.1805730" lon="-1.5784200">
        <ele>529.533997</ele>
        <time>2018-08-23T09:11:48.000Z</time>
      </trkpt>
      <trkpt lat="43.1805810" lon="-1.5783960">
        <ele>529.413025</ele>
        <time>2018-08-23T09:10:10.000Z</time>
      </trkpt>
      <trkpt lat="43.1805820" lon="-1.5784090">
        <ele>529.464966</ele>
        <time>2018-08-23T09:09:53.000Z</time>
      </trkpt>
      <trkpt lat="43.1806000" lon="-1.5784450">
        <ele>529.143005</ele>
        <time>2018-08-23T09:09:38.000Z</time>
      </trkpt>
      <trkpt lat="43.1805640" lon="-1.5786150">
        <ele>529.038025</ele>
        <time>2018-08-23T09:09:27.000Z</time>
      </trkpt>
      <trkpt lat="43.1803710" lon="-1.5788920">
        <ele>528.708008</ele>
        <time>2018-08-23T09:09:07.000Z</time>
      </trkpt>
      <trkpt lat="43.1802340" lon="-1.5790800">
        <ele>528.118042</ele>
        <time>2018-08-23T09:08:53.000Z</time>
      </trkpt>
      <trkpt lat="43.1801270" lon="-1.5793590">
        <ele>527.044006</ele>
        <time>2018-08-23T09:08:35.000Z</time>
      </trkpt>
      <trkpt lat="43.1801110" lon="-1.5794320">
        <ele>526.963013</ele>
        <time>2018-08-23T09:08:30.000Z</time>
      </trkpt>
      <trkpt lat="43.1801030" lon="-1.5794540">
        <ele>526.783997</ele>
        <time>2018-08-23T09:08:28.000Z</time>
      </trkpt>
      <trkpt lat="43.1800820" lon="-1.5795750">
        <ele>525.375000</ele>
        <time>2018-08-23T09:08:21.000Z</time>
      </trkpt>
      <trkpt lat="43.1801110" lon="-1.5798620">
        <ele>523.768982</ele>
        <time>2018-08-23T09:08:04.000Z</time>
      </trkpt>
      <trkpt lat="43.1802110" lon="-1.5801900">
        <ele>518.851990</ele>
        <time>2018-08-23T09:07:43.000Z</time>
      </trkpt>
      <trkpt lat="43.1804470" lon="-1.5803650">
        <ele>515.440979</ele>
        <time>2018-08-23T09:07:23.000Z</time>
      </trkpt>
      <trkpt lat="43.1806930" lon="-1.5804230">
        <ele>514.822998</ele>
        <time>2018-08-23T09:07:04.000Z</time>
      </trkpt>
      <trkpt lat="43.1808740" lon="-1.5805190">
        <ele>512.311035</ele>
        <time>2018-08-23T09:06:46.000Z</time>
      </trkpt>
      <trkpt lat="43.1809830" lon="-1.5806860">
        <ele>509.756012</ele>
        <time>2018-08-23T09:06:31.000Z</time>
      </trkpt>
      <trkpt lat="43.1810170" lon="-1.5807410">
        <ele>509.207977</ele>
        <time>2018-08-23T09:06:27.000Z</time>
      </trkpt>
      <trkpt lat="43.1810340" lon="-1.5808390">
        <ele>508.117004</ele>
        <time>2018-08-23T09:06:21.000Z</time>
      </trkpt>
      <trkpt lat="43.1810380" lon="-1.5812220">
        <ele>505.061005</ele>
        <time>2018-08-23T09:06:01.000Z</time>
      </trkpt>
      <trkpt lat="43.1809070" lon="-1.5815080">
        <ele>500.947998</ele>
        <time>2018-08-23T09:05:42.000Z</time>
      </trkpt>
      <trkpt lat="43.1807710" lon="-1.5817740">
        <ele>499.377991</ele>
        <time>2018-08-23T09:05:27.000Z</time>
      </trkpt>
      <trkpt lat="43.1807580" lon="-1.5818130">
        <ele>499.319000</ele>
        <time>2018-08-23T09:05:25.000Z</time>
      </trkpt>
      <trkpt lat="43.1807250" lon="-1.5818810">
        <ele>498.943024</ele>
        <time>2018-08-23T09:05:20.000Z</time>
      </trkpt>
      <trkpt lat="43.1805550" lon="-1.5820960">
        <ele>497.246002</ele>
        <time>2018-08-23T09:05:00.000Z</time>
      </trkpt>
      <trkpt lat="43.1804060" lon="-1.5823410">
        <ele>494.584991</ele>
        <time>2018-08-23T09:04:40.000Z</time>
      </trkpt>
      <trkpt lat="43.1804030" lon="-1.5824630">
        <ele>494.296997</ele>
        <time>2018-08-23T09:04:33.000Z</time>
      </trkpt>
      <trkpt lat="43.1805660" lon="-1.5826760">
        <ele>493.135010</ele>
        <time>2018-08-23T09:04:14.000Z</time>
      </trkpt>
      <trkpt lat="43.1807510" lon="-1.5828670">
        <ele>490.380005</ele>
        <time>2018-08-23T09:03:53.000Z</time>
      </trkpt>
      <trkpt lat="43.1807550" lon="-1.5828920">
        <ele>489.708008</ele>
        <time>2018-08-23T09:03:51.000Z</time>
      </trkpt>
      <trkpt lat="43.1807700" lon="-1.5829280">
        <ele>488.916992</ele>
        <time>2018-08-23T09:03:48.000Z</time>
      </trkpt>
      <trkpt lat="43.1807880" lon="-1.5829530">
        <ele>488.406982</ele>
        <time>2018-08-23T09:03:46.000Z</time>
      </trkpt>
      <trkpt lat="43.1809470" lon="-1.5831650">
        <ele>485.083984</ele>
        <time>2018-08-23T09:03:25.000Z</time>
      </trkpt>
      <trkpt lat="43.1810240" lon="-1.5834680">
        <ele>483.833984</ele>
        <time>2018-08-23T09:03:07.000Z</time>
      </trkpt>
      <trkpt lat="43.1809250" lon="-1.5836830">
        <ele>481.255005</ele>
        <time>2018-08-23T09:02:52.000Z</time>
      </trkpt>
      <trkpt lat="43.1808250" lon="-1.5839130">
        <ele>478.789001</ele>
        <time>2018-08-23T09:02:34.000Z</time>
      </trkpt>
      <trkpt lat="43.1807540" lon="-1.5842340">
        <ele>475.641998</ele>
        <time>2018-08-23T09:02:14.000Z</time>
      </trkpt>
      <trkpt lat="43.1807520" lon="-1.5843340">
        <ele>474.450989</ele>
        <time>2018-08-23T09:02:09.000Z</time>
      </trkpt>
      <trkpt lat="43.1808150" lon="-1.5846410">
        <ele>472.752991</ele>
        <time>2018-08-23T09:01:51.000Z</time>
      </trkpt>
      <trkpt lat="43.1809110" lon="-1.5848890">
        <ele>470.571014</ele>
        <time>2018-08-23T09:01:33.000Z</time>
      </trkpt>
      <trkpt lat="43.1810040" lon="-1.5850710">
        <ele>468.335999</ele>
        <time>2018-08-23T09:01:20.000Z</time>
      </trkpt>
      <trkpt lat="43.1810480" lon="-1.5851160">
        <ele>468.308014</ele>
        <time>2018-08-23T09:01:16.000Z</time>
      </trkpt>
      <trkpt lat="43.1810780" lon="-1.5851540">
        <ele>468.015015</ele>
        <time>2018-08-23T09:01:13.000Z</time>
      </trkpt>
      <trkpt lat="43.1811520" lon="-1.5852900">
        <ele>465.404999</ele>
        <time>2018-08-23T09:01:02.000Z</time>
      </trkpt>
      <trkpt lat="43.1812890" lon="-1.5854400">
        <ele>463.243988</ele>
        <time>2018-08-23T09:00:46.000Z</time>
      </trkpt>
      <trkpt lat="43.1813150" lon="-1.5854790">
        <ele>462.327972</ele>
        <time>2018-08-23T09:00:43.000Z</time>
      </trkpt>
      <trkpt lat="43.1814160" lon="-1.5856690">
        <ele>460.649017</ele>
        <time>2018-08-23T09:00:29.000Z</time>
      </trkpt>
      <trkpt lat="43.1814250" lon="-1.5857780">
        <ele>459.792999</ele>
        <time>2018-08-23T09:00:23.000Z</time>
      </trkpt>
      <trkpt lat="43.1813550" lon="-1.5860250">
        <ele>457.885986</ele>
        <time>2018-08-23T09:00:06.000Z</time>
      </trkpt>
      <trkpt lat="43.1812510" lon="-1.5863170">
        <ele>453.954987</ele>
        <time>2018-08-23T08:59:48.000Z</time>
      </trkpt>
      <trkpt lat="43.1812320" lon="-1.5864100">
        <ele>453.457001</ele>
        <time>2018-08-23T08:59:42.000Z</time>
      </trkpt>
      <trkpt lat="43.1812260" lon="-1.5864840">
        <ele>452.015015</ele>
        <time>2018-08-23T08:59:37.000Z</time>
      </trkpt>
      <trkpt lat="43.1813140" lon="-1.5867970">
        <ele>449.420013</ele>
        <time>2018-08-23T08:59:18.000Z</time>
      </trkpt>
      <trkpt lat="43.1813450" lon="-1.5870510">
        <ele>447.108002</ele>
        <time>2018-08-23T08:59:04.000Z</time>
      </trkpt>
      <trkpt lat="43.1813420" lon="-1.5871110">
        <ele>446.526001</ele>
        <time>2018-08-23T08:59:00.000Z</time>
      </trkpt>
      <trkpt lat="43.1813270" lon="-1.5871810">
        <ele>445.324005</ele>
        <time>2018-08-23T08:58:55.000Z</time>
      </trkpt>
      <trkpt lat="43.1813260" lon="-1.5872270">
        <ele>444.888000</ele>
        <time>2018-08-23T08:58:52.000Z</time>
      </trkpt>
      <trkpt lat="43.1813440" lon="-1.5874720">
        <ele>444.199005</ele>
        <time>2018-08-23T08:58:35.000Z</time>
      </trkpt>
      <trkpt lat="43.1813270" lon="-1.5875590">
        <ele>442.509979</ele>
        <time>2018-08-23T08:58:30.000Z</time>
      </trkpt>
      <trkpt lat="43.1813270" lon="-1.5877010">
        <ele>441.274017</ele>
        <time>2018-08-23T08:58:21.000Z</time>
      </trkpt>
      <trkpt lat="43.1813230" lon="-1.5878210">
        <ele>440.087006</ele>
        <time>2018-08-23T08:58:11.000Z</time>
      </trkpt>
      <trkpt lat="43.1813000" lon="-1.5881640">
        <ele>436.865997</ele>
        <time>2018-08-23T08:57:50.000Z</time>
      </trkpt>
      <trkpt lat="43.1812900" lon="-1.5882050">
        <ele>436.358002</ele>
        <time>2018-08-23T08:57:47.000Z</time>
      </trkpt>
      <trkpt lat="43.1812820" lon="-1.5882270">
        <ele>436.056000</ele>
        <time>2018-08-23T08:55:47.000Z</time>
      </trkpt>
      <trkpt lat="43.1812740" lon="-1.5882780">
        <ele>435.470978</ele>
        <time>2018-08-23T08:55:27.000Z</time>
      </trkpt>
      <trkpt lat="43.1812970" lon="-1.5884190">
        <ele>434.408020</ele>
        <time>2018-08-23T08:55:16.000Z</time>
      </trkpt>
      <trkpt lat="43.1813070" lon="-1.5885280">
        <ele>433.423004</ele>
        <time>2018-08-23T08:55:07.000Z</time>
      </trkpt>
      <trkpt lat="43.1813220" lon="-1.5885880">
        <ele>433.048981</ele>
        <time>2018-08-23T08:55:03.000Z</time>
      </trkpt>
      <trkpt lat="43.1813180" lon="-1.5886160">
        <ele>432.795013</ele>
        <time>2018-08-23T08:55:01.000Z</time>
      </trkpt>
      <trkpt lat="43.1812810" lon="-1.5887310">
        <ele>431.312988</ele>
        <time>2018-08-23T08:54:52.000Z</time>
      </trkpt>
      <trkpt lat="43.1812200" lon="-1.5889200">
        <ele>428.764008</ele>
        <time>2018-08-23T08:54:42.000Z</time>
      </trkpt>
      <trkpt lat="43.1812190" lon="-1.5889640">
        <ele>428.638000</ele>
        <time>2018-08-23T08:54:38.000Z</time>
      </trkpt>
      <trkpt lat="43.1811510" lon="-1.5891520">
        <ele>426.270996</ele>
        <time>2018-08-23T08:54:26.000Z</time>
      </trkpt>
      <trkpt lat="43.1811170" lon="-1.5892290">
        <ele>425.480011</ele>
        <time>2018-08-23T08:54:18.000Z</time>
      </trkpt>
      <trkpt lat="43.1810010" lon="-1.5894910">
        <ele>421.921997</ele>
        <time>2018-08-23T08:53:56.000Z</time>
      </trkpt>
      <trkpt lat="43.1809580" lon="-1.5895990">
        <ele>420.769989</ele>
        <time>2018-08-23T08:53:49.000Z</time>
      </trkpt>
      <trkpt lat="43.1809440" lon="-1.5896310">
        <ele>420.384979</ele>
        <time>2018-08-23T08:53:45.000Z</time>
      </trkpt>
      <trkpt lat="43.1808890" lon="-1.5897370">
        <ele>418.507996</ele>
        <time>2018-08-23T08:53:34.000Z</time>
      </trkpt>
      <trkpt lat="43.1808540" lon="-1.5898660">
        <ele>417.415009</ele>
        <time>2018-08-23T08:53:21.000Z</time>
      </trkpt>
      <trkpt lat="43.1808430" lon="-1.5899070">
        <ele>417.123016</ele>
        <time>2018-08-23T08:53:18.000Z</time>
      </trkpt>
      <trkpt lat="43.1808380" lon="-1.5900000">
        <ele>417.233002</ele>
        <time>2018-08-23T08:53:11.000Z</time>
      </trkpt>
      <trkpt lat="43.1808300" lon="-1.5900720">
        <ele>416.338013</ele>
        <time>2018-08-23T08:53:06.000Z</time>
      </trkpt>
      <trkpt lat="43.1808230" lon="-1.5901600">
        <ele>415.318970</ele>
        <time>2018-08-23T08:53:00.000Z</time>
      </trkpt>
      <trkpt lat="43.1808040" lon="-1.5902230">
        <ele>413.912994</ele>
        <time>2018-08-23T08:52:55.000Z</time>
      </trkpt>
      <trkpt lat="43.1807900" lon="-1.5903030">
        <ele>412.746002</ele>
        <time>2018-08-23T08:52:50.000Z</time>
      </trkpt>
      <trkpt lat="43.1807710" lon="-1.5903620">
        <ele>411.524994</ele>
        <time>2018-08-23T08:52:45.000Z</time>
      </trkpt>
      <trkpt lat="43.1807640" lon="-1.5903900">
        <ele>411.096985</ele>
        <time>2018-08-23T08:52:43.000Z</time>
      </trkpt>
      <trkpt lat="43.1807440" lon="-1.5905520">
        <ele>409.264984</ele>
        <time>2018-08-23T08:52:33.000Z</time>
      </trkpt>
      <trkpt lat="43.1807520" lon="-1.5905910">
        <ele>409.459991</ele>
        <time>2018-08-23T08:52:31.000Z</time>
      </trkpt>
      <trkpt lat="43.1807760" lon="-1.5906500">
        <ele>410.208008</ele>
        <time>2018-08-23T08:52:28.000Z</time>
      </trkpt>
      <trkpt lat="43.1807890" lon="-1.5907160">
        <ele>410.526001</ele>
        <time>2018-08-23T08:52:24.000Z</time>
      </trkpt>
      <trkpt lat="43.1807810" lon="-1.5907940">
        <ele>409.541992</ele>
        <time>2018-08-23T08:52:20.000Z</time>
      </trkpt>
      <trkpt lat="43.1807740" lon="-1.5908560">
        <ele>408.687012</ele>
        <time>2018-08-23T08:52:16.000Z</time>
      </trkpt>
      <trkpt lat="43.1807660" lon="-1.5909420">
        <ele>407.593994</ele>
        <time>2018-08-23T08:52:10.000Z</time>
      </trkpt>
      <trkpt lat="43.1807460" lon="-1.5910950">
        <ele>405.395020</ele>
        <time>2018-08-23T08:52:00.000Z</time>
      </trkpt>
      <trkpt lat="43.1807190" lon="-1.5912250">
        <ele>403.739014</ele>
        <time>2018-08-23T08:51:52.000Z</time>
      </trkpt>
      <trkpt lat="43.1807090" lon="-1.5912540">
        <ele>403.332001</ele>
        <time>2018-08-23T08:51:50.000Z</time>
      </trkpt>
      <trkpt lat="43.1807080" lon="-1.5913090">
        <ele>403.110992</ele>
        <time>2018-08-23T08:51:44.000Z</time>
      </trkpt>
      <trkpt lat="43.1807000" lon="-1.5913670">
        <ele>402.722992</ele>
        <time>2018-08-23T08:51:40.000Z</time>
      </trkpt>
      <trkpt lat="43.1806670" lon="-1.5914630">
        <ele>401.360992</ele>
        <time>2018-08-23T08:51:35.000Z</time>
      </trkpt>
      <trkpt lat="43.1806280" lon="-1.5915590">
        <ele>399.436005</ele>
        <time>2018-08-23T08:51:25.000Z</time>
      </trkpt>
      <trkpt lat="43.1806040" lon="-1.5917040">
        <ele>397.708008</ele>
        <time>2018-08-23T08:51:16.000Z</time>
      </trkpt>
      <trkpt lat="43.1806080" lon="-1.5917400">
        <ele>397.720978</ele>
        <time>2018-08-23T08:51:14.000Z</time>
      </trkpt>
      <trkpt lat="43.1805780" lon="-1.5919040">
        <ele>395.428986</ele>
        <time>2018-08-23T08:51:04.000Z</time>
      </trkpt>
      <trkpt lat="43.1805730" lon="-1.5919960">
        <ele>394.746979</ele>
        <time>2018-08-23T08:50:57.000Z</time>
      </trkpt>
      <trkpt lat="43.1805610" lon="-1.5921140">
        <ele>393.686005</ele>
        <time>2018-08-23T08:50:48.000Z</time>
      </trkpt>
      <trkpt lat="43.1805510" lon="-1.5921730">
        <ele>393.087006</ele>
        <time>2018-08-23T08:50:44.000Z</time>
      </trkpt>
      <trkpt lat="43.1805420" lon="-1.5923000">
        <ele>392.080994</ele>
        <time>2018-08-23T08:50:35.000Z</time>
      </trkpt>
      <trkpt lat="43.1805090" lon="-1.5924940">
        <ele>389.764008</ele>
        <time>2018-08-23T08:50:23.000Z</time>
      </trkpt>
      <trkpt lat="43.1804920" lon="-1.5926000">
        <ele>388.733002</ele>
        <time>2018-08-23T08:50:15.000Z</time>
      </trkpt>
      <trkpt lat="43.1804830" lon="-1.5926570">
        <ele>388.234985</ele>
        <time>2018-08-23T08:50:11.000Z</time>
      </trkpt>
      <trkpt lat="43.1804950" lon="-1.5926990">
        <ele>388.422974</ele>
        <time>2018-08-23T08:50:09.000Z</time>
      </trkpt>
      <trkpt lat="43.1804900" lon="-1.5929050">
        <ele>387.127991</ele>
        <time>2018-08-23T08:49:56.000Z</time>
      </trkpt>
      <trkpt lat="43.1804750" lon="-1.5929920">
        <ele>385.908020</ele>
        <time>2018-08-23T08:49:51.000Z</time>
      </trkpt>
      <trkpt lat="43.1804690" lon="-1.5931160">
        <ele>385.413971</ele>
        <time>2018-08-23T08:49:44.000Z</time>
      </trkpt>
      <trkpt lat="43.1804690" lon="-1.5931450">
        <ele>385.567993</ele>
        <time>2018-08-23T08:49:42.000Z</time>
      </trkpt>
      <trkpt lat="43.1803480" lon="-1.5934320">
        <ele>380.565002</ele>
        <time>2018-08-23T08:49:25.000Z</time>
      </trkpt>
      <trkpt lat="43.1802790" lon="-1.5935380">
        <ele>378.098999</ele>
        <time>2018-08-23T08:49:20.000Z</time>
      </trkpt>
      <trkpt lat="43.1802030" lon="-1.5936460">
        <ele>376.750000</ele>
        <time>2018-08-23T08:49:10.000Z</time>
      </trkpt>
      <trkpt lat="43.1800880" lon="-1.5937330">
        <ele>374.024017</ele>
        <time>2018-08-23T08:48:57.000Z</time>
      </trkpt>
      <trkpt lat="43.1799650" lon="-1.5938220">
        <ele>371.046997</ele>
        <time>2018-08-23T08:48:44.000Z</time>
      </trkpt>
      <trkpt lat="43.1799020" lon="-1.5939210">
        <ele>370.746002</ele>
        <time>2018-08-23T08:48:35.000Z</time>
      </trkpt>
      <trkpt lat="43.1798810" lon="-1.5939490">
        <ele>370.447998</ele>
        <time>2018-08-23T08:48:32.000Z</time>
      </trkpt>
      <trkpt lat="43.1797890" lon="-1.5941290">
        <ele>369.545990</ele>
        <time>2018-08-23T08:48:18.000Z</time>
      </trkpt>
      <trkpt lat="43.1797030" lon="-1.5943100">
        <ele>365.931000</ele>
        <time>2018-08-23T08:48:02.000Z</time>
      </trkpt>
      <trkpt lat="43.1796930" lon="-1.5943360">
        <ele>365.308014</ele>
        <time>2018-08-23T08:48:00.000Z</time>
      </trkpt>
      <trkpt lat="43.1796620" lon="-1.5945080">
        <ele>363.123993</ele>
        <time>2018-08-23T08:47:46.000Z</time>
      </trkpt>
      <trkpt lat="43.1795920" lon="-1.5948120">
        <ele>358.831024</ele>
        <time>2018-08-23T08:47:25.000Z</time>
      </trkpt>
      <trkpt lat="43.1795750" lon="-1.5949120">
        <ele>358.296021</ele>
        <time>2018-08-23T08:47:20.000Z</time>
      </trkpt>
      <trkpt lat="43.1795240" lon="-1.5950010">
        <ele>356.060974</ele>
        <time>2018-08-23T08:47:14.000Z</time>
      </trkpt>
      <trkpt lat="43.1793400" lon="-1.5952860">
        <ele>350.731995</ele>
        <time>2018-08-23T08:46:55.000Z</time>
      </trkpt>
      <trkpt lat="43.1791790" lon="-1.5955000">
        <ele>345.056000</ele>
        <time>2018-08-23T08:46:37.000Z</time>
      </trkpt>
      <trkpt lat="43.1790110" lon="-1.5955540">
        <ele>343.349030</ele>
        <time>2018-08-23T08:46:23.000Z</time>
      </trkpt>
      <trkpt lat="43.1789780" lon="-1.5955580">
        <ele>342.977997</ele>
        <time>2018-08-23T08:46:21.000Z</time>
      </trkpt>
      <trkpt lat="43.1787700" lon="-1.5957240">
        <ele>337.910004</ele>
        <time>2018-08-23T08:46:04.000Z</time>
      </trkpt>
      <trkpt lat="43.1785640" lon="-1.5959310">
        <ele>333.217987</ele>
        <time>2018-08-23T08:45:45.000Z</time>
      </trkpt>
      <trkpt lat="43.1783420" lon="-1.5961230">
        <ele>325.842987</ele>
        <time>2018-08-23T08:45:25.000Z</time>
      </trkpt>
      <trkpt lat="43.1781900" lon="-1.5962400">
        <ele>324.407990</ele>
        <time>2018-08-23T08:45:12.000Z</time>
      </trkpt>
      <trkpt lat="43.1781780" lon="-1.5962470">
        <ele>324.406982</ele>
        <time>2018-08-23T08:44:34.000Z</time>
      </trkpt>
      <trkpt lat="43.1781670" lon="-1.5962270">
        <ele>324.643005</ele>
        <time>2018-08-23T08:39:33.000Z</time>
      </trkpt>
      <trkpt lat="43.1781250" lon="-1.5961820">
        <ele>324.912994</ele>
        <time>2018-08-23T08:39:18.000Z</time>
      </trkpt>
      <trkpt lat="43.1780750" lon="-1.5960500">
        <ele>325.537994</ele>
        <time>2018-08-23T08:39:10.000Z</time>
      </trkpt>
      <trkpt lat="43.1780480" lon="-1.5959460">
        <ele>326.058990</ele>
        <time>2018-08-23T08:39:03.000Z</time>
      </trkpt>
      <trkpt lat="43.1780290" lon="-1.5959050">
        <ele>325.913025</ele>
        <time>2018-08-23T08:38:39.000Z</time>
      </trkpt>
      <trkpt lat="43.1780860" lon="-1.5958610">
        <ele>326.885986</ele>
        <time>2018-08-23T08:38:27.000Z</time>
      </trkpt>
      <trkpt lat="43.1782160" lon="-1.5957460">
        <ele>325.484985</ele>
        <time>2018-08-23T08:38:12.000Z</time>
      </trkpt>
      <trkpt lat="43.1782950" lon="-1.5956090">
        <ele>324.027008</ele>
        <time>2018-08-23T08:37:58.000Z</time>
      </trkpt>
      <trkpt lat="43.1783590" lon="-1.5954600">
        <ele>322.875000</ele>
        <time>2018-08-23T08:37:46.000Z</time>
      </trkpt>
      <trkpt lat="43.1783650" lon="-1.5954370">
        <ele>322.589996</ele>
        <time>2018-08-23T08:37:44.000Z</time>
      </trkpt>
      <trkpt lat="43.1784270" lon="-1.5952850">
        <ele>320.907990</ele>
        <time>2018-08-23T08:37:30.000Z</time>
      </trkpt>
      <trkpt lat="43.1784930" lon="-1.5951900">
        <ele>320.725983</ele>
        <time>2018-08-23T08:37:18.000Z</time>
      </trkpt>
      <trkpt lat="43.1785650" lon="-1.5950960">
        <ele>320.759979</ele>
        <time>2018-08-23T08:37:10.000Z</time>
      </trkpt>
      <trkpt lat="43.1786350" lon="-1.5949920">
        <ele>320.685974</ele>
        <time>2018-08-23T08:36:57.000Z</time>
      </trkpt>
      <trkpt lat="43.1786530" lon="-1.5948470">
        <ele>319.894012</ele>
        <time>2018-08-23T08:36:42.000Z</time>
      </trkpt>
      <trkpt lat="43.1786430" lon="-1.5947760">
        <ele>318.875000</ele>
        <time>2018-08-23T08:36:37.000Z</time>
      </trkpt>
      <trkpt lat="43.1786320" lon="-1.5947030">
        <ele>317.768982</ele>
        <time>2018-08-23T08:36:31.000Z</time>
      </trkpt>
      <trkpt lat="43.1786340" lon="-1.5945010">
        <ele>316.511993</ele>
        <time>2018-08-23T08:36:15.000Z</time>
      </trkpt>
      <trkpt lat="43.1786210" lon="-1.5944510">
        <ele>315.591003</ele>
        <time>2018-08-23T08:36:11.000Z</time>
      </trkpt>
      <trkpt lat="43.1786260" lon="-1.5943780">
        <ele>315.322998</ele>
        <time>2018-08-23T08:36:06.000Z</time>
      </trkpt>
      <trkpt lat="43.1785970" lon="-1.5942620">
        <ele>313.220978</ele>
        <time>2018-08-23T08:35:57.000Z</time>
      </trkpt>
      <trkpt lat="43.1785690" lon="-1.5941750">
        <ele>312.045990</ele>
        <time>2018-08-23T08:35:51.000Z</time>
      </trkpt>
      <trkpt lat="43.1785150" lon="-1.5941090">
        <ele>310.608002</ele>
        <time>2018-08-23T08:35:46.000Z</time>
      </trkpt>
      <trkpt lat="43.1784860" lon="-1.5940370">
        <ele>310.109009</ele>
        <time>2018-08-23T08:35:41.000Z</time>
      </trkpt>
      <trkpt lat="43.1783920" lon="-1.5939620">
        <ele>308.181000</ele>
        <time>2018-08-23T08:35:33.000Z</time>
      </trkpt>
      <trkpt lat="43.1783270" lon="-1.5939280">
        <ele>306.640991</ele>
        <time>2018-08-23T08:35:30.000Z</time>
      </trkpt>
      <trkpt lat="43.1782220" lon="-1.5939310">
        <ele>303.144989</ele>
        <time>2018-08-23T08:35:25.000Z</time>
      </trkpt>
      <trkpt lat="43.1781090" lon="-1.5940530">
        <ele>300.735992</ele>
        <time>2018-08-23T08:35:13.000Z</time>
      </trkpt>
      <trkpt lat="43.1780720" lon="-1.5940900">
        <ele>300.390015</ele>
        <time>2018-08-23T08:35:09.000Z</time>
      </trkpt>
      <trkpt lat="43.1779800" lon="-1.5942110">
        <ele>298.513000</ele>
        <time>2018-08-23T08:35:05.000Z</time>
      </trkpt>
      <trkpt lat="43.1779040" lon="-1.5943130">
        <ele>297.022003</ele>
        <time>2018-08-23T08:34:58.000Z</time>
      </trkpt>
      <trkpt lat="43.1777720" lon="-1.5944910">
        <ele>296.713989</ele>
        <time>2018-08-23T08:34:45.000Z</time>
      </trkpt>
      <trkpt lat="43.1776490" lon="-1.5946110">
        <ele>293.391998</ele>
        <time>2018-08-23T08:34:33.000Z</time>
      </trkpt>
      <trkpt lat="43.1775590" lon="-1.5947640">
        <ele>292.527008</ele>
        <time>2018-08-23T08:34:22.000Z</time>
      </trkpt>
      <trkpt lat="43.1775550" lon="-1.5947770">
        <ele>292.507996</ele>
        <time>2018-08-23T08:34:21.000Z</time>
      </trkpt>
      <trkpt lat="43.1773960" lon="-1.5949710">
        <ele>290.907990</ele>
        <time>2018-08-23T08:34:10.000Z</time>
      </trkpt>
      <trkpt lat="43.1773240" lon="-1.5950470">
        <ele>290.652985</ele>
        <time>2018-08-23T08:34:06.000Z</time>
      </trkpt>
      <trkpt lat="43.1772250" lon="-1.5951370">
        <ele>290.052002</ele>
        <time>2018-08-23T08:33:52.000Z</time>
      </trkpt>
      <trkpt lat="43.1771180" lon="-1.5951910">
        <ele>288.372009</ele>
        <time>2018-08-23T08:33:41.000Z</time>
      </trkpt>
      <trkpt lat="43.1768580" lon="-1.5953180">
        <ele>285.282990</ele>
        <time>2018-08-23T08:33:25.000Z</time>
      </trkpt>
      <trkpt lat="43.1768570" lon="-1.5953180">
        <ele>285.257019</ele>
        <time>2018-08-23T08:33:23.000Z</time>
      </trkpt>
      <trkpt lat="43.1767930" lon="-1.5953400">
        <ele>284.309998</ele>
        <time>2018-08-23T08:33:19.000Z</time>
      </trkpt>
      <trkpt lat="43.1766580" lon="-1.5955050">
        <ele>282.558990</ele>
        <time>2018-08-23T08:33:07.000Z</time>
      </trkpt>
      <trkpt lat="43.1766220" lon="-1.5955980">
        <ele>280.950989</ele>
        <time>2018-08-23T08:33:03.000Z</time>
      </trkpt>
      <trkpt lat="43.1765900" lon="-1.5956940">
        <ele>278.989014</ele>
        <time>2018-08-23T08:32:59.000Z</time>
      </trkpt>
      <trkpt lat="43.1766050" lon="-1.5958710">
        <ele>278.753998</ele>
        <time>2018-08-23T08:32:51.000Z</time>
      </trkpt>
      <trkpt lat="43.1766120" lon="-1.5959720">
        <ele>278.507996</ele>
        <time>2018-08-23T08:32:47.000Z</time>
      </trkpt>
      <trkpt lat="43.1765760" lon="-1.5962380">
        <ele>276.110992</ele>
        <time>2018-08-23T08:32:33.000Z</time>
      </trkpt>
      <trkpt lat="43.1765370" lon="-1.5963150">
        <ele>274.247009</ele>
        <time>2018-08-23T08:32:29.000Z</time>
      </trkpt>
      <trkpt lat="43.1764700" lon="-1.5966070">
        <ele>271.425995</ele>
        <time>2018-08-23T08:32:15.000Z</time>
      </trkpt>
      <trkpt lat="43.1764910" lon="-1.5966760">
        <ele>272.376984</ele>
        <time>2018-08-23T08:32:11.000Z</time>
      </trkpt>
      <trkpt lat="43.1765010" lon="-1.5967430">
        <ele>271.938019</ele>
        <time>2018-08-23T08:32:08.000Z</time>
      </trkpt>
      <trkpt lat="43.1764880" lon="-1.5968680">
        <ele>269.811981</ele>
        <time>2018-08-23T08:32:03.000Z</time>
      </trkpt>
      <trkpt lat="43.1765820" lon="-1.5969790">
        <ele>270.824982</ele>
        <time>2018-08-23T08:31:55.000Z</time>
      </trkpt>
      <trkpt lat="43.1767230" lon="-1.5971690">
        <ele>269.924011</ele>
        <time>2018-08-23T08:31:43.000Z</time>
      </trkpt>
      <trkpt lat="43.1768140" lon="-1.5973220">
        <ele>269.096008</ele>
        <time>2018-08-23T08:31:34.000Z</time>
      </trkpt>
      <trkpt lat="43.1768890" lon="-1.5974150">
        <ele>267.723999</ele>
        <time>2018-08-23T08:31:28.000Z</time>
      </trkpt>
      <trkpt lat="43.1768980" lon="-1.5974490">
        <ele>266.658997</ele>
        <time>2018-08-23T08:31:26.000Z</time>
      </trkpt>
      <trkpt lat="43.1769280" lon="-1.5975190">
        <ele>264.707977</ele>
        <time>2018-08-23T08:31:23.000Z</time>
      </trkpt>
      <trkpt lat="43.1769600" lon="-1.5976360">
        <ele>263.626007</ele>
        <time>2018-08-23T08:31:19.000Z</time>
      </trkpt>
      <trkpt lat="43.1769810" lon="-1.5980780">
        <ele>265.032990</ele>
        <time>2018-08-23T08:31:05.000Z</time>
      </trkpt>
      <trkpt lat="43.1770620" lon="-1.5985250">
        <ele>260.977997</ele>
        <time>2018-08-23T08:30:50.000Z</time>
      </trkpt>
      <trkpt lat="43.1770760" lon="-1.5986300">
        <ele>260.096985</ele>
        <time>2018-08-23T08:30:46.000Z</time>
      </trkpt>
      <trkpt lat="43.1770550" lon="-1.5987410">
        <ele>259.067993</ele>
        <time>2018-08-23T08:30:41.000Z</time>
      </trkpt>
      <trkpt lat="43.1768700" lon="-1.5989610">
        <ele>256.842010</ele>
        <time>2018-08-23T08:30:32.000Z</time>
      </trkpt>
      <trkpt lat="43.1765010" lon="-1.5991020">
        <ele>257.024994</ele>
        <time>2018-08-23T08:30:20.000Z</time>
      </trkpt>
      <trkpt lat="43.1764010" lon="-1.5991660">
        <ele>256.183990</ele>
        <time>2018-08-23T08:30:16.000Z</time>
      </trkpt>
      <trkpt lat="43.1762330" lon="-1.5996320">
        <ele>257.395996</ele>
        <time>2018-08-23T08:30:05.000Z</time>
      </trkpt>
      <trkpt lat="43.1758880" lon="-1.5999890">
        <ele>253.383987</ele>
        <time>2018-08-23T08:29:54.000Z</time>
      </trkpt>
      <trkpt lat="43.1757240" lon="-1.6001980">
        <ele>253.649002</ele>
        <time>2018-08-23T08:29:44.000Z</time>
      </trkpt>
      <trkpt lat="43.1758740" lon="-1.6007300">
        <ele>252.008011</ele>
        <time>2018-08-23T08:29:27.000Z</time>
      </trkpt>
      <trkpt lat="43.1761430" lon="-1.6010640">
        <ele>250.727005</ele>
        <time>2018-08-23T08:29:13.000Z</time>
      </trkpt>
      <trkpt lat="43.1762830" lon="-1.6012810">
        <ele>251.660995</ele>
        <time>2018-08-23T08:29:08.000Z</time>
      </trkpt>
      <trkpt lat="43.1761860" lon="-1.6016750">
        <ele>248.977005</ele>
        <time>2018-08-23T08:28:58.000Z</time>
      </trkpt>
      <trkpt lat="43.1759110" lon="-1.6019520">
        <ele>249.524002</ele>
        <time>2018-08-23T08:28:46.000Z</time>
      </trkpt>
      <trkpt lat="43.1756630" lon="-1.6021280">
        <ele>251.194992</ele>
        <time>2018-08-23T08:28:36.000Z</time>
      </trkpt>
      <trkpt lat="43.1753650" lon="-1.6021790">
        <ele>250.819000</ele>
        <time>2018-08-23T08:28:29.000Z</time>
      </trkpt>
      <trkpt lat="43.1751960" lon="-1.6021970">
        <ele>250.841995</ele>
        <time>2018-08-23T08:28:23.000Z</time>
      </trkpt>
      <trkpt lat="43.1749250" lon="-1.6022710">
        <ele>252.591003</ele>
        <time>2018-08-23T08:28:12.000Z</time>
      </trkpt>
      <trkpt lat="43.1746350" lon="-1.6022580">
        <ele>250.112991</ele>
        <time>2018-08-23T08:27:57.000Z</time>
      </trkpt>
      <trkpt lat="43.1745490" lon="-1.6022280">
        <ele>248.611008</ele>
        <time>2018-08-23T08:27:53.000Z</time>
      </trkpt>
      <trkpt lat="43.1743360" lon="-1.6022710">
        <ele>246.026001</ele>
        <time>2018-08-23T08:27:42.000Z</time>
      </trkpt>
      <trkpt lat="43.1742580" lon="-1.6023410">
        <ele>245.608002</ele>
        <time>2018-08-23T08:27:38.000Z</time>
      </trkpt>
      <trkpt lat="43.1740760" lon="-1.6025380">
        <ele>244.313995</ele>
        <time>2018-08-23T08:27:27.000Z</time>
      </trkpt>
      <trkpt lat="43.1740570" lon="-1.6026000">
        <ele>244.822006</ele>
        <time>2018-08-23T08:27:24.000Z</time>
      </trkpt>
      <trkpt lat="43.1740110" lon="-1.6027320">
        <ele>245.242004</ele>
        <time>2018-08-23T08:27:18.000Z</time>
      </trkpt>
      <trkpt lat="43.1738940" lon="-1.6030810">
        <ele>243.756989</ele>
        <time>2018-08-23T08:27:03.000Z</time>
      </trkpt>
      <trkpt lat="43.1737950" lon="-1.6033960">
        <ele>244.287994</ele>
        <time>2018-08-23T08:26:49.000Z</time>
      </trkpt>
      <trkpt lat="43.1736840" lon="-1.6035500">
        <ele>244.151993</ele>
        <time>2018-08-23T08:26:43.000Z</time>
      </trkpt>
      <trkpt lat="43.1735660" lon="-1.6036350">
        <ele>243.345001</ele>
        <time>2018-08-23T08:26:36.000Z</time>
      </trkpt>
      <trkpt lat="43.1733320" lon="-1.6036680">
        <ele>240.483994</ele>
        <time>2018-08-23T08:26:22.000Z</time>
      </trkpt>
      <trkpt lat="43.1732710" lon="-1.6036620">
        <ele>240.036011</ele>
        <time>2018-08-23T08:26:18.000Z</time>
      </trkpt>
      <trkpt lat="43.1730800" lon="-1.6038350">
        <ele>240.253998</ele>
        <time>2018-08-23T08:26:05.000Z</time>
      </trkpt>
      <trkpt lat="43.1729940" lon="-1.6042010">
        <ele>235.269012</ele>
        <time>2018-08-23T08:25:49.000Z</time>
      </trkpt>
      <trkpt lat="43.1728470" lon="-1.6044610">
        <ele>231.608002</ele>
        <time>2018-08-23T08:25:35.000Z</time>
      </trkpt>
      <trkpt lat="43.1726120" lon="-1.6047720">
        <ele>230.113007</ele>
        <time>2018-08-23T08:25:21.000Z</time>
      </trkpt>
      <trkpt lat="43.1724250" lon="-1.6050150">
        <ele>229.285004</ele>
        <time>2018-08-23T08:25:12.000Z</time>
      </trkpt>
      <trkpt lat="43.1724100" lon="-1.6050420">
        <ele>229.072998</ele>
        <time>2018-08-23T08:25:10.000Z</time>
      </trkpt>
      <trkpt lat="43.1723250" lon="-1.6055180">
        <ele>227.677002</ele>
        <time>2018-08-23T08:24:56.000Z</time>
      </trkpt>
      <trkpt lat="43.1721390" lon="-1.6057540">
        <ele>228.268005</ele>
        <time>2018-08-23T08:24:47.000Z</time>
      </trkpt>
      <trkpt lat="43.1719130" lon="-1.6060000">
        <ele>227.391998</ele>
        <time>2018-08-23T08:24:35.000Z</time>
      </trkpt>
      <trkpt lat="43.1716310" lon="-1.6062430">
        <ele>227.955002</ele>
        <time>2018-08-23T08:24:19.000Z</time>
      </trkpt>
      <trkpt lat="43.1714410" lon="-1.6064770">
        <ele>225.513992</ele>
        <time>2018-08-23T08:24:08.000Z</time>
      </trkpt>
      <trkpt lat="43.1712300" lon="-1.6066650">
        <ele>225.125992</ele>
        <time>2018-08-23T08:23:57.000Z</time>
      </trkpt>
      <trkpt lat="43.1710200" lon="-1.6068320">
        <ele>224.313995</ele>
        <time>2018-08-23T08:23:46.000Z</time>
      </trkpt>
      <trkpt lat="43.1708790" lon="-1.6071430">
        <ele>222.249008</ele>
        <time>2018-08-23T08:23:34.000Z</time>
      </trkpt>
      <trkpt lat="43.1706820" lon="-1.6074460">
        <ele>221.208008</ele>
        <time>2018-08-23T08:23:24.000Z</time>
      </trkpt>
      <trkpt lat="43.1706110" lon="-1.6075060">
        <ele>220.426010</ele>
        <time>2018-08-23T08:23:21.000Z</time>
      </trkpt>
      <trkpt lat="43.1704540" lon="-1.6076540">
        <ele>219.932999</ele>
        <time>2018-08-23T08:23:14.000Z</time>
      </trkpt>
      <trkpt lat="43.1701530" lon="-1.6079400">
        <ele>218.977997</ele>
        <time>2018-08-23T08:22:59.000Z</time>
      </trkpt>
      <trkpt lat="43.1699380" lon="-1.6079530">
        <ele>217.998001</ele>
        <time>2018-08-23T08:22:50.000Z</time>
      </trkpt>
      <trkpt lat="43.1698140" lon="-1.6079600">
        <ele>217.029007</ele>
        <time>2018-08-23T08:22:45.000Z</time>
      </trkpt>
      <trkpt lat="43.1696100" lon="-1.6080770">
        <ele>215.992996</ele>
        <time>2018-08-23T08:22:36.000Z</time>
      </trkpt>
      <trkpt lat="43.1694810" lon="-1.6082180">
        <ele>216.316010</ele>
        <time>2018-08-23T08:22:29.000Z</time>
      </trkpt>
      <trkpt lat="43.1692280" lon="-1.6083840">
        <ele>214.654984</ele>
        <time>2018-08-23T08:22:15.000Z</time>
      </trkpt>
      <trkpt lat="43.1691420" lon="-1.6084440">
        <ele>215.027008</ele>
        <time>2018-08-23T08:22:12.000Z</time>
      </trkpt>
      <trkpt lat="43.1689590" lon="-1.6086200">
        <ele>214.724991</ele>
        <time>2018-08-23T08:22:03.000Z</time>
      </trkpt>
      <trkpt lat="43.1688100" lon="-1.6087740">
        <ele>213.690002</ele>
        <time>2018-08-23T08:21:53.000Z</time>
      </trkpt>
      <trkpt lat="43.1686690" lon="-1.6089800">
        <ele>213.108002</ele>
        <time>2018-08-23T08:21:45.000Z</time>
      </trkpt>
      <trkpt lat="43.1684850" lon="-1.6091580">
        <ele>211.225998</ele>
        <time>2018-08-23T08:21:36.000Z</time>
      </trkpt>
      <trkpt lat="43.1683030" lon="-1.6093900">
        <ele>210.759995</ele>
        <time>2018-08-23T08:21:23.000Z</time>
      </trkpt>
      <trkpt lat="43.1683120" lon="-1.6094230">
        <ele>211.386002</ele>
        <time>2018-08-23T08:21:21.000Z</time>
      </trkpt>
      <trkpt lat="43.1682780" lon="-1.6095750">
        <ele>210.458008</ele>
        <time>2018-08-23T08:21:15.000Z</time>
      </trkpt>
      <trkpt lat="43.1682060" lon="-1.6098590">
        <ele>208.729004</ele>
        <time>2018-08-23T08:21:03.000Z</time>
      </trkpt>
      <trkpt lat="43.1681720" lon="-1.6099370">
        <ele>208.153000</ele>
        <time>2018-08-23T08:20:59.000Z</time>
      </trkpt>
      <trkpt lat="43.1681020" lon="-1.6100370">
        <ele>207.315994</ele>
        <time>2018-08-23T08:20:54.000Z</time>
      </trkpt>
      <trkpt lat="43.1679720" lon="-1.6101740">
        <ele>207.444992</ele>
        <time>2018-08-23T08:20:47.000Z</time>
      </trkpt>
      <trkpt lat="43.1679130" lon="-1.6102030">
        <ele>206.957001</ele>
        <time>2018-08-23T08:20:44.000Z</time>
      </trkpt>
      <trkpt lat="43.1677750" lon="-1.6103280">
        <ele>205.324997</ele>
        <time>2018-08-23T08:20:39.000Z</time>
      </trkpt>
      <trkpt lat="43.1676010" lon="-1.6104950">
        <ele>205.689987</ele>
        <time>2018-08-23T08:20:29.000Z</time>
      </trkpt>
      <trkpt lat="43.1674410" lon="-1.6107300">
        <ele>204.307999</ele>
        <time>2018-08-23T08:20:19.000Z</time>
      </trkpt>
      <trkpt lat="43.1672470" lon="-1.6108880">
        <ele>203.516998</ele>
        <time>2018-08-23T08:20:10.000Z</time>
      </trkpt>
      <trkpt lat="43.1668370" lon="-1.6112450">
        <ele>201.943008</ele>
        <time>2018-08-23T08:19:59.000Z</time>
      </trkpt>
      <trkpt lat="43.1664590" lon="-1.6114590">
        <ele>199.881989</ele>
        <time>2018-08-23T08:19:47.000Z</time>
      </trkpt>
      <trkpt lat="43.1661920" lon="-1.6115510">
        <ele>201.221008</ele>
        <time>2018-08-23T08:19:36.000Z</time>
      </trkpt>
      <trkpt lat="43.1660160" lon="-1.6117400">
        <ele>201.152008</ele>
        <time>2018-08-23T08:19:29.000Z</time>
      </trkpt>
      <trkpt lat="43.1659470" lon="-1.6118840">
        <ele>200.576004</ele>
        <time>2018-08-23T08:19:22.000Z</time>
      </trkpt>
      <trkpt lat="43.1658180" lon="-1.6120860">
        <ele>198.998993</ele>
        <time>2018-08-23T08:19:15.000Z</time>
      </trkpt>
      <trkpt lat="43.1656760" lon="-1.6123200">
        <ele>198.688004</ele>
        <time>2018-08-23T08:19:05.000Z</time>
      </trkpt>
      <trkpt lat="43.1654960" lon="-1.6125630">
        <ele>197.860001</ele>
        <time>2018-08-23T08:18:55.000Z</time>
      </trkpt>
      <trkpt lat="43.1653050" lon="-1.6127360">
        <ele>197.047989</ele>
        <time>2018-08-23T08:18:47.000Z</time>
      </trkpt>
      <trkpt lat="43.1649100" lon="-1.6131410">
        <ele>194.162994</ele>
        <time>2018-08-23T08:18:39.000Z</time>
      </trkpt>
      <trkpt lat="43.1647320" lon="-1.6132480">
        <ele>194.907990</ele>
        <time>2018-08-23T08:18:32.000Z</time>
      </trkpt>
      <trkpt lat="43.1646290" lon="-1.6132700">
        <ele>195.309006</ele>
        <time>2018-08-23T08:18:24.000Z</time>
      </trkpt>
      <trkpt lat="43.1645760" lon="-1.6133320">
        <ele>195.053986</ele>
        <time>2018-08-23T08:18:18.000Z</time>
      </trkpt>
      <trkpt lat="43.1645490" lon="-1.6133600">
        <ele>195.214005</ele>
        <time>2018-08-23T08:17:35.000Z</time>
      </trkpt>
      <trkpt lat="43.1646110" lon="-1.6133490">
        <ele>195.233002</ele>
        <time>2018-08-23T08:17:19.000Z</time>
      </trkpt>
      <trkpt lat="43.1646980" lon="-1.6132940">
        <ele>195.024002</ele>
        <time>2018-08-23T08:17:09.000Z</time>
      </trkpt>
      <trkpt lat="43.1646590" lon="-1.6133060">
        <ele>195.178009</ele>
        <time>2018-08-23T08:17:05.000Z</time>
      </trkpt>
      <trkpt lat="43.1646350" lon="-1.6133340">
        <ele>195.030991</ele>
        <time>2018-08-23T08:17:03.000Z</time>
      </trkpt>
      <trkpt lat="43.1645900" lon="-1.6133430">
        <ele>195.130005</ele>
        <time>2018-08-23T08:15:01.000Z</time>
      </trkpt>
      <trkpt lat="43.1645780" lon="-1.6133050">
        <ele>195.242004</ele>
        <time>2018-08-23T08:14:33.000Z</time>
      </trkpt>
      <trkpt lat="43.1644950" lon="-1.6133640">
        <ele>195.250000</ele>
        <time>2018-08-23T08:14:26.000Z</time>
      </trkpt>
      <trkpt lat="43.1642910" lon="-1.6135770">
        <ele>194.395004</ele>
        <time>2018-08-23T08:14:16.000Z</time>
      </trkpt>
      <trkpt lat="43.1639790" lon="-1.6138540">
        <ele>195.108002</ele>
        <time>2018-08-23T08:14:02.000Z</time>
      </trkpt>
      <trkpt lat="43.1638550" lon="-1.6138710">
        <ele>194.920990</ele>
        <time>2018-08-23T08:13:57.000Z</time>
      </trkpt>
      <trkpt lat="43.1638320" lon="-1.6138620">
        <ele>194.801010</ele>
        <time>2018-08-23T08:13:56.000Z</time>
      </trkpt>
      <trkpt lat="43.1634900" lon="-1.6136970">
        <ele>194.138992</ele>
        <time>2018-08-23T08:13:44.000Z</time>
      </trkpt>
      <trkpt lat="43.1631530" lon="-1.6133290">
        <ele>195.276001</ele>
        <time>2018-08-23T08:13:33.000Z</time>
      </trkpt>
      <trkpt lat="43.1631190" lon="-1.6129660">
        <ele>195.196991</ele>
        <time>2018-08-23T08:13:25.000Z</time>
      </trkpt>
      <trkpt lat="43.1630230" lon="-1.6127150">
        <ele>194.630997</ele>
        <time>2018-08-23T08:13:17.000Z</time>
      </trkpt>
      <trkpt lat="43.1629120" lon="-1.6125420">
        <ele>193.744003</ele>
        <time>2018-08-23T08:13:09.000Z</time>
      </trkpt>
      <trkpt lat="43.1628850" lon="-1.6125420">
        <ele>194.153000</ele>
        <time>2018-08-23T08:13:08.000Z</time>
      </trkpt>
      <trkpt lat="43.1627630" lon="-1.6125040">
        <ele>195.184998</ele>
        <time>2018-08-23T08:13:02.000Z</time>
      </trkpt>
      <trkpt lat="43.1627390" lon="-1.6124680">
        <ele>194.492996</ele>
        <time>2018-08-23T08:13:00.000Z</time>
      </trkpt>
      <trkpt lat="43.1626800" lon="-1.6124440">
        <ele>194.057999</ele>
        <time>2018-08-23T08:12:56.000Z</time>
      </trkpt>
      <trkpt lat="43.1626660" lon="-1.6124380">
        <ele>193.907990</ele>
        <time>2018-08-23T08:12:55.000Z</time>
      </trkpt>
      <trkpt lat="43.1623970" lon="-1.6123150">
        <ele>190.526001</ele>
        <time>2018-08-23T08:12:38.000Z</time>
      </trkpt>
      <trkpt lat="43.1622770" lon="-1.6122750">
        <ele>189.442001</ele>
        <time>2018-08-23T08:12:32.000Z</time>
      </trkpt>
      <trkpt lat="43.1621300" lon="-1.6122650">
        <ele>188.367996</ele>
        <time>2018-08-23T08:12:26.000Z</time>
      </trkpt>
      <trkpt lat="43.1620510" lon="-1.6122530">
        <ele>187.494995</ele>
        <time>2018-08-23T08:12:21.000Z</time>
      </trkpt>
      <trkpt lat="43.1619900" lon="-1.6122540">
        <ele>186.975998</ele>
        <time>2018-08-23T08:12:17.000Z</time>
      </trkpt>
      <trkpt lat="43.1618280" lon="-1.6122600">
        <ele>185.630005</ele>
        <time>2018-08-23T08:12:08.000Z</time>
      </trkpt>
      <trkpt lat="43.1615980" lon="-1.6123430">
        <ele>184.283005</ele>
        <time>2018-08-23T08:11:54.000Z</time>
      </trkpt>
      <trkpt lat="43.1613660" lon="-1.6123070">
        <ele>183.631989</ele>
        <time>2018-08-23T08:11:44.000Z</time>
      </trkpt>
      <trkpt lat="43.1613110" lon="-1.6123050">
        <ele>183.524002</ele>
        <time>2018-08-23T08:11:42.000Z</time>
      </trkpt>
      <trkpt lat="43.1610170" lon="-1.6123300">
        <ele>183.141998</ele>
        <time>2018-08-23T08:11:32.000Z</time>
      </trkpt>
      <trkpt lat="43.1609730" lon="-1.6123160">
        <ele>183.027008</ele>
        <time>2018-08-23T08:11:30.000Z</time>
      </trkpt>
      <trkpt lat="43.1608400" lon="-1.6123420">
        <ele>183.307999</ele>
        <time>2018-08-23T08:11:26.000Z</time>
      </trkpt>
      <trkpt lat="43.1607860" lon="-1.6123390">
        <ele>183.117004</ele>
        <time>2018-08-23T08:11:24.000Z</time>
      </trkpt>
      <trkpt lat="43.1604970" lon="-1.6123960">
        <ele>182.552002</ele>
        <time>2018-08-23T08:11:15.000Z</time>
      </trkpt>
      <trkpt lat="43.1601730" lon="-1.6124390">
        <ele>181.358002</ele>
        <time>2018-08-23T08:11:02.000Z</time>
      </trkpt>
      <trkpt lat="43.1600750" lon="-1.6124810">
        <ele>180.721008</ele>
        <time>2018-08-23T08:10:59.000Z</time>
      </trkpt>
      <trkpt lat="43.1600320" lon="-1.6124700">
        <ele>180.641998</ele>
        <time>2018-08-23T08:10:57.000Z</time>
      </trkpt>
      <trkpt lat="43.1596350" lon="-1.6127200">
        <ele>178.536011</ele>
        <time>2018-08-23T08:10:49.000Z</time>
      </trkpt>
      <trkpt lat="43.1593740" lon="-1.6127880">
        <ele>178.119003</ele>
        <time>2018-08-23T08:10:40.000Z</time>
      </trkpt>
      <trkpt lat="43.1590210" lon="-1.6127990">
        <ele>178.278000</ele>
        <time>2018-08-23T08:10:27.000Z</time>
      </trkpt>
      <trkpt lat="43.1589220" lon="-1.6128320">
        <ele>178.540009</ele>
        <time>2018-08-23T08:10:24.000Z</time>
      </trkpt>
      <trkpt lat="43.1586520" lon="-1.6128410">
        <ele>178.417999</ele>
        <time>2018-08-23T08:10:15.000Z</time>
      </trkpt>
      <trkpt lat="43.1583860" lon="-1.6128480">
        <ele>178.362991</ele>
        <time>2018-08-23T08:10:07.000Z</time>
      </trkpt>
      <trkpt lat="43.1579660" lon="-1.6128930">
        <ele>178.307999</ele>
        <time>2018-08-23T08:09:56.000Z</time>
      </trkpt>
      <trkpt lat="43.1576700" lon="-1.6128670">
        <ele>180.202988</ele>
        <time>2018-08-23T08:09:50.000Z</time>
      </trkpt>
      <trkpt lat="43.1573190" lon="-1.6126260">
        <ele>180.020996</ele>
        <time>2018-08-23T08:09:42.000Z</time>
      </trkpt>
      <trkpt lat="43.1570800" lon="-1.6124700">
        <ele>179.611008</ele>
        <time>2018-08-23T08:09:35.000Z</time>
      </trkpt>
      <trkpt lat="43.1566330" lon="-1.6126070">
        <ele>180.161011</ele>
        <time>2018-08-23T08:09:16.000Z</time>
      </trkpt>
      <trkpt lat="43.1562430" lon="-1.6127900">
        <ele>177.362000</ele>
        <time>2018-08-23T08:08:58.000Z</time>
      </trkpt>
      <trkpt lat="43.1555960" lon="-1.6128340">
        <ele>175.995987</ele>
        <time>2018-08-23T08:08:39.000Z</time>
      </trkpt>
      <trkpt lat="43.1553360" lon="-1.6130730">
        <ele>176.149002</ele>
        <time>2018-08-23T08:08:32.000Z</time>
      </trkpt>
      <trkpt lat="43.1552210" lon="-1.6134510">
        <ele>176.388000</ele>
        <time>2018-08-23T08:08:27.000Z</time>
      </trkpt>
      <trkpt lat="43.1552580" lon="-1.6137940">
        <ele>177.730011</ele>
        <time>2018-08-23T08:08:19.000Z</time>
      </trkpt>
      <trkpt lat="43.1552800" lon="-1.6141700">
        <ele>178.237991</ele>
        <time>2018-08-23T08:08:09.000Z</time>
      </trkpt>
      <trkpt lat="43.1550720" lon="-1.6147120">
        <ele>180.962997</ele>
        <time>2018-08-23T08:07:53.000Z</time>
      </trkpt>
      <trkpt lat="43.1549960" lon="-1.6147850">
        <ele>180.108002</ele>
        <time>2018-08-23T08:07:50.000Z</time>
      </trkpt>
      <trkpt lat="43.1549120" lon="-1.6148500">
        <ele>179.813004</ele>
        <time>2018-08-23T08:07:46.000Z</time>
      </trkpt>
      <trkpt lat="43.1548730" lon="-1.6147870">
        <ele>178.476013</ele>
        <time>2018-08-23T08:07:40.000Z</time>
      </trkpt>
      <trkpt lat="43.1548370" lon="-1.6143320">
        <ele>178.816010</ele>
        <time>2018-08-23T08:07:26.000Z</time>
      </trkpt>
      <trkpt lat="43.1549260" lon="-1.6136860">
        <ele>178.257004</ele>
        <time>2018-08-23T08:07:14.000Z</time>
      </trkpt>
      <trkpt lat="43.1548540" lon="-1.6132070">
        <ele>180.257996</ele>
        <time>2018-08-23T08:07:02.000Z</time>
      </trkpt>
      <trkpt lat="43.1545860" lon="-1.6126970">
        <ele>180.271988</ele>
        <time>2018-08-23T08:06:47.000Z</time>
      </trkpt>
      <trkpt lat="43.1541980" lon="-1.6122510">
        <ele>182.475006</ele>
        <time>2018-08-23T08:06:31.000Z</time>
      </trkpt>
      <trkpt lat="43.1540910" lon="-1.6120600">
        <ele>181.134003</ele>
        <time>2018-08-23T08:06:25.000Z</time>
      </trkpt>
      <trkpt lat="43.1539980" lon="-1.6119990">
        <ele>182.445999</ele>
        <time>2018-08-23T08:06:22.000Z</time>
      </trkpt>
      <trkpt lat="43.1539080" lon="-1.6118730">
        <ele>181.154007</ele>
        <time>2018-08-23T08:06:18.000Z</time>
      </trkpt>
      <trkpt lat="43.1536040" lon="-1.6115530">
        <ele>176.129013</ele>
        <time>2018-08-23T08:06:04.000Z</time>
      </trkpt>
      <trkpt lat="43.1535760" lon="-1.6115370">
        <ele>175.707993</ele>
        <time>2018-08-23T08:06:03.000Z</time>
      </trkpt>
      <trkpt lat="43.1531890" lon="-1.6114300">
        <ele>173.219009</ele>
        <time>2018-08-23T08:05:50.000Z</time>
      </trkpt>
      <trkpt lat="43.1529090" lon="-1.6113130">
        <ele>173.989990</ele>
        <time>2018-08-23T08:05:38.000Z</time>
      </trkpt>
      <trkpt lat="43.1525800" lon="-1.6111560">
        <ele>174.876007</ele>
        <time>2018-08-23T08:05:24.000Z</time>
      </trkpt>
      <trkpt lat="43.1525610" lon="-1.6111510">
        <ele>174.978989</ele>
        <time>2018-08-23T08:05:00.000Z</time>
      </trkpt>
      <trkpt lat="43.1525370" lon="-1.6111260">
        <ele>174.220001</ele>
        <time>2018-08-23T08:04:38.000Z</time>
      </trkpt>
      <trkpt lat="43.1522440" lon="-1.6109750">
        <ele>174.333984</ele>
        <time>2018-08-23T08:04:26.000Z</time>
      </trkpt>
      <trkpt lat="43.1519680" lon="-1.6109330">
        <ele>172.336990</ele>
        <time>2018-08-23T08:04:17.000Z</time>
      </trkpt>
      <trkpt lat="43.1519410" lon="-1.6109220">
        <ele>171.996002</ele>
        <time>2018-08-23T08:04:16.000Z</time>
      </trkpt>
      <trkpt lat="43.1516280" lon="-1.6108900">
        <ele>169.878006</ele>
        <time>2018-08-23T08:04:04.000Z</time>
      </trkpt>
      <trkpt lat="43.1513690" lon="-1.6108430">
        <ele>170.195999</ele>
        <time>2018-08-23T08:03:54.000Z</time>
      </trkpt>
      <trkpt lat="43.1511210" lon="-1.6107790">
        <ele>169.451004</ele>
        <time>2018-08-23T08:03:38.000Z</time>
      </trkpt>
      <trkpt lat="43.1511160" lon="-1.6107810">
        <ele>169.408005</ele>
        <time>2018-08-23T08:03:33.000Z</time>
      </trkpt>
      <trkpt lat="43.1511020" lon="-1.6107830">
        <ele>169.425995</ele>
        <time>2018-08-23T08:01:21.000Z</time>
      </trkpt>
      <trkpt lat="43.1510700" lon="-1.6107390">
        <ele>168.914993</ele>
        <time>2018-08-23T08:01:09.000Z</time>
      </trkpt>
      <trkpt lat="43.1508240" lon="-1.6106450">
        <ele>166.798004</ele>
        <time>2018-08-23T08:00:56.000Z</time>
      </trkpt>
      <trkpt lat="43.1504460" lon="-1.6106730">
        <ele>169.474014</ele>
        <time>2018-08-23T08:00:44.000Z</time>
      </trkpt>
      <trkpt lat="43.1500480" lon="-1.6107040">
        <ele>168.955002</ele>
        <time>2018-08-23T08:00:30.000Z</time>
      </trkpt>
      <trkpt lat="43.1497440" lon="-1.6107240">
        <ele>168.018997</ele>
        <time>2018-08-23T08:00:18.000Z</time>
      </trkpt>
      <trkpt lat="43.1493460" lon="-1.6106870">
        <ele>167.052002</ele>
        <time>2018-08-23T08:00:04.000Z</time>
      </trkpt>
      <trkpt lat="43.1488430" lon="-1.6105870">
        <ele>167.520996</ele>
        <time>2018-08-23T07:59:43.000Z</time>
      </trkpt>
      <trkpt lat="43.1483800" lon="-1.6105380">
        <ele>165.182999</ele>
        <time>2018-08-23T07:59:25.000Z</time>
      </trkpt>
      <trkpt lat="43.1480450" lon="-1.6104500">
        <ele>164.531006</ele>
        <time>2018-08-23T07:59:12.000Z</time>
      </trkpt>
      <trkpt lat="43.1479270" lon="-1.6103910">
        <ele>164.356003</ele>
        <time>2018-08-23T07:59:07.000Z</time>
      </trkpt>
      <trkpt lat="43.1478810" lon="-1.6103690">
        <ele>164.107986</ele>
        <time>2018-08-23T07:59:05.000Z</time>
      </trkpt>
      <trkpt lat="43.1475860" lon="-1.6102660">
        <ele>162.815994</ele>
        <time>2018-08-23T07:58:53.000Z</time>
      </trkpt>
      <trkpt lat="43.1472690" lon="-1.6101940">
        <ele>161.788010</ele>
        <time>2018-08-23T07:58:41.000Z</time>
      </trkpt>
      <trkpt lat="43.1469570" lon="-1.6099590">
        <ele>160.545990</ele>
        <time>2018-08-23T07:58:29.000Z</time>
      </trkpt>
      <trkpt lat="43.1465660" lon="-1.6095100">
        <ele>161.028992</ele>
        <time>2018-08-23T07:58:16.000Z</time>
      </trkpt>
      <trkpt lat="43.1462890" lon="-1.6091830">
        <ele>158.690002</ele>
        <time>2018-08-23T07:58:06.000Z</time>
      </trkpt>
      <trkpt lat="43.1459420" lon="-1.6088740">
        <ele>159.274002</ele>
        <time>2018-08-23T07:57:55.000Z</time>
      </trkpt>
      <trkpt lat="43.1455070" lon="-1.6087160">
        <ele>160.677002</ele>
        <time>2018-08-23T07:57:43.000Z</time>
      </trkpt>
      <trkpt lat="43.1451080" lon="-1.6088860">
        <ele>162.436005</ele>
        <time>2018-08-23T07:57:33.000Z</time>
      </trkpt>
      <trkpt lat="43.1448190" lon="-1.6090010">
        <ele>161.728012</ele>
        <time>2018-08-23T07:57:23.000Z</time>
      </trkpt>
      <trkpt lat="43.1446220" lon="-1.6090960">
        <ele>160.326004</ele>
        <time>2018-08-23T07:57:12.000Z</time>
      </trkpt>
      <trkpt lat="43.1443790" lon="-1.6092960">
        <ele>159.790985</ele>
        <time>2018-08-23T07:57:02.000Z</time>
      </trkpt>
      <trkpt lat="43.1442030" lon="-1.6094880">
        <ele>159.708008</ele>
        <time>2018-08-23T07:56:57.000Z</time>
      </trkpt>
      <trkpt lat="43.1439930" lon="-1.6096100">
        <ele>157.626007</ele>
        <time>2018-08-23T07:56:46.000Z</time>
      </trkpt>
      <trkpt lat="43.1436960" lon="-1.6098410">
        <ele>154.615005</ele>
        <time>2018-08-23T07:56:34.000Z</time>
      </trkpt>
      <trkpt lat="43.1433300" lon="-1.6100100">
        <ele>153.197998</ele>
        <time>2018-08-23T07:56:20.000Z</time>
      </trkpt>
      <trkpt lat="43.1429480" lon="-1.6103280">
        <ele>152.944000</ele>
        <time>2018-08-23T07:56:06.000Z</time>
      </trkpt>
      <trkpt lat="43.1426960" lon="-1.6106550">
        <ele>154.315002</ele>
        <time>2018-08-23T07:55:57.000Z</time>
      </trkpt>
      <trkpt lat="43.1423300" lon="-1.6109340">
        <ele>156.759003</ele>
        <time>2018-08-23T07:55:45.000Z</time>
      </trkpt>
      <trkpt lat="43.1422610" lon="-1.6109390">
        <ele>156.012009</ele>
        <time>2018-08-23T07:55:42.000Z</time>
      </trkpt>
      <trkpt lat="43.1419110" lon="-1.6110430">
        <ele>153.471008</ele>
        <time>2018-08-23T07:55:29.000Z</time>
      </trkpt>
      <trkpt lat="43.1415590" lon="-1.6113760">
        <ele>152.983002</ele>
        <time>2018-08-23T07:55:14.000Z</time>
      </trkpt>
      <trkpt lat="43.1412550" lon="-1.6118240">
        <ele>153.750992</ele>
        <time>2018-08-23T07:54:58.000Z</time>
      </trkpt>
      <trkpt lat="43.1408590" lon="-1.6122100">
        <ele>151.416000</ele>
        <time>2018-08-23T07:54:40.000Z</time>
      </trkpt>
      <trkpt lat="43.1405640" lon="-1.6125950">
        <ele>151.207993</ele>
        <time>2018-08-23T07:54:23.000Z</time>
      </trkpt>
      <trkpt lat="43.1403860" lon="-1.6128250">
        <ele>149.621002</ele>
        <time>2018-08-23T07:54:13.000Z</time>
      </trkpt>
      <trkpt lat="43.1402430" lon="-1.6131310">
        <ele>148.128998</ele>
        <time>2018-08-23T07:54:01.000Z</time>
      </trkpt>
      <trkpt lat="43.1400730" lon="-1.6137200">
        <ele>147.647003</ele>
        <time>2018-08-23T07:53:44.000Z</time>
      </trkpt>
      <trkpt lat="43.1400030" lon="-1.6138310">
        <ele>145.190994</ele>
        <time>2018-08-23T07:53:39.000Z</time>
      </trkpt>
      <trkpt lat="43.1399330" lon="-1.6138330">
        <ele>144.872009</ele>
        <time>2018-08-23T07:53:36.000Z</time>
      </trkpt>
      <trkpt lat="43.1395000" lon="-1.6134110">
        <ele>144.895996</ele>
        <time>2018-08-23T07:53:17.000Z</time>
      </trkpt>
      <trkpt lat="43.1389660" lon="-1.6129550">
        <ele>145.058990</ele>
        <time>2018-08-23T07:52:58.000Z</time>
      </trkpt>
      <trkpt lat="43.1383770" lon="-1.6125200">
        <ele>145.057999</ele>
        <time>2018-08-23T07:52:40.000Z</time>
      </trkpt>
      <trkpt lat="43.1382220" lon="-1.6124020">
        <ele>144.649994</ele>
        <time>2018-08-23T07:52:28.000Z</time>
      </trkpt>
      <trkpt lat="43.1382010" lon="-1.6120780">
        <ele>143.188004</ele>
        <time>2018-08-23T07:52:17.000Z</time>
      </trkpt>
      <trkpt lat="43.1382040" lon="-1.6119210">
        <ele>142.432999</ele>
        <time>2018-08-23T07:52:13.000Z</time>
      </trkpt>
      <trkpt lat="43.1379110" lon="-1.6116840">
        <ele>140.908005</ele>
        <time>2018-08-23T07:52:00.000Z</time>
      </trkpt>
    </trkseg>
  </trk>
</gpx>
